<?xml version="1.0" encoding="UTF-8" standalone="no" ?>
<gpx xmlns="http://www.topografix.com/GPX/1/1" xmlns:xsi="http://www.w3.org/2001/XMLSchema-instance" xsi:schemaLocation="http://www.topografix.com/GPX/1/1 http://www.topografix.com/GPX/1/1/gpx.xsd" version="1.1" creator="VisuGPX - https://www.visugpx.com">
  <metadata>
    <name>Premier tier de la transvesubienne 2009</name>
    <desc><![CDATA[Premier tier de la course transvesubienne 2009.
Depart la colmiane, arrivée un peu avant la col de la madone.]]></desc>
  </metadata>
  <trk>
    <name><![CDATA[ACTIVE LOG062759]]></name>
    <trkseg>
      <trkpt lat="44.07094" lon="7.22226">
        <ele>1505.611</ele>
        <time>2009-05-31T04:27:57Z</time>
      </trkpt>
      <trkpt lat="44.07093" lon="7.22226">
        <ele>1506.155</ele>
        <time>2009-05-31T04:32:00Z</time>
      </trkpt>
      <trkpt lat="44.07103" lon="7.2224">
        <ele>1505.76</ele>
        <time>2009-05-31T04:32:09Z</time>
      </trkpt>
      <trkpt lat="44.07106" lon="7.22252">
        <ele>1508.821</ele>
        <time>2009-05-31T04:32:18Z</time>
      </trkpt>
      <trkpt lat="44.07107" lon="7.22255">
        <ele>1508.535</ele>
        <time>2009-05-31T04:32:26Z</time>
      </trkpt>
      <trkpt lat="44.07106" lon="7.22258">
        <ele>1508.55</ele>
        <time>2009-05-31T04:32:34Z</time>
      </trkpt>
      <trkpt lat="44.07102" lon="7.22253">
        <ele>1508.72</ele>
        <time>2009-05-31T04:32:43Z</time>
      </trkpt>
      <trkpt lat="44.07098" lon="7.22255">
        <ele>1509.148</ele>
        <time>2009-05-31T04:32:47Z</time>
      </trkpt>
      <trkpt lat="44.07089" lon="7.22266">
        <ele>1509.505</ele>
        <time>2009-05-31T04:32:57Z</time>
      </trkpt>
      <trkpt lat="44.07088" lon="7.22269">
        <ele>1508.935</ele>
        <time>2009-05-31T04:33:00Z</time>
      </trkpt>
      <trkpt lat="44.07085" lon="7.22279">
        <ele>1506.935</ele>
        <time>2009-05-31T04:33:08Z</time>
      </trkpt>
      <trkpt lat="44.07077" lon="7.2229">
        <ele>1504.562</ele>
        <time>2009-05-31T04:33:17Z</time>
      </trkpt>
      <trkpt lat="44.07075" lon="7.22304">
        <ele>1502.508</ele>
        <time>2009-05-31T04:33:25Z</time>
      </trkpt>
      <trkpt lat="44.07073" lon="7.22308">
        <ele>1501.409</ele>
        <time>2009-05-31T04:33:29Z</time>
      </trkpt>
      <trkpt lat="44.0707" lon="7.22315">
        <ele>1498.537</ele>
        <time>2009-05-31T04:33:37Z</time>
      </trkpt>
      <trkpt lat="44.07069" lon="7.22314">
        <ele>1498.351</ele>
        <time>2009-05-31T04:33:57Z</time>
      </trkpt>
      <trkpt lat="44.07068" lon="7.2233">
        <ele>1498.131</ele>
        <time>2009-05-31T05:02:41Z</time>
      </trkpt>
      <trkpt lat="44.07063" lon="7.22363">
        <ele>1496.047</ele>
        <time>2009-05-31T05:02:47Z</time>
      </trkpt>
      <trkpt lat="44.07057" lon="7.22389">
        <ele>1493.84</ele>
        <time>2009-05-31T05:02:51Z</time>
      </trkpt>
      <trkpt lat="44.07044" lon="7.22433">
        <ele>1489.874</ele>
        <time>2009-05-31T05:02:57Z</time>
      </trkpt>
      <trkpt lat="44.07039" lon="7.22449">
        <ele>1487.205</ele>
        <time>2009-05-31T05:03:02Z</time>
      </trkpt>
      <trkpt lat="44.07034" lon="7.22468">
        <ele>1485.119</ele>
        <time>2009-05-31T05:03:08Z</time>
      </trkpt>
      <trkpt lat="44.07039" lon="7.22507">
        <ele>1481.342</ele>
        <time>2009-05-31T05:03:14Z</time>
      </trkpt>
      <trkpt lat="44.07041" lon="7.22519">
        <ele>1480.018</ele>
        <time>2009-05-31T05:03:16Z</time>
      </trkpt>
      <trkpt lat="44.07042" lon="7.22537">
        <ele>1477.462</ele>
        <time>2009-05-31T05:03:22Z</time>
      </trkpt>
      <trkpt lat="44.07042" lon="7.2254">
        <ele>1477.145</ele>
        <time>2009-05-31T05:03:23Z</time>
      </trkpt>
      <trkpt lat="44.07045" lon="7.22549">
        <ele>1476.636</ele>
        <time>2009-05-31T05:03:33Z</time>
      </trkpt>
      <trkpt lat="44.07037" lon="7.22558">
        <ele>1475.388</ele>
        <time>2009-05-31T05:03:37Z</time>
      </trkpt>
      <trkpt lat="44.07022" lon="7.22572">
        <ele>1473.324</ele>
        <time>2009-05-31T05:03:40Z</time>
      </trkpt>
      <trkpt lat="44.07004" lon="7.22604">
        <ele>1468.619</ele>
        <time>2009-05-31T05:03:44Z</time>
      </trkpt>
      <trkpt lat="44.06974" lon="7.2269">
        <ele>1455.923</ele>
        <time>2009-05-31T05:03:51Z</time>
      </trkpt>
      <trkpt lat="44.06945" lon="7.22763">
        <ele>1448.359</ele>
        <time>2009-05-31T05:03:57Z</time>
      </trkpt>
      <trkpt lat="44.06924" lon="7.22814">
        <ele>1443.86</ele>
        <time>2009-05-31T05:04:02Z</time>
      </trkpt>
      <trkpt lat="44.06919" lon="7.22824">
        <ele>1442.443</ele>
        <time>2009-05-31T05:04:03Z</time>
      </trkpt>
      <trkpt lat="44.06886" lon="7.22853">
        <ele>1437.377</ele>
        <time>2009-05-31T05:04:08Z</time>
      </trkpt>
      <trkpt lat="44.06878" lon="7.22855">
        <ele>1436.814</ele>
        <time>2009-05-31T05:04:09Z</time>
      </trkpt>
      <trkpt lat="44.06864" lon="7.22859">
        <ele>1436.613</ele>
        <time>2009-05-31T05:04:11Z</time>
      </trkpt>
      <trkpt lat="44.06843" lon="7.22861">
        <ele>1437.946</ele>
        <time>2009-05-31T05:04:15Z</time>
      </trkpt>
      <trkpt lat="44.06806" lon="7.22861">
        <ele>1440.806</ele>
        <time>2009-05-31T05:04:25Z</time>
      </trkpt>
      <trkpt lat="44.06779" lon="7.22854">
        <ele>1442.925</ele>
        <time>2009-05-31T05:04:33Z</time>
      </trkpt>
      <trkpt lat="44.0675" lon="7.22844">
        <ele>1444.179</ele>
        <time>2009-05-31T05:04:42Z</time>
      </trkpt>
      <trkpt lat="44.06725" lon="7.22829">
        <ele>1446.277</ele>
        <time>2009-05-31T05:04:51Z</time>
      </trkpt>
      <trkpt lat="44.06709" lon="7.2282">
        <ele>1447.659</ele>
        <time>2009-05-31T05:04:57Z</time>
      </trkpt>
      <trkpt lat="44.06688" lon="7.22809">
        <ele>1448.935</ele>
        <time>2009-05-31T05:05:06Z</time>
      </trkpt>
      <trkpt lat="44.0667" lon="7.22799">
        <ele>1451.189</ele>
        <time>2009-05-31T05:05:15Z</time>
      </trkpt>
      <trkpt lat="44.06653" lon="7.22791">
        <ele>1453.129</ele>
        <time>2009-05-31T05:05:24Z</time>
      </trkpt>
      <trkpt lat="44.0664" lon="7.22783">
        <ele>1455.124</ele>
        <time>2009-05-31T05:05:32Z</time>
      </trkpt>
      <trkpt lat="44.06633" lon="7.22783">
        <ele>1457.065</ele>
        <time>2009-05-31T05:05:36Z</time>
      </trkpt>
      <trkpt lat="44.06624" lon="7.22771">
        <ele>1459.178</ele>
        <time>2009-05-31T05:05:44Z</time>
      </trkpt>
      <trkpt lat="44.06617" lon="7.22766">
        <ele>1460.94</ele>
        <time>2009-05-31T05:05:50Z</time>
      </trkpt>
      <trkpt lat="44.0661" lon="7.22758">
        <ele>1462.938</ele>
        <time>2009-05-31T05:05:57Z</time>
      </trkpt>
      <trkpt lat="44.066" lon="7.2275">
        <ele>1463.523</ele>
        <time>2009-05-31T05:06:05Z</time>
      </trkpt>
      <trkpt lat="44.06592" lon="7.22749">
        <ele>1465.155</ele>
        <time>2009-05-31T05:06:11Z</time>
      </trkpt>
      <trkpt lat="44.06586" lon="7.22749">
        <ele>1465.524</ele>
        <time>2009-05-31T05:06:15Z</time>
      </trkpt>
      <trkpt lat="44.06575" lon="7.22746">
        <ele>1468.98</ele>
        <time>2009-05-31T05:06:24Z</time>
      </trkpt>
      <trkpt lat="44.06566" lon="7.22742">
        <ele>1470.445</ele>
        <time>2009-05-31T05:06:32Z</time>
      </trkpt>
      <trkpt lat="44.06556" lon="7.22732">
        <ele>1470.17</ele>
        <time>2009-05-31T05:06:40Z</time>
      </trkpt>
      <trkpt lat="44.06555" lon="7.22724">
        <ele>1471.522</ele>
        <time>2009-05-31T05:06:45Z</time>
      </trkpt>
      <trkpt lat="44.06551" lon="7.22709">
        <ele>1470.353</ele>
        <time>2009-05-31T05:06:53Z</time>
      </trkpt>
      <trkpt lat="44.06541" lon="7.22697">
        <ele>1472.197</ele>
        <time>2009-05-31T05:07:00Z</time>
      </trkpt>
      <trkpt lat="44.0653" lon="7.22683">
        <ele>1475.802</ele>
        <time>2009-05-31T05:07:08Z</time>
      </trkpt>
      <trkpt lat="44.06517" lon="7.22664">
        <ele>1475.877</ele>
        <time>2009-05-31T05:07:17Z</time>
      </trkpt>
      <trkpt lat="44.06506" lon="7.22648">
        <ele>1478.233</ele>
        <time>2009-05-31T05:07:25Z</time>
      </trkpt>
      <trkpt lat="44.06504" lon="7.22639">
        <ele>1477.416</ele>
        <time>2009-05-31T05:07:28Z</time>
      </trkpt>
      <trkpt lat="44.06514" lon="7.22633">
        <ele>1478.47</ele>
        <time>2009-05-31T05:07:34Z</time>
      </trkpt>
      <trkpt lat="44.06528" lon="7.22647">
        <ele>1477.614</ele>
        <time>2009-05-31T05:07:42Z</time>
      </trkpt>
      <trkpt lat="44.06534" lon="7.22648">
        <ele>1478.051</ele>
        <time>2009-05-31T05:07:45Z</time>
      </trkpt>
      <trkpt lat="44.06533" lon="7.22636">
        <ele>1481.042</ele>
        <time>2009-05-31T05:07:51Z</time>
      </trkpt>
      <trkpt lat="44.06528" lon="7.22629">
        <ele>1481.418</ele>
        <time>2009-05-31T05:07:56Z</time>
      </trkpt>
      <trkpt lat="44.06519" lon="7.22613">
        <ele>1482.607</ele>
        <time>2009-05-31T05:08:05Z</time>
      </trkpt>
      <trkpt lat="44.0651" lon="7.22594">
        <ele>1483.049</ele>
        <time>2009-05-31T05:08:15Z</time>
      </trkpt>
      <trkpt lat="44.06501" lon="7.22582">
        <ele>1484.941</ele>
        <time>2009-05-31T05:08:22Z</time>
      </trkpt>
      <trkpt lat="44.06493" lon="7.22569">
        <ele>1486.007</ele>
        <time>2009-05-31T05:08:30Z</time>
      </trkpt>
      <trkpt lat="44.06484" lon="7.22555">
        <ele>1491.955</ele>
        <time>2009-05-31T05:08:39Z</time>
      </trkpt>
      <trkpt lat="44.06477" lon="7.22544">
        <ele>1492.793</ele>
        <time>2009-05-31T05:08:46Z</time>
      </trkpt>
      <trkpt lat="44.06465" lon="7.22528">
        <ele>1494.109</ele>
        <time>2009-05-31T05:08:56Z</time>
      </trkpt>
      <trkpt lat="44.06456" lon="7.22518">
        <ele>1495.654</ele>
        <time>2009-05-31T05:09:04Z</time>
      </trkpt>
      <trkpt lat="44.06447" lon="7.22501">
        <ele>1499.076</ele>
        <time>2009-05-31T05:09:14Z</time>
      </trkpt>
      <trkpt lat="44.06438" lon="7.22488">
        <ele>1500.787</ele>
        <time>2009-05-31T05:09:23Z</time>
      </trkpt>
      <trkpt lat="44.06431" lon="7.22474">
        <ele>1501.581</ele>
        <time>2009-05-31T05:09:31Z</time>
      </trkpt>
      <trkpt lat="44.06425" lon="7.2246">
        <ele>1502.74</ele>
        <time>2009-05-31T05:09:39Z</time>
      </trkpt>
      <trkpt lat="44.06417" lon="7.22445">
        <ele>1503.83</ele>
        <time>2009-05-31T05:09:48Z</time>
      </trkpt>
      <trkpt lat="44.06413" lon="7.22429">
        <ele>1504.928</ele>
        <time>2009-05-31T05:09:57Z</time>
      </trkpt>
      <trkpt lat="44.06409" lon="7.22424">
        <ele>1504.498</ele>
        <time>2009-05-31T05:10:00Z</time>
      </trkpt>
      <trkpt lat="44.06408" lon="7.22422">
        <ele>1505.699</ele>
        <time>2009-05-31T05:10:02Z</time>
      </trkpt>
      <trkpt lat="44.06403" lon="7.22414">
        <ele>1505.914</ele>
        <time>2009-05-31T05:10:09Z</time>
      </trkpt>
      <trkpt lat="44.06403" lon="7.22411">
        <ele>1505.826</ele>
        <time>2009-05-31T05:10:11Z</time>
      </trkpt>
      <trkpt lat="44.06402" lon="7.22407">
        <ele>1504.987</ele>
        <time>2009-05-31T05:10:14Z</time>
      </trkpt>
      <trkpt lat="44.06401" lon="7.22394">
        <ele>1508.402</ele>
        <time>2009-05-31T05:10:22Z</time>
      </trkpt>
      <trkpt lat="44.06399" lon="7.2239">
        <ele>1509.099</ele>
        <time>2009-05-31T05:10:25Z</time>
      </trkpt>
      <trkpt lat="44.06395" lon="7.22373">
        <ele>1510.469</ele>
        <time>2009-05-31T05:10:35Z</time>
      </trkpt>
      <trkpt lat="44.06395" lon="7.22365">
        <ele>1511.043</ele>
        <time>2009-05-31T05:10:40Z</time>
      </trkpt>
      <trkpt lat="44.06395" lon="7.22352">
        <ele>1512.7</ele>
        <time>2009-05-31T05:10:48Z</time>
      </trkpt>
      <trkpt lat="44.06394" lon="7.22349">
        <ele>1512.87</ele>
        <time>2009-05-31T05:10:50Z</time>
      </trkpt>
      <trkpt lat="44.06392" lon="7.22335">
        <ele>1512.832</ele>
        <time>2009-05-31T05:10:59Z</time>
      </trkpt>
      <trkpt lat="44.06389" lon="7.22333">
        <ele>1513.691</ele>
        <time>2009-05-31T05:11:01Z</time>
      </trkpt>
      <trkpt lat="44.06388" lon="7.22328">
        <ele>1515.038</ele>
        <time>2009-05-31T05:11:05Z</time>
      </trkpt>
      <trkpt lat="44.06384" lon="7.22325">
        <ele>1515.14</ele>
        <time>2009-05-31T05:11:13Z</time>
      </trkpt>
      <trkpt lat="44.06383" lon="7.22313">
        <ele>1515.569</ele>
        <time>2009-05-31T05:11:23Z</time>
      </trkpt>
      <trkpt lat="44.06379" lon="7.22299">
        <ele>1517.606</ele>
        <time>2009-05-31T05:11:35Z</time>
      </trkpt>
      <trkpt lat="44.06378" lon="7.22288">
        <ele>1519.769</ele>
        <time>2009-05-31T05:11:44Z</time>
      </trkpt>
      <trkpt lat="44.06376" lon="7.22278">
        <ele>1521.197</ele>
        <time>2009-05-31T05:11:51Z</time>
      </trkpt>
      <trkpt lat="44.06374" lon="7.22268">
        <ele>1523.206</ele>
        <time>2009-05-31T05:11:59Z</time>
      </trkpt>
      <trkpt lat="44.06371" lon="7.22259">
        <ele>1525.338</ele>
        <time>2009-05-31T05:12:07Z</time>
      </trkpt>
      <trkpt lat="44.06367" lon="7.2225">
        <ele>1528.303</ele>
        <time>2009-05-31T05:12:18Z</time>
      </trkpt>
      <trkpt lat="44.06364" lon="7.22236">
        <ele>1530.266</ele>
        <time>2009-05-31T05:12:28Z</time>
      </trkpt>
      <trkpt lat="44.06364" lon="7.22234">
        <ele>1530.553</ele>
        <time>2009-05-31T05:12:29Z</time>
      </trkpt>
      <trkpt lat="44.06362" lon="7.22225">
        <ele>1532.543</ele>
        <time>2009-05-31T05:12:37Z</time>
      </trkpt>
      <trkpt lat="44.06361" lon="7.22211">
        <ele>1533.415</ele>
        <time>2009-05-31T05:12:46Z</time>
      </trkpt>
      <trkpt lat="44.06359" lon="7.22202">
        <ele>1534.756</ele>
        <time>2009-05-31T05:12:53Z</time>
      </trkpt>
      <trkpt lat="44.06358" lon="7.22192">
        <ele>1536.892</ele>
        <time>2009-05-31T05:13:02Z</time>
      </trkpt>
      <trkpt lat="44.06355" lon="7.22183">
        <ele>1538.958</ele>
        <time>2009-05-31T05:13:10Z</time>
      </trkpt>
      <trkpt lat="44.06354" lon="7.22173">
        <ele>1540.016</ele>
        <time>2009-05-31T05:13:19Z</time>
      </trkpt>
      <trkpt lat="44.06351" lon="7.22165">
        <ele>1541.571</ele>
        <time>2009-05-31T05:13:27Z</time>
      </trkpt>
      <trkpt lat="44.06349" lon="7.22157">
        <ele>1542.962</ele>
        <time>2009-05-31T05:13:35Z</time>
      </trkpt>
      <trkpt lat="44.06348" lon="7.22152">
        <ele>1543.626</ele>
        <time>2009-05-31T05:13:40Z</time>
      </trkpt>
      <trkpt lat="44.06349" lon="7.22143">
        <ele>1544.329</ele>
        <time>2009-05-31T05:13:47Z</time>
      </trkpt>
      <trkpt lat="44.06347" lon="7.22131">
        <ele>1544.492</ele>
        <time>2009-05-31T05:13:55Z</time>
      </trkpt>
      <trkpt lat="44.06347" lon="7.22123">
        <ele>1544.382</ele>
        <time>2009-05-31T05:14:03Z</time>
      </trkpt>
      <trkpt lat="44.06347" lon="7.22115">
        <ele>1545.11</ele>
        <time>2009-05-31T05:14:10Z</time>
      </trkpt>
      <trkpt lat="44.06348" lon="7.22101">
        <ele>1546.279</ele>
        <time>2009-05-31T05:14:19Z</time>
      </trkpt>
      <trkpt lat="44.06351" lon="7.22092">
        <ele>1548.378</ele>
        <time>2009-05-31T05:14:25Z</time>
      </trkpt>
      <trkpt lat="44.06347" lon="7.22087">
        <ele>1550.934</ele>
        <time>2009-05-31T05:14:34Z</time>
      </trkpt>
      <trkpt lat="44.06342" lon="7.22078">
        <ele>1555.415</ele>
        <time>2009-05-31T05:14:47Z</time>
      </trkpt>
      <trkpt lat="44.0634" lon="7.22072">
        <ele>1558.393</ele>
        <time>2009-05-31T05:14:57Z</time>
      </trkpt>
      <trkpt lat="44.06332" lon="7.22069">
        <ele>1561.563</ele>
        <time>2009-05-31T05:15:07Z</time>
      </trkpt>
      <trkpt lat="44.06327" lon="7.22074">
        <ele>1564.103</ele>
        <time>2009-05-31T05:15:17Z</time>
      </trkpt>
      <trkpt lat="44.06326" lon="7.22076">
        <ele>1563.654</ele>
        <time>2009-05-31T05:15:22Z</time>
      </trkpt>
      <trkpt lat="44.06322" lon="7.22087">
        <ele>1563.553</ele>
        <time>2009-05-31T05:15:30Z</time>
      </trkpt>
      <trkpt lat="44.06317" lon="7.22097">
        <ele>1563.293</ele>
        <time>2009-05-31T05:15:39Z</time>
      </trkpt>
      <trkpt lat="44.06315" lon="7.22102">
        <ele>1564.168</ele>
        <time>2009-05-31T05:15:43Z</time>
      </trkpt>
      <trkpt lat="44.06309" lon="7.22116">
        <ele>1566.299</ele>
        <time>2009-05-31T05:15:53Z</time>
      </trkpt>
      <trkpt lat="44.06301" lon="7.22123">
        <ele>1568.871</ele>
        <time>2009-05-31T05:16:01Z</time>
      </trkpt>
      <trkpt lat="44.06291" lon="7.22131">
        <ele>1570.741</ele>
        <time>2009-05-31T05:16:11Z</time>
      </trkpt>
      <trkpt lat="44.06286" lon="7.2214">
        <ele>1570.325</ele>
        <time>2009-05-31T05:16:18Z</time>
      </trkpt>
      <trkpt lat="44.06285" lon="7.22141">
        <ele>1570.689</ele>
        <time>2009-05-31T05:16:19Z</time>
      </trkpt>
      <trkpt lat="44.06277" lon="7.2215">
        <ele>1571.323</ele>
        <time>2009-05-31T05:16:28Z</time>
      </trkpt>
      <trkpt lat="44.06273" lon="7.22158">
        <ele>1573.444</ele>
        <time>2009-05-31T05:16:35Z</time>
      </trkpt>
      <trkpt lat="44.0627" lon="7.22169">
        <ele>1574.121</ele>
        <time>2009-05-31T05:16:42Z</time>
      </trkpt>
      <trkpt lat="44.06263" lon="7.22178">
        <ele>1574.41</ele>
        <time>2009-05-31T05:16:51Z</time>
      </trkpt>
      <trkpt lat="44.06261" lon="7.22181">
        <ele>1574.129</ele>
        <time>2009-05-31T05:16:53Z</time>
      </trkpt>
      <trkpt lat="44.06259" lon="7.22182">
        <ele>1575.312</ele>
        <time>2009-05-31T05:16:56Z</time>
      </trkpt>
      <trkpt lat="44.06252" lon="7.2219">
        <ele>1577.198</ele>
        <time>2009-05-31T05:17:06Z</time>
      </trkpt>
      <trkpt lat="44.06249" lon="7.22196">
        <ele>1578.245</ele>
        <time>2009-05-31T05:17:11Z</time>
      </trkpt>
      <trkpt lat="44.06242" lon="7.22205">
        <ele>1578.913</ele>
        <time>2009-05-31T05:17:19Z</time>
      </trkpt>
      <trkpt lat="44.06236" lon="7.22215">
        <ele>1579.846</ele>
        <time>2009-05-31T05:17:26Z</time>
      </trkpt>
      <trkpt lat="44.06232" lon="7.22223">
        <ele>1581.895</ele>
        <time>2009-05-31T05:17:33Z</time>
      </trkpt>
      <trkpt lat="44.06228" lon="7.22228">
        <ele>1583.005</ele>
        <time>2009-05-31T05:17:38Z</time>
      </trkpt>
      <trkpt lat="44.06222" lon="7.22235">
        <ele>1584.463</ele>
        <time>2009-05-31T05:17:44Z</time>
      </trkpt>
      <trkpt lat="44.06213" lon="7.22247">
        <ele>1585.421</ele>
        <time>2009-05-31T05:17:53Z</time>
      </trkpt>
      <trkpt lat="44.06204" lon="7.22255">
        <ele>1586.796</ele>
        <time>2009-05-31T05:18:01Z</time>
      </trkpt>
      <trkpt lat="44.06194" lon="7.22263">
        <ele>1588.98</ele>
        <time>2009-05-31T05:18:11Z</time>
      </trkpt>
      <trkpt lat="44.0618" lon="7.22268">
        <ele>1590.233</ele>
        <time>2009-05-31T05:18:21Z</time>
      </trkpt>
      <trkpt lat="44.06168" lon="7.22275">
        <ele>1591.009</ele>
        <time>2009-05-31T05:18:31Z</time>
      </trkpt>
      <trkpt lat="44.06158" lon="7.2228">
        <ele>1592.052</ele>
        <time>2009-05-31T05:18:39Z</time>
      </trkpt>
      <trkpt lat="44.0615" lon="7.22283">
        <ele>1592.75</ele>
        <time>2009-05-31T05:18:45Z</time>
      </trkpt>
      <trkpt lat="44.06145" lon="7.22283">
        <ele>1593.176</ele>
        <time>2009-05-31T05:18:49Z</time>
      </trkpt>
      <trkpt lat="44.06131" lon="7.22288">
        <ele>1594.814</ele>
        <time>2009-05-31T05:19:00Z</time>
      </trkpt>
      <trkpt lat="44.06118" lon="7.22295">
        <ele>1597.006</ele>
        <time>2009-05-31T05:19:10Z</time>
      </trkpt>
      <trkpt lat="44.06109" lon="7.22305">
        <ele>1598.393</ele>
        <time>2009-05-31T05:19:18Z</time>
      </trkpt>
      <trkpt lat="44.06099" lon="7.22317">
        <ele>1599.678</ele>
        <time>2009-05-31T05:19:27Z</time>
      </trkpt>
      <trkpt lat="44.06093" lon="7.22329">
        <ele>1600.249</ele>
        <time>2009-05-31T05:19:35Z</time>
      </trkpt>
      <trkpt lat="44.06087" lon="7.22345">
        <ele>1601.607</ele>
        <time>2009-05-31T05:19:43Z</time>
      </trkpt>
      <trkpt lat="44.06084" lon="7.22362">
        <ele>1604.055</ele>
        <time>2009-05-31T05:19:52Z</time>
      </trkpt>
      <trkpt lat="44.0608" lon="7.2238">
        <ele>1604.49</ele>
        <time>2009-05-31T05:20:02Z</time>
      </trkpt>
      <trkpt lat="44.06076" lon="7.22396">
        <ele>1606.424</ele>
        <time>2009-05-31T05:20:11Z</time>
      </trkpt>
      <trkpt lat="44.06073" lon="7.2241">
        <ele>1608.007</ele>
        <time>2009-05-31T05:20:19Z</time>
      </trkpt>
      <trkpt lat="44.0607" lon="7.22424">
        <ele>1608.391</ele>
        <time>2009-05-31T05:20:26Z</time>
      </trkpt>
      <trkpt lat="44.06065" lon="7.22441">
        <ele>1609.735</ele>
        <time>2009-05-31T05:20:36Z</time>
      </trkpt>
      <trkpt lat="44.06062" lon="7.22459">
        <ele>1611.297</ele>
        <time>2009-05-31T05:20:45Z</time>
      </trkpt>
      <trkpt lat="44.06058" lon="7.22476">
        <ele>1611.352</ele>
        <time>2009-05-31T05:20:53Z</time>
      </trkpt>
      <trkpt lat="44.06055" lon="7.22493">
        <ele>1612.163</ele>
        <time>2009-05-31T05:21:01Z</time>
      </trkpt>
      <trkpt lat="44.06054" lon="7.22514">
        <ele>1613.531</ele>
        <time>2009-05-31T05:21:11Z</time>
      </trkpt>
      <trkpt lat="44.06052" lon="7.22531">
        <ele>1614.254</ele>
        <time>2009-05-31T05:21:19Z</time>
      </trkpt>
      <trkpt lat="44.0605" lon="7.22549">
        <ele>1614.581</ele>
        <time>2009-05-31T05:21:27Z</time>
      </trkpt>
      <trkpt lat="44.0605" lon="7.22566">
        <ele>1616.344</ele>
        <time>2009-05-31T05:21:35Z</time>
      </trkpt>
      <trkpt lat="44.06049" lon="7.22585">
        <ele>1619.593</ele>
        <time>2009-05-31T05:21:44Z</time>
      </trkpt>
      <trkpt lat="44.06047" lon="7.22603">
        <ele>1621.447</ele>
        <time>2009-05-31T05:21:53Z</time>
      </trkpt>
      <trkpt lat="44.06047" lon="7.22621">
        <ele>1622.206</ele>
        <time>2009-05-31T05:22:03Z</time>
      </trkpt>
      <trkpt lat="44.06047" lon="7.22637">
        <ele>1625.039</ele>
        <time>2009-05-31T05:22:12Z</time>
      </trkpt>
      <trkpt lat="44.06047" lon="7.2265">
        <ele>1625.836</ele>
        <time>2009-05-31T05:22:20Z</time>
      </trkpt>
      <trkpt lat="44.06048" lon="7.22664">
        <ele>1627.948</ele>
        <time>2009-05-31T05:22:28Z</time>
      </trkpt>
      <trkpt lat="44.06048" lon="7.22675">
        <ele>1629.522</ele>
        <time>2009-05-31T05:22:35Z</time>
      </trkpt>
      <trkpt lat="44.06051" lon="7.22695">
        <ele>1632.412</ele>
        <time>2009-05-31T05:22:46Z</time>
      </trkpt>
      <trkpt lat="44.0605" lon="7.22702">
        <ele>1633.578</ele>
        <time>2009-05-31T05:22:50Z</time>
      </trkpt>
      <trkpt lat="44.06049" lon="7.22723">
        <ele>1634.744</ele>
        <time>2009-05-31T05:23:01Z</time>
      </trkpt>
      <trkpt lat="44.06048" lon="7.22736">
        <ele>1634.236</ele>
        <time>2009-05-31T05:23:08Z</time>
      </trkpt>
      <trkpt lat="44.06049" lon="7.22754">
        <ele>1635.016</ele>
        <time>2009-05-31T05:23:18Z</time>
      </trkpt>
      <trkpt lat="44.0605" lon="7.22773">
        <ele>1635.888</ele>
        <time>2009-05-31T05:23:28Z</time>
      </trkpt>
      <trkpt lat="44.0605" lon="7.2279">
        <ele>1637.361</ele>
        <time>2009-05-31T05:23:37Z</time>
      </trkpt>
      <trkpt lat="44.06051" lon="7.22807">
        <ele>1637.921</ele>
        <time>2009-05-31T05:23:46Z</time>
      </trkpt>
      <trkpt lat="44.06052" lon="7.22815">
        <ele>1638.675</ele>
        <time>2009-05-31T05:23:50Z</time>
      </trkpt>
      <trkpt lat="44.06045" lon="7.22828">
        <ele>1641.589</ele>
        <time>2009-05-31T05:23:58Z</time>
      </trkpt>
      <trkpt lat="44.06038" lon="7.22829">
        <ele>1644.529</ele>
        <time>2009-05-31T05:24:05Z</time>
      </trkpt>
      <trkpt lat="44.06033" lon="7.22825">
        <ele>1645.908</ele>
        <time>2009-05-31T05:24:14Z</time>
      </trkpt>
      <trkpt lat="44.06031" lon="7.22824">
        <ele>1645.32</ele>
        <time>2009-05-31T05:24:15Z</time>
      </trkpt>
      <trkpt lat="44.06025" lon="7.22816">
        <ele>1646.244</ele>
        <time>2009-05-31T05:24:25Z</time>
      </trkpt>
      <trkpt lat="44.06021" lon="7.22808">
        <ele>1647.434</ele>
        <time>2009-05-31T05:24:32Z</time>
      </trkpt>
      <trkpt lat="44.06015" lon="7.22803">
        <ele>1648.074</ele>
        <time>2009-05-31T05:24:40Z</time>
      </trkpt>
      <trkpt lat="44.0601" lon="7.22798">
        <ele>1649.764</ele>
        <time>2009-05-31T05:24:49Z</time>
      </trkpt>
      <trkpt lat="44.06006" lon="7.22791">
        <ele>1652.683</ele>
        <time>2009-05-31T05:24:57Z</time>
      </trkpt>
      <trkpt lat="44.06002" lon="7.22788">
        <ele>1655.293</ele>
        <time>2009-05-31T05:25:06Z</time>
      </trkpt>
      <trkpt lat="44.05998" lon="7.22782">
        <ele>1656.527</ele>
        <time>2009-05-31T05:25:15Z</time>
      </trkpt>
      <trkpt lat="44.05994" lon="7.22776">
        <ele>1658.38</ele>
        <time>2009-05-31T05:25:23Z</time>
      </trkpt>
      <trkpt lat="44.05985" lon="7.22768">
        <ele>1657.498</ele>
        <time>2009-05-31T05:25:33Z</time>
      </trkpt>
      <trkpt lat="44.05978" lon="7.22763">
        <ele>1657.923</ele>
        <time>2009-05-31T05:25:44Z</time>
      </trkpt>
      <trkpt lat="44.05975" lon="7.22759">
        <ele>1658.541</ele>
        <time>2009-05-31T05:25:51Z</time>
      </trkpt>
      <trkpt lat="44.0597" lon="7.22752">
        <ele>1660.687</ele>
        <time>2009-05-31T05:26:01Z</time>
      </trkpt>
      <trkpt lat="44.05963" lon="7.22744">
        <ele>1664.036</ele>
        <time>2009-05-31T05:26:12Z</time>
      </trkpt>
      <trkpt lat="44.05958" lon="7.22738">
        <ele>1666.412</ele>
        <time>2009-05-31T05:26:21Z</time>
      </trkpt>
      <trkpt lat="44.05957" lon="7.22731">
        <ele>1666.423</ele>
        <time>2009-05-31T05:26:30Z</time>
      </trkpt>
      <trkpt lat="44.05957" lon="7.22729">
        <ele>1666.845</ele>
        <time>2009-05-31T05:26:31Z</time>
      </trkpt>
      <trkpt lat="44.05951" lon="7.22722">
        <ele>1667.505</ele>
        <time>2009-05-31T05:26:37Z</time>
      </trkpt>
      <trkpt lat="44.05942" lon="7.22704">
        <ele>1667.242</ele>
        <time>2009-05-31T05:26:47Z</time>
      </trkpt>
      <trkpt lat="44.05934" lon="7.2269">
        <ele>1667.521</ele>
        <time>2009-05-31T05:26:55Z</time>
      </trkpt>
      <trkpt lat="44.05924" lon="7.22669">
        <ele>1669.732</ele>
        <time>2009-05-31T05:27:05Z</time>
      </trkpt>
      <trkpt lat="44.05911" lon="7.22649">
        <ele>1670.845</ele>
        <time>2009-05-31T05:27:15Z</time>
      </trkpt>
      <trkpt lat="44.05899" lon="7.22625">
        <ele>1672.168</ele>
        <time>2009-05-31T05:27:26Z</time>
      </trkpt>
      <trkpt lat="44.05888" lon="7.22603">
        <ele>1674.484</ele>
        <time>2009-05-31T05:27:36Z</time>
      </trkpt>
      <trkpt lat="44.05876" lon="7.2258">
        <ele>1675.604</ele>
        <time>2009-05-31T05:27:46Z</time>
      </trkpt>
      <trkpt lat="44.05866" lon="7.22555">
        <ele>1674.61</ele>
        <time>2009-05-31T05:27:56Z</time>
      </trkpt>
      <trkpt lat="44.05859" lon="7.22538">
        <ele>1677.631</ele>
        <time>2009-05-31T05:28:04Z</time>
      </trkpt>
      <trkpt lat="44.05847" lon="7.22524">
        <ele>1680.209</ele>
        <time>2009-05-31T05:28:13Z</time>
      </trkpt>
      <trkpt lat="44.05833" lon="7.22521">
        <ele>1682.889</ele>
        <time>2009-05-31T05:28:21Z</time>
      </trkpt>
      <trkpt lat="44.0582" lon="7.22521">
        <ele>1682.479</ele>
        <time>2009-05-31T05:28:27Z</time>
      </trkpt>
      <trkpt lat="44.05796" lon="7.22513">
        <ele>1677.976</ele>
        <time>2009-05-31T05:28:35Z</time>
      </trkpt>
      <trkpt lat="44.0578" lon="7.22503">
        <ele>1677.043</ele>
        <time>2009-05-31T05:28:42Z</time>
      </trkpt>
      <trkpt lat="44.0577" lon="7.2249">
        <ele>1675.995</ele>
        <time>2009-05-31T05:28:49Z</time>
      </trkpt>
      <trkpt lat="44.05757" lon="7.22474">
        <ele>1675.753</ele>
        <time>2009-05-31T05:28:56Z</time>
      </trkpt>
      <trkpt lat="44.05743" lon="7.22464">
        <ele>1681.302</ele>
        <time>2009-05-31T05:29:04Z</time>
      </trkpt>
      <trkpt lat="44.05729" lon="7.22459">
        <ele>1683.116</ele>
        <time>2009-05-31T05:29:09Z</time>
      </trkpt>
      <trkpt lat="44.05715" lon="7.22455">
        <ele>1685.686</ele>
        <time>2009-05-31T05:29:15Z</time>
      </trkpt>
      <trkpt lat="44.05704" lon="7.22445">
        <ele>1686.917</ele>
        <time>2009-05-31T05:29:21Z</time>
      </trkpt>
      <trkpt lat="44.05702" lon="7.22444">
        <ele>1687.988</ele>
        <time>2009-05-31T05:29:22Z</time>
      </trkpt>
      <trkpt lat="44.05687" lon="7.2244">
        <ele>1692.634</ele>
        <time>2009-05-31T05:29:30Z</time>
      </trkpt>
      <trkpt lat="44.0567" lon="7.22427">
        <ele>1689.709</ele>
        <time>2009-05-31T05:29:38Z</time>
      </trkpt>
      <trkpt lat="44.05654" lon="7.22418">
        <ele>1691.202</ele>
        <time>2009-05-31T05:29:45Z</time>
      </trkpt>
      <trkpt lat="44.05639" lon="7.22406">
        <ele>1689.376</ele>
        <time>2009-05-31T05:29:52Z</time>
      </trkpt>
      <trkpt lat="44.0563" lon="7.22393">
        <ele>1685.632</ele>
        <time>2009-05-31T05:29:59Z</time>
      </trkpt>
      <trkpt lat="44.05615" lon="7.22388">
        <ele>1689.463</ele>
        <time>2009-05-31T05:30:21Z</time>
      </trkpt>
      <trkpt lat="44.05608" lon="7.22382">
        <ele>1688.121</ele>
        <time>2009-05-31T05:30:29Z</time>
      </trkpt>
      <trkpt lat="44.05603" lon="7.22376">
        <ele>1685.906</ele>
        <time>2009-05-31T05:30:37Z</time>
      </trkpt>
      <trkpt lat="44.05597" lon="7.22368">
        <ele>1685.143</ele>
        <time>2009-05-31T05:30:47Z</time>
      </trkpt>
      <trkpt lat="44.05592" lon="7.22358">
        <ele>1681.775</ele>
        <time>2009-05-31T05:30:55Z</time>
      </trkpt>
      <trkpt lat="44.05586" lon="7.22353">
        <ele>1681.355</ele>
        <time>2009-05-31T05:31:03Z</time>
      </trkpt>
      <trkpt lat="44.05581" lon="7.22349">
        <ele>1682.804</ele>
        <time>2009-05-31T05:31:11Z</time>
      </trkpt>
      <trkpt lat="44.05578" lon="7.22343">
        <ele>1682.133</ele>
        <time>2009-05-31T05:31:18Z</time>
      </trkpt>
      <trkpt lat="44.05574" lon="7.22332">
        <ele>1682.81</ele>
        <time>2009-05-31T05:31:24Z</time>
      </trkpt>
      <trkpt lat="44.05573" lon="7.22302">
        <ele>1683.798</ele>
        <time>2009-05-31T05:31:34Z</time>
      </trkpt>
      <trkpt lat="44.05577" lon="7.22277">
        <ele>1686.66</ele>
        <time>2009-05-31T05:31:44Z</time>
      </trkpt>
      <trkpt lat="44.05582" lon="7.22252">
        <ele>1689.233</ele>
        <time>2009-05-31T05:31:54Z</time>
      </trkpt>
      <trkpt lat="44.05588" lon="7.2223">
        <ele>1691.203</ele>
        <time>2009-05-31T05:32:03Z</time>
      </trkpt>
      <trkpt lat="44.05596" lon="7.22212">
        <ele>1692.286</ele>
        <time>2009-05-31T05:32:11Z</time>
      </trkpt>
      <trkpt lat="44.05603" lon="7.22196">
        <ele>1693.659</ele>
        <time>2009-05-31T05:32:18Z</time>
      </trkpt>
      <trkpt lat="44.0561" lon="7.22172">
        <ele>1694.797</ele>
        <time>2009-05-31T05:32:28Z</time>
      </trkpt>
      <trkpt lat="44.05617" lon="7.22156">
        <ele>1696.724</ele>
        <time>2009-05-31T05:32:36Z</time>
      </trkpt>
      <trkpt lat="44.05625" lon="7.22142">
        <ele>1699.451</ele>
        <time>2009-05-31T05:32:45Z</time>
      </trkpt>
      <trkpt lat="44.05636" lon="7.22121">
        <ele>1701.645</ele>
        <time>2009-05-31T05:32:56Z</time>
      </trkpt>
      <trkpt lat="44.05642" lon="7.22104">
        <ele>1703.694</ele>
        <time>2009-05-31T05:33:05Z</time>
      </trkpt>
      <trkpt lat="44.05649" lon="7.22086">
        <ele>1706.071</ele>
        <time>2009-05-31T05:33:13Z</time>
      </trkpt>
      <trkpt lat="44.05654" lon="7.22069">
        <ele>1706.746</ele>
        <time>2009-05-31T05:33:20Z</time>
      </trkpt>
      <trkpt lat="44.05663" lon="7.22049">
        <ele>1709.331</ele>
        <time>2009-05-31T05:33:30Z</time>
      </trkpt>
      <trkpt lat="44.05671" lon="7.22029">
        <ele>1711.803</ele>
        <time>2009-05-31T05:33:40Z</time>
      </trkpt>
      <trkpt lat="44.05679" lon="7.22011">
        <ele>1714.178</ele>
        <time>2009-05-31T05:33:49Z</time>
      </trkpt>
      <trkpt lat="44.05687" lon="7.21992">
        <ele>1718.84</ele>
        <time>2009-05-31T05:33:59Z</time>
      </trkpt>
      <trkpt lat="44.05693" lon="7.2197">
        <ele>1724.861</ele>
        <time>2009-05-31T05:34:09Z</time>
      </trkpt>
      <trkpt lat="44.05699" lon="7.21951">
        <ele>1728.314</ele>
        <time>2009-05-31T05:34:18Z</time>
      </trkpt>
      <trkpt lat="44.05705" lon="7.2193">
        <ele>1730.981</ele>
        <time>2009-05-31T05:34:28Z</time>
      </trkpt>
      <trkpt lat="44.05706" lon="7.21908">
        <ele>1735.149</ele>
        <time>2009-05-31T05:34:37Z</time>
      </trkpt>
      <trkpt lat="44.05697" lon="7.21888">
        <ele>1740.915</ele>
        <time>2009-05-31T05:34:46Z</time>
      </trkpt>
      <trkpt lat="44.05691" lon="7.21884">
        <ele>1735.579</ele>
        <time>2009-05-31T05:34:53Z</time>
      </trkpt>
      <trkpt lat="44.05688" lon="7.21868">
        <ele>1728.843</ele>
        <time>2009-05-31T05:35:00Z</time>
      </trkpt>
      <trkpt lat="44.05686" lon="7.21839">
        <ele>1723.566</ele>
        <time>2009-05-31T05:35:11Z</time>
      </trkpt>
      <trkpt lat="44.05686" lon="7.21817">
        <ele>1724.057</ele>
        <time>2009-05-31T05:35:20Z</time>
      </trkpt>
      <trkpt lat="44.05684" lon="7.21805">
        <ele>1725.042</ele>
        <time>2009-05-31T05:35:25Z</time>
      </trkpt>
      <trkpt lat="44.05675" lon="7.21791">
        <ele>1725.928</ele>
        <time>2009-05-31T05:35:33Z</time>
      </trkpt>
      <trkpt lat="44.05664" lon="7.21782">
        <ele>1726.567</ele>
        <time>2009-05-31T05:35:40Z</time>
      </trkpt>
      <trkpt lat="44.05662" lon="7.2178">
        <ele>1726.791</ele>
        <time>2009-05-31T05:35:42Z</time>
      </trkpt>
      <trkpt lat="44.05649" lon="7.21765">
        <ele>1727.92</ele>
        <time>2009-05-31T05:35:52Z</time>
      </trkpt>
      <trkpt lat="44.05642" lon="7.21742">
        <ele>1729.801</ele>
        <time>2009-05-31T05:36:02Z</time>
      </trkpt>
      <trkpt lat="44.05639" lon="7.21725">
        <ele>1732.068</ele>
        <time>2009-05-31T05:36:10Z</time>
      </trkpt>
      <trkpt lat="44.05636" lon="7.21701">
        <ele>1735.334</ele>
        <time>2009-05-31T05:36:20Z</time>
      </trkpt>
      <trkpt lat="44.05635" lon="7.21675">
        <ele>1735.698</ele>
        <time>2009-05-31T05:36:29Z</time>
      </trkpt>
      <trkpt lat="44.05627" lon="7.21658">
        <ele>1736.082</ele>
        <time>2009-05-31T05:36:38Z</time>
      </trkpt>
      <trkpt lat="44.05612" lon="7.21638">
        <ele>1736.343</ele>
        <time>2009-05-31T05:36:49Z</time>
      </trkpt>
      <trkpt lat="44.05596" lon="7.21628">
        <ele>1737.802</ele>
        <time>2009-05-31T05:36:58Z</time>
      </trkpt>
      <trkpt lat="44.05583" lon="7.21623">
        <ele>1738.752</ele>
        <time>2009-05-31T05:37:06Z</time>
      </trkpt>
      <trkpt lat="44.05573" lon="7.2162">
        <ele>1737.599</ele>
        <time>2009-05-31T05:37:13Z</time>
      </trkpt>
      <trkpt lat="44.05554" lon="7.21614">
        <ele>1735.828</ele>
        <time>2009-05-31T05:37:20Z</time>
      </trkpt>
      <trkpt lat="44.05507" lon="7.21606">
        <ele>1731.562</ele>
        <time>2009-05-31T05:37:27Z</time>
      </trkpt>
      <trkpt lat="44.05469" lon="7.21603">
        <ele>1730.513</ele>
        <time>2009-05-31T05:37:34Z</time>
      </trkpt>
      <trkpt lat="44.05434" lon="7.21598">
        <ele>1727.348</ele>
        <time>2009-05-31T05:37:41Z</time>
      </trkpt>
      <trkpt lat="44.05422" lon="7.21597">
        <ele>1727.28</ele>
        <time>2009-05-31T05:37:43Z</time>
      </trkpt>
      <trkpt lat="44.05389" lon="7.2158">
        <ele>1724.743</ele>
        <time>2009-05-31T05:37:49Z</time>
      </trkpt>
      <trkpt lat="44.0538" lon="7.21572">
        <ele>1722.398</ele>
        <time>2009-05-31T05:37:51Z</time>
      </trkpt>
      <trkpt lat="44.05365" lon="7.21563">
        <ele>1718.867</ele>
        <time>2009-05-31T05:37:54Z</time>
      </trkpt>
      <trkpt lat="44.05348" lon="7.21543">
        <ele>1714.633</ele>
        <time>2009-05-31T05:37:58Z</time>
      </trkpt>
      <trkpt lat="44.05341" lon="7.21527">
        <ele>1711.631</ele>
        <time>2009-05-31T05:38:01Z</time>
      </trkpt>
      <trkpt lat="44.05325" lon="7.21493">
        <ele>1709.354</ele>
        <time>2009-05-31T05:38:07Z</time>
      </trkpt>
      <trkpt lat="44.05321" lon="7.21482">
        <ele>1709.644</ele>
        <time>2009-05-31T05:38:09Z</time>
      </trkpt>
      <trkpt lat="44.05311" lon="7.2145">
        <ele>1705.429</ele>
        <time>2009-05-31T05:38:16Z</time>
      </trkpt>
      <trkpt lat="44.05315" lon="7.21433">
        <ele>1706.143</ele>
        <time>2009-05-31T05:38:21Z</time>
      </trkpt>
      <trkpt lat="44.05311" lon="7.21414">
        <ele>1707.201</ele>
        <time>2009-05-31T05:38:27Z</time>
      </trkpt>
      <trkpt lat="44.05304" lon="7.21384">
        <ele>1711.048</ele>
        <time>2009-05-31T05:38:35Z</time>
      </trkpt>
      <trkpt lat="44.05299" lon="7.21354">
        <ele>1712.433</ele>
        <time>2009-05-31T05:38:43Z</time>
      </trkpt>
      <trkpt lat="44.05297" lon="7.21333">
        <ele>1712.356</ele>
        <time>2009-05-31T05:38:49Z</time>
      </trkpt>
      <trkpt lat="44.0529" lon="7.213">
        <ele>1711.024</ele>
        <time>2009-05-31T05:38:57Z</time>
      </trkpt>
      <trkpt lat="44.05278" lon="7.2128">
        <ele>1713.581</ele>
        <time>2009-05-31T05:39:04Z</time>
      </trkpt>
      <trkpt lat="44.05261" lon="7.21257">
        <ele>1713.991</ele>
        <time>2009-05-31T05:39:12Z</time>
      </trkpt>
      <trkpt lat="44.05248" lon="7.21237">
        <ele>1716.348</ele>
        <time>2009-05-31T05:39:19Z</time>
      </trkpt>
      <trkpt lat="44.05239" lon="7.2122">
        <ele>1718.287</ele>
        <time>2009-05-31T05:39:26Z</time>
      </trkpt>
      <trkpt lat="44.05227" lon="7.21211">
        <ele>1721.037</ele>
        <time>2009-05-31T05:39:33Z</time>
      </trkpt>
      <trkpt lat="44.05214" lon="7.21195">
        <ele>1723.362</ele>
        <time>2009-05-31T05:39:40Z</time>
      </trkpt>
      <trkpt lat="44.05205" lon="7.2118">
        <ele>1724.873</ele>
        <time>2009-05-31T05:39:47Z</time>
      </trkpt>
      <trkpt lat="44.05203" lon="7.21158">
        <ele>1724.986</ele>
        <time>2009-05-31T05:39:53Z</time>
      </trkpt>
      <trkpt lat="44.05199" lon="7.21137">
        <ele>1724.728</ele>
        <time>2009-05-31T05:39:57Z</time>
      </trkpt>
      <trkpt lat="44.05192" lon="7.21115">
        <ele>1723.624</ele>
        <time>2009-05-31T05:40:01Z</time>
      </trkpt>
      <trkpt lat="44.05179" lon="7.21084">
        <ele>1722.007</ele>
        <time>2009-05-31T05:40:07Z</time>
      </trkpt>
      <trkpt lat="44.05177" lon="7.21054">
        <ele>1720.606</ele>
        <time>2009-05-31T05:40:11Z</time>
      </trkpt>
      <trkpt lat="44.05191" lon="7.21026">
        <ele>1717.525</ele>
        <time>2009-05-31T05:40:16Z</time>
      </trkpt>
      <trkpt lat="44.05209" lon="7.21013">
        <ele>1717.083</ele>
        <time>2009-05-31T05:40:20Z</time>
      </trkpt>
      <trkpt lat="44.05213" lon="7.21007">
        <ele>1716.165</ele>
        <time>2009-05-31T05:40:22Z</time>
      </trkpt>
      <trkpt lat="44.05211" lon="7.20977">
        <ele>1715.794</ele>
        <time>2009-05-31T05:40:27Z</time>
      </trkpt>
      <trkpt lat="44.05205" lon="7.20955">
        <ele>1712.978</ele>
        <time>2009-05-31T05:40:30Z</time>
      </trkpt>
      <trkpt lat="44.05202" lon="7.20935">
        <ele>1711.472</ele>
        <time>2009-05-31T05:40:34Z</time>
      </trkpt>
      <trkpt lat="44.0521" lon="7.20917">
        <ele>1709.146</ele>
        <time>2009-05-31T05:40:40Z</time>
      </trkpt>
      <trkpt lat="44.05216" lon="7.20904">
        <ele>1707.459</ele>
        <time>2009-05-31T05:40:43Z</time>
      </trkpt>
      <trkpt lat="44.05231" lon="7.20894">
        <ele>1704.774</ele>
        <time>2009-05-31T05:40:48Z</time>
      </trkpt>
      <trkpt lat="44.05237" lon="7.20889">
        <ele>1704.345</ele>
        <time>2009-05-31T05:40:51Z</time>
      </trkpt>
      <trkpt lat="44.05248" lon="7.20878">
        <ele>1702.659</ele>
        <time>2009-05-31T05:40:55Z</time>
      </trkpt>
      <trkpt lat="44.05268" lon="7.20872">
        <ele>1696.371</ele>
        <time>2009-05-31T05:41:01Z</time>
      </trkpt>
      <trkpt lat="44.05276" lon="7.20872">
        <ele>1694.113</ele>
        <time>2009-05-31T05:41:03Z</time>
      </trkpt>
      <trkpt lat="44.05283" lon="7.20845">
        <ele>1690.582</ele>
        <time>2009-05-31T05:41:08Z</time>
      </trkpt>
      <trkpt lat="44.05282" lon="7.20824">
        <ele>1690.206</ele>
        <time>2009-05-31T05:41:11Z</time>
      </trkpt>
      <trkpt lat="44.05279" lon="7.20781">
        <ele>1689.181</ele>
        <time>2009-05-31T05:41:17Z</time>
      </trkpt>
      <trkpt lat="44.0528" lon="7.20738">
        <ele>1686.876</ele>
        <time>2009-05-31T05:41:22Z</time>
      </trkpt>
      <trkpt lat="44.05294" lon="7.20699">
        <ele>1684.386</ele>
        <time>2009-05-31T05:41:27Z</time>
      </trkpt>
      <trkpt lat="44.05298" lon="7.20691">
        <ele>1683.22</ele>
        <time>2009-05-31T05:41:28Z</time>
      </trkpt>
      <trkpt lat="44.05307" lon="7.2068">
        <ele>1682.045</ele>
        <time>2009-05-31T05:41:30Z</time>
      </trkpt>
      <trkpt lat="44.05314" lon="7.20649">
        <ele>1680.344</ele>
        <time>2009-05-31T05:41:35Z</time>
      </trkpt>
      <trkpt lat="44.05312" lon="7.20642">
        <ele>1681.017</ele>
        <time>2009-05-31T05:41:36Z</time>
      </trkpt>
      <trkpt lat="44.05303" lon="7.2062">
        <ele>1680.418</ele>
        <time>2009-05-31T05:41:39Z</time>
      </trkpt>
      <trkpt lat="44.05272" lon="7.20584">
        <ele>1677.279</ele>
        <time>2009-05-31T05:41:45Z</time>
      </trkpt>
      <trkpt lat="44.05266" lon="7.20577">
        <ele>1677.534</ele>
        <time>2009-05-31T05:41:46Z</time>
      </trkpt>
      <trkpt lat="44.05236" lon="7.20544">
        <ele>1678.139</ele>
        <time>2009-05-31T05:41:52Z</time>
      </trkpt>
      <trkpt lat="44.05214" lon="7.20513">
        <ele>1679.478</ele>
        <time>2009-05-31T05:41:57Z</time>
      </trkpt>
      <trkpt lat="44.05204" lon="7.20499">
        <ele>1679.664</ele>
        <time>2009-05-31T05:41:59Z</time>
      </trkpt>
      <trkpt lat="44.05188" lon="7.20473">
        <ele>1680.591</ele>
        <time>2009-05-31T05:42:03Z</time>
      </trkpt>
      <trkpt lat="44.05179" lon="7.2046">
        <ele>1679.692</ele>
        <time>2009-05-31T05:42:05Z</time>
      </trkpt>
      <trkpt lat="44.05169" lon="7.2045">
        <ele>1678.5</ele>
        <time>2009-05-31T05:42:07Z</time>
      </trkpt>
      <trkpt lat="44.05157" lon="7.20426">
        <ele>1677.457</ele>
        <time>2009-05-31T05:42:11Z</time>
      </trkpt>
      <trkpt lat="44.05156" lon="7.20419">
        <ele>1677.343</ele>
        <time>2009-05-31T05:42:12Z</time>
      </trkpt>
      <trkpt lat="44.05141" lon="7.20391">
        <ele>1676.731</ele>
        <time>2009-05-31T05:42:17Z</time>
      </trkpt>
      <trkpt lat="44.05126" lon="7.20333">
        <ele>1676.619</ele>
        <time>2009-05-31T05:42:25Z</time>
      </trkpt>
      <trkpt lat="44.05121" lon="7.20302">
        <ele>1677.31</ele>
        <time>2009-05-31T05:42:31Z</time>
      </trkpt>
      <trkpt lat="44.05108" lon="7.2028">
        <ele>1676.254</ele>
        <time>2009-05-31T05:42:36Z</time>
      </trkpt>
      <trkpt lat="44.05106" lon="7.20274">
        <ele>1676.134</ele>
        <time>2009-05-31T05:42:37Z</time>
      </trkpt>
      <trkpt lat="44.05095" lon="7.20237">
        <ele>1676.826</ele>
        <time>2009-05-31T05:42:42Z</time>
      </trkpt>
      <trkpt lat="44.05085" lon="7.2021">
        <ele>1676.128</ele>
        <time>2009-05-31T05:42:46Z</time>
      </trkpt>
      <trkpt lat="44.05078" lon="7.20177">
        <ele>1675.022</ele>
        <time>2009-05-31T05:42:50Z</time>
      </trkpt>
      <trkpt lat="44.05064" lon="7.20124">
        <ele>1674.507</ele>
        <time>2009-05-31T05:42:57Z</time>
      </trkpt>
      <trkpt lat="44.05059" lon="7.20108">
        <ele>1673.911</ele>
        <time>2009-05-31T05:42:59Z</time>
      </trkpt>
      <trkpt lat="44.05055" lon="7.20093">
        <ele>1674.161</ele>
        <time>2009-05-31T05:43:01Z</time>
      </trkpt>
      <trkpt lat="44.05053" lon="7.20079">
        <ele>1674.273</ele>
        <time>2009-05-31T05:43:03Z</time>
      </trkpt>
      <trkpt lat="44.05051" lon="7.20065">
        <ele>1674.096</ele>
        <time>2009-05-31T05:43:05Z</time>
      </trkpt>
      <trkpt lat="44.0505" lon="7.20019">
        <ele>1672.651</ele>
        <time>2009-05-31T05:43:10Z</time>
      </trkpt>
      <trkpt lat="44.05054" lon="7.1996">
        <ele>1668.672</ele>
        <time>2009-05-31T05:43:16Z</time>
      </trkpt>
      <trkpt lat="44.05053" lon="7.19949">
        <ele>1667.867</ele>
        <time>2009-05-31T05:43:17Z</time>
      </trkpt>
      <trkpt lat="44.05058" lon="7.19859">
        <ele>1663.486</ele>
        <time>2009-05-31T05:43:26Z</time>
      </trkpt>
      <trkpt lat="44.0506" lon="7.19849">
        <ele>1663.537</ele>
        <time>2009-05-31T05:43:27Z</time>
      </trkpt>
      <trkpt lat="44.0507" lon="7.19785">
        <ele>1658.818</ele>
        <time>2009-05-31T05:43:34Z</time>
      </trkpt>
      <trkpt lat="44.05071" lon="7.19777">
        <ele>1658.033</ele>
        <time>2009-05-31T05:43:35Z</time>
      </trkpt>
      <trkpt lat="44.05063" lon="7.19732">
        <ele>1654.32</ele>
        <time>2009-05-31T05:43:41Z</time>
      </trkpt>
      <trkpt lat="44.05068" lon="7.19704">
        <ele>1652.894</ele>
        <time>2009-05-31T05:43:44Z</time>
      </trkpt>
      <trkpt lat="44.0508" lon="7.1968">
        <ele>1650.528</ele>
        <time>2009-05-31T05:43:47Z</time>
      </trkpt>
      <trkpt lat="44.05089" lon="7.19653">
        <ele>1648.397</ele>
        <time>2009-05-31T05:43:50Z</time>
      </trkpt>
      <trkpt lat="44.05092" lon="7.19616">
        <ele>1648.931</ele>
        <time>2009-05-31T05:43:54Z</time>
      </trkpt>
      <trkpt lat="44.05086" lon="7.19568">
        <ele>1648.56</ele>
        <time>2009-05-31T05:44:00Z</time>
      </trkpt>
      <trkpt lat="44.05085" lon="7.19531">
        <ele>1647.712</ele>
        <time>2009-05-31T05:44:06Z</time>
      </trkpt>
      <trkpt lat="44.05082" lon="7.19502">
        <ele>1647.46</ele>
        <time>2009-05-31T05:44:10Z</time>
      </trkpt>
      <trkpt lat="44.05072" lon="7.19486">
        <ele>1650.578</ele>
        <time>2009-05-31T05:44:15Z</time>
      </trkpt>
      <trkpt lat="44.05061" lon="7.19473">
        <ele>1653.521</ele>
        <time>2009-05-31T05:44:49Z</time>
      </trkpt>
      <trkpt lat="44.05054" lon="7.19458">
        <ele>1654.682</ele>
        <time>2009-05-31T05:45:00Z</time>
      </trkpt>
      <trkpt lat="44.05053" lon="7.19458">
        <ele>1654.819</ele>
        <time>2009-05-31T05:45:01Z</time>
      </trkpt>
      <trkpt lat="44.05041" lon="7.19456">
        <ele>1656.119</ele>
        <time>2009-05-31T05:45:12Z</time>
      </trkpt>
      <trkpt lat="44.05032" lon="7.1945">
        <ele>1657.699</ele>
        <time>2009-05-31T05:45:24Z</time>
      </trkpt>
      <trkpt lat="44.05027" lon="7.1944">
        <ele>1658.912</ele>
        <time>2009-05-31T05:45:33Z</time>
      </trkpt>
      <trkpt lat="44.05019" lon="7.19432">
        <ele>1660.373</ele>
        <time>2009-05-31T05:45:44Z</time>
      </trkpt>
      <trkpt lat="44.05023" lon="7.19409">
        <ele>1661.684</ele>
        <time>2009-05-31T05:45:53Z</time>
      </trkpt>
      <trkpt lat="44.0502" lon="7.19394">
        <ele>1663.358</ele>
        <time>2009-05-31T05:46:04Z</time>
      </trkpt>
      <trkpt lat="44.05018" lon="7.19392">
        <ele>1663.989</ele>
        <time>2009-05-31T05:46:08Z</time>
      </trkpt>
      <trkpt lat="44.0501" lon="7.19385">
        <ele>1665.663</ele>
        <time>2009-05-31T05:46:17Z</time>
      </trkpt>
      <trkpt lat="44.05003" lon="7.19376">
        <ele>1667.914</ele>
        <time>2009-05-31T05:46:27Z</time>
      </trkpt>
      <trkpt lat="44.04997" lon="7.1937">
        <ele>1670.069</ele>
        <time>2009-05-31T05:46:37Z</time>
      </trkpt>
      <trkpt lat="44.04995" lon="7.19359">
        <ele>1672.533</ele>
        <time>2009-05-31T05:46:49Z</time>
      </trkpt>
      <trkpt lat="44.04994" lon="7.19348">
        <ele>1674.952</ele>
        <time>2009-05-31T05:46:59Z</time>
      </trkpt>
      <trkpt lat="44.04994" lon="7.19337">
        <ele>1677.252</ele>
        <time>2009-05-31T05:47:10Z</time>
      </trkpt>
      <trkpt lat="44.04995" lon="7.19317">
        <ele>1679.231</ele>
        <time>2009-05-31T05:47:20Z</time>
      </trkpt>
      <trkpt lat="44.04998" lon="7.19296">
        <ele>1681.098</ele>
        <time>2009-05-31T05:47:30Z</time>
      </trkpt>
      <trkpt lat="44.04993" lon="7.19279">
        <ele>1683.643</ele>
        <time>2009-05-31T05:47:42Z</time>
      </trkpt>
      <trkpt lat="44.04991" lon="7.19263">
        <ele>1686.419</ele>
        <time>2009-05-31T05:47:53Z</time>
      </trkpt>
      <trkpt lat="44.04988" lon="7.19249">
        <ele>1689.633</ele>
        <time>2009-05-31T05:48:06Z</time>
      </trkpt>
      <trkpt lat="44.04983" lon="7.19241">
        <ele>1691.667</ele>
        <time>2009-05-31T05:48:19Z</time>
      </trkpt>
      <trkpt lat="44.04976" lon="7.19231">
        <ele>1693.851</ele>
        <time>2009-05-31T05:48:32Z</time>
      </trkpt>
      <trkpt lat="44.04968" lon="7.19219">
        <ele>1696.047</ele>
        <time>2009-05-31T05:48:46Z</time>
      </trkpt>
      <trkpt lat="44.04962" lon="7.19212">
        <ele>1698.094</ele>
        <time>2009-05-31T05:48:57Z</time>
      </trkpt>
      <trkpt lat="44.04954" lon="7.19208">
        <ele>1699.734</ele>
        <time>2009-05-31T05:49:10Z</time>
      </trkpt>
      <trkpt lat="44.04949" lon="7.19193">
        <ele>1700.791</ele>
        <time>2009-05-31T05:49:22Z</time>
      </trkpt>
      <trkpt lat="44.04952" lon="7.19166">
        <ele>1702.052</ele>
        <time>2009-05-31T05:49:35Z</time>
      </trkpt>
      <trkpt lat="44.04953" lon="7.19163">
        <ele>1702.04</ele>
        <time>2009-05-31T05:49:38Z</time>
      </trkpt>
      <trkpt lat="44.04953" lon="7.19147">
        <ele>1702.056</ele>
        <time>2009-05-31T05:49:46Z</time>
      </trkpt>
      <trkpt lat="44.04951" lon="7.19136">
        <ele>1704.414</ele>
        <time>2009-05-31T05:49:56Z</time>
      </trkpt>
      <trkpt lat="44.04944" lon="7.1913">
        <ele>1706.794</ele>
        <time>2009-05-31T05:50:07Z</time>
      </trkpt>
      <trkpt lat="44.04944" lon="7.19111">
        <ele>1708.669</ele>
        <time>2009-05-31T05:50:19Z</time>
      </trkpt>
      <trkpt lat="44.04932" lon="7.19102">
        <ele>1711.368</ele>
        <time>2009-05-31T05:50:33Z</time>
      </trkpt>
      <trkpt lat="44.04928" lon="7.19095">
        <ele>1713.03</ele>
        <time>2009-05-31T05:50:44Z</time>
      </trkpt>
      <trkpt lat="44.04927" lon="7.19077">
        <ele>1715.211</ele>
        <time>2009-05-31T05:50:54Z</time>
      </trkpt>
      <trkpt lat="44.04924" lon="7.19062">
        <ele>1718.239</ele>
        <time>2009-05-31T05:51:07Z</time>
      </trkpt>
      <trkpt lat="44.04922" lon="7.19047">
        <ele>1720.925</ele>
        <time>2009-05-31T05:51:19Z</time>
      </trkpt>
      <trkpt lat="44.04922" lon="7.1903">
        <ele>1722.784</ele>
        <time>2009-05-31T05:51:30Z</time>
      </trkpt>
      <trkpt lat="44.04923" lon="7.19014">
        <ele>1725.695</ele>
        <time>2009-05-31T05:51:42Z</time>
      </trkpt>
      <trkpt lat="44.04923" lon="7.18999">
        <ele>1728.61</ele>
        <time>2009-05-31T05:51:54Z</time>
      </trkpt>
      <trkpt lat="44.04921" lon="7.18989">
        <ele>1730.716</ele>
        <time>2009-05-31T05:52:05Z</time>
      </trkpt>
      <trkpt lat="44.04923" lon="7.18978">
        <ele>1732.465</ele>
        <time>2009-05-31T05:52:11Z</time>
      </trkpt>
      <trkpt lat="44.04919" lon="7.18963">
        <ele>1733.831</ele>
        <time>2009-05-31T05:52:20Z</time>
      </trkpt>
      <trkpt lat="44.04921" lon="7.18954">
        <ele>1735.621</ele>
        <time>2009-05-31T05:52:30Z</time>
      </trkpt>
      <trkpt lat="44.04921" lon="7.1894">
        <ele>1737.765</ele>
        <time>2009-05-31T05:52:40Z</time>
      </trkpt>
      <trkpt lat="44.04925" lon="7.18926">
        <ele>1738.418</ele>
        <time>2009-05-31T05:52:50Z</time>
      </trkpt>
      <trkpt lat="44.04926" lon="7.18914">
        <ele>1740.014</ele>
        <time>2009-05-31T05:52:58Z</time>
      </trkpt>
      <trkpt lat="44.04927" lon="7.18903">
        <ele>1741.852</ele>
        <time>2009-05-31T05:53:08Z</time>
      </trkpt>
      <trkpt lat="44.04929" lon="7.1889">
        <ele>1743.013</ele>
        <time>2009-05-31T05:53:17Z</time>
      </trkpt>
      <trkpt lat="44.04933" lon="7.18874">
        <ele>1742.755</ele>
        <time>2009-05-31T05:53:28Z</time>
      </trkpt>
      <trkpt lat="44.04932" lon="7.18871">
        <ele>1742.164</ele>
        <time>2009-05-31T05:53:30Z</time>
      </trkpt>
      <trkpt lat="44.04926" lon="7.18869">
        <ele>1740.272</ele>
        <time>2009-05-31T05:53:36Z</time>
      </trkpt>
      <trkpt lat="44.04919" lon="7.18873">
        <ele>1739.745</ele>
        <time>2009-05-31T05:53:44Z</time>
      </trkpt>
      <trkpt lat="44.04913" lon="7.18877">
        <ele>1738.818</ele>
        <time>2009-05-31T05:53:50Z</time>
      </trkpt>
      <trkpt lat="44.04909" lon="7.18886">
        <ele>1740.312</ele>
        <time>2009-05-31T05:53:58Z</time>
      </trkpt>
      <trkpt lat="44.0491" lon="7.18896">
        <ele>1740.664</ele>
        <time>2009-05-31T05:54:05Z</time>
      </trkpt>
      <trkpt lat="44.04908" lon="7.18901">
        <ele>1742.416</ele>
        <time>2009-05-31T05:54:12Z</time>
      </trkpt>
      <trkpt lat="44.04904" lon="7.18911">
        <ele>1744.612</ele>
        <time>2009-05-31T05:54:21Z</time>
      </trkpt>
      <trkpt lat="44.04901" lon="7.18915">
        <ele>1745.397</ele>
        <time>2009-05-31T05:54:26Z</time>
      </trkpt>
      <trkpt lat="44.04899" lon="7.18921">
        <ele>1746.769</ele>
        <time>2009-05-31T05:54:31Z</time>
      </trkpt>
      <trkpt lat="44.04893" lon="7.18928">
        <ele>1748.907</ele>
        <time>2009-05-31T05:54:38Z</time>
      </trkpt>
      <trkpt lat="44.04889" lon="7.18937">
        <ele>1750.116</ele>
        <time>2009-05-31T05:54:45Z</time>
      </trkpt>
      <trkpt lat="44.04885" lon="7.18946">
        <ele>1751.246</ele>
        <time>2009-05-31T05:54:54Z</time>
      </trkpt>
      <trkpt lat="44.04879" lon="7.18954">
        <ele>1751.646</ele>
        <time>2009-05-31T05:55:02Z</time>
      </trkpt>
      <trkpt lat="44.04876" lon="7.18966">
        <ele>1753.711</ele>
        <time>2009-05-31T05:55:09Z</time>
      </trkpt>
      <trkpt lat="44.04878" lon="7.18977">
        <ele>1753.989</ele>
        <time>2009-05-31T05:55:17Z</time>
      </trkpt>
      <trkpt lat="44.04875" lon="7.18988">
        <ele>1753.946</ele>
        <time>2009-05-31T05:55:25Z</time>
      </trkpt>
      <trkpt lat="44.04873" lon="7.18994">
        <ele>1754.939</ele>
        <time>2009-05-31T05:55:29Z</time>
      </trkpt>
      <trkpt lat="44.0487" lon="7.19008">
        <ele>1755.574</ele>
        <time>2009-05-31T05:55:39Z</time>
      </trkpt>
      <trkpt lat="44.0487" lon="7.19009">
        <ele>1755.836</ele>
        <time>2009-05-31T05:55:40Z</time>
      </trkpt>
      <trkpt lat="44.04868" lon="7.19013">
        <ele>1756.819</ele>
        <time>2009-05-31T05:55:44Z</time>
      </trkpt>
      <trkpt lat="44.04866" lon="7.19021">
        <ele>1757.594</ele>
        <time>2009-05-31T05:55:50Z</time>
      </trkpt>
      <trkpt lat="44.04865" lon="7.1903">
        <ele>1758.934</ele>
        <time>2009-05-31T05:55:56Z</time>
      </trkpt>
      <trkpt lat="44.04862" lon="7.19037">
        <ele>1760.074</ele>
        <time>2009-05-31T05:56:05Z</time>
      </trkpt>
      <trkpt lat="44.04863" lon="7.19047">
        <ele>1760.587</ele>
        <time>2009-05-31T05:56:14Z</time>
      </trkpt>
      <trkpt lat="44.04862" lon="7.19057">
        <ele>1762.167</ele>
        <time>2009-05-31T05:56:24Z</time>
      </trkpt>
      <trkpt lat="44.04862" lon="7.19063">
        <ele>1762.771</ele>
        <time>2009-05-31T05:56:33Z</time>
      </trkpt>
      <trkpt lat="44.04859" lon="7.19068">
        <ele>1763.092</ele>
        <time>2009-05-31T05:56:42Z</time>
      </trkpt>
      <trkpt lat="44.0486" lon="7.19077">
        <ele>1764.009</ele>
        <time>2009-05-31T05:56:49Z</time>
      </trkpt>
      <trkpt lat="44.04861" lon="7.19084">
        <ele>1765.329</ele>
        <time>2009-05-31T05:56:58Z</time>
      </trkpt>
      <trkpt lat="44.04858" lon="7.19097">
        <ele>1767.276</ele>
        <time>2009-05-31T05:57:14Z</time>
      </trkpt>
      <trkpt lat="44.04853" lon="7.19114">
        <ele>1769.534</ele>
        <time>2009-05-31T05:57:29Z</time>
      </trkpt>
      <trkpt lat="44.04848" lon="7.1912">
        <ele>1773.27</ele>
        <time>2009-05-31T05:57:47Z</time>
      </trkpt>
      <trkpt lat="44.04843" lon="7.1913">
        <ele>1775.547</ele>
        <time>2009-05-31T05:57:59Z</time>
      </trkpt>
      <trkpt lat="44.04845" lon="7.19139">
        <ele>1778.36</ele>
        <time>2009-05-31T05:58:10Z</time>
      </trkpt>
      <trkpt lat="44.04846" lon="7.19144">
        <ele>1781.383</ele>
        <time>2009-05-31T05:58:21Z</time>
      </trkpt>
      <trkpt lat="44.04846" lon="7.1915">
        <ele>1781.778</ele>
        <time>2009-05-31T05:58:29Z</time>
      </trkpt>
      <trkpt lat="44.04844" lon="7.19159">
        <ele>1783.074</ele>
        <time>2009-05-31T05:58:40Z</time>
      </trkpt>
      <trkpt lat="44.04843" lon="7.19168">
        <ele>1784.398</ele>
        <time>2009-05-31T05:58:50Z</time>
      </trkpt>
      <trkpt lat="44.0484" lon="7.19179">
        <ele>1785.816</ele>
        <time>2009-05-31T05:59:00Z</time>
      </trkpt>
      <trkpt lat="44.0484" lon="7.19192">
        <ele>1787.534</ele>
        <time>2009-05-31T05:59:11Z</time>
      </trkpt>
      <trkpt lat="44.0484" lon="7.19205">
        <ele>1788.23</ele>
        <time>2009-05-31T05:59:21Z</time>
      </trkpt>
      <trkpt lat="44.0484" lon="7.19213">
        <ele>1790.121</ele>
        <time>2009-05-31T05:59:31Z</time>
      </trkpt>
      <trkpt lat="44.04841" lon="7.19221">
        <ele>1791.805</ele>
        <time>2009-05-31T05:59:43Z</time>
      </trkpt>
      <trkpt lat="44.0484" lon="7.19228">
        <ele>1792.475</ele>
        <time>2009-05-31T05:59:51Z</time>
      </trkpt>
      <trkpt lat="44.04838" lon="7.19236">
        <ele>1792.344</ele>
        <time>2009-05-31T05:59:58Z</time>
      </trkpt>
      <trkpt lat="44.04835" lon="7.19241">
        <ele>1792.887</ele>
        <time>2009-05-31T06:00:05Z</time>
      </trkpt>
      <trkpt lat="44.04831" lon="7.19254">
        <ele>1793.793</ele>
        <time>2009-05-31T06:00:13Z</time>
      </trkpt>
      <trkpt lat="44.04829" lon="7.19266">
        <ele>1796.029</ele>
        <time>2009-05-31T06:00:20Z</time>
      </trkpt>
      <trkpt lat="44.04827" lon="7.19273">
        <ele>1798.93</ele>
        <time>2009-05-31T06:00:28Z</time>
      </trkpt>
      <trkpt lat="44.04825" lon="7.19285">
        <ele>1801.01</ele>
        <time>2009-05-31T06:00:37Z</time>
      </trkpt>
      <trkpt lat="44.04826" lon="7.19293">
        <ele>1802.076</ele>
        <time>2009-05-31T06:00:44Z</time>
      </trkpt>
      <trkpt lat="44.04827" lon="7.19306">
        <ele>1803.413</ele>
        <time>2009-05-31T06:00:53Z</time>
      </trkpt>
      <trkpt lat="44.0483" lon="7.19315">
        <ele>1803.958</ele>
        <time>2009-05-31T06:01:00Z</time>
      </trkpt>
      <trkpt lat="44.04832" lon="7.19319">
        <ele>1804.122</ele>
        <time>2009-05-31T06:01:03Z</time>
      </trkpt>
      <trkpt lat="44.04836" lon="7.19331">
        <ele>1804.092</ele>
        <time>2009-05-31T06:01:12Z</time>
      </trkpt>
      <trkpt lat="44.04837" lon="7.19336">
        <ele>1803.947</ele>
        <time>2009-05-31T06:01:15Z</time>
      </trkpt>
      <trkpt lat="44.04838" lon="7.19349">
        <ele>1804.225</ele>
        <time>2009-05-31T06:01:24Z</time>
      </trkpt>
      <trkpt lat="44.04839" lon="7.19361">
        <ele>1805.962</ele>
        <time>2009-05-31T06:01:33Z</time>
      </trkpt>
      <trkpt lat="44.04838" lon="7.19362">
        <ele>1805.913</ele>
        <time>2009-05-31T06:01:34Z</time>
      </trkpt>
      <trkpt lat="44.0484" lon="7.19369">
        <ele>1806.946</ele>
        <time>2009-05-31T06:01:41Z</time>
      </trkpt>
      <trkpt lat="44.0484" lon="7.1938">
        <ele>1808.004</ele>
        <time>2009-05-31T06:01:48Z</time>
      </trkpt>
      <trkpt lat="44.04841" lon="7.19387">
        <ele>1807.361</ele>
        <time>2009-05-31T06:01:54Z</time>
      </trkpt>
      <trkpt lat="44.04843" lon="7.19398">
        <ele>1808.458</ele>
        <time>2009-05-31T06:02:03Z</time>
      </trkpt>
      <trkpt lat="44.04843" lon="7.19403">
        <ele>1808.068</ele>
        <time>2009-05-31T06:02:07Z</time>
      </trkpt>
      <trkpt lat="44.04847" lon="7.19411">
        <ele>1809.673</ele>
        <time>2009-05-31T06:02:16Z</time>
      </trkpt>
      <trkpt lat="44.04848" lon="7.19422">
        <ele>1810.338</ele>
        <time>2009-05-31T06:02:26Z</time>
      </trkpt>
      <trkpt lat="44.04848" lon="7.19424">
        <ele>1810.435</ele>
        <time>2009-05-31T06:02:27Z</time>
      </trkpt>
      <trkpt lat="44.04849" lon="7.19431">
        <ele>1812.013</ele>
        <time>2009-05-31T06:02:34Z</time>
      </trkpt>
      <trkpt lat="44.04853" lon="7.1944">
        <ele>1812.846</ele>
        <time>2009-05-31T06:02:42Z</time>
      </trkpt>
      <trkpt lat="44.04854" lon="7.19447">
        <ele>1813.129</ele>
        <time>2009-05-31T06:02:51Z</time>
      </trkpt>
      <trkpt lat="44.04857" lon="7.19452">
        <ele>1813.415</ele>
        <time>2009-05-31T06:02:59Z</time>
      </trkpt>
      <trkpt lat="44.04857" lon="7.19455">
        <ele>1813.771</ele>
        <time>2009-05-31T06:03:08Z</time>
      </trkpt>
      <trkpt lat="44.04858" lon="7.19467">
        <ele>1814.51</ele>
        <time>2009-05-31T06:03:19Z</time>
      </trkpt>
      <trkpt lat="44.04858" lon="7.19481">
        <ele>1816.154</ele>
        <time>2009-05-31T06:03:31Z</time>
      </trkpt>
      <trkpt lat="44.04858" lon="7.19489">
        <ele>1817.602</ele>
        <time>2009-05-31T06:03:41Z</time>
      </trkpt>
      <trkpt lat="44.04856" lon="7.19495">
        <ele>1817.907</ele>
        <time>2009-05-31T06:03:47Z</time>
      </trkpt>
      <trkpt lat="44.04855" lon="7.19505">
        <ele>1818.534</ele>
        <time>2009-05-31T06:03:53Z</time>
      </trkpt>
      <trkpt lat="44.04851" lon="7.19514">
        <ele>1819.811</ele>
        <time>2009-05-31T06:04:00Z</time>
      </trkpt>
      <trkpt lat="44.04851" lon="7.19515">
        <ele>1819.952</ele>
        <time>2009-05-31T06:04:13Z</time>
      </trkpt>
      <trkpt lat="44.04849" lon="7.19531">
        <ele>1821.998</ele>
        <time>2009-05-31T06:04:23Z</time>
      </trkpt>
      <trkpt lat="44.04847" lon="7.19541">
        <ele>1823.037</ele>
        <time>2009-05-31T06:04:30Z</time>
      </trkpt>
      <trkpt lat="44.04848" lon="7.19549">
        <ele>1822.778</ele>
        <time>2009-05-31T06:04:39Z</time>
      </trkpt>
      <trkpt lat="44.04848" lon="7.1955">
        <ele>1822.684</ele>
        <time>2009-05-31T06:04:40Z</time>
      </trkpt>
      <trkpt lat="44.04848" lon="7.19562">
        <ele>1823.8</ele>
        <time>2009-05-31T06:04:51Z</time>
      </trkpt>
      <trkpt lat="44.04848" lon="7.1957">
        <ele>1825.428</ele>
        <time>2009-05-31T06:04:59Z</time>
      </trkpt>
      <trkpt lat="44.04849" lon="7.19579">
        <ele>1826.049</ele>
        <time>2009-05-31T06:05:07Z</time>
      </trkpt>
      <trkpt lat="44.04849" lon="7.19579">
        <ele>1826.219</ele>
        <time>2009-05-31T06:05:12Z</time>
      </trkpt>
      <trkpt lat="44.04848" lon="7.19588">
        <ele>1826.671</ele>
        <time>2009-05-31T06:05:17Z</time>
      </trkpt>
      <trkpt lat="44.04849" lon="7.19609">
        <ele>1828.33</ele>
        <time>2009-05-31T06:05:26Z</time>
      </trkpt>
      <trkpt lat="44.04849" lon="7.19626">
        <ele>1828.849</ele>
        <time>2009-05-31T06:05:34Z</time>
      </trkpt>
      <trkpt lat="44.04846" lon="7.1964">
        <ele>1829.007</ele>
        <time>2009-05-31T06:05:41Z</time>
      </trkpt>
      <trkpt lat="44.04842" lon="7.19652">
        <ele>1830.191</ele>
        <time>2009-05-31T06:05:49Z</time>
      </trkpt>
      <trkpt lat="44.04839" lon="7.19664">
        <ele>1831.146</ele>
        <time>2009-05-31T06:05:57Z</time>
      </trkpt>
      <trkpt lat="44.04835" lon="7.19677">
        <ele>1833.371</ele>
        <time>2009-05-31T06:06:05Z</time>
      </trkpt>
      <trkpt lat="44.04831" lon="7.1969">
        <ele>1834.99</ele>
        <time>2009-05-31T06:06:13Z</time>
      </trkpt>
      <trkpt lat="44.04826" lon="7.19699">
        <ele>1836.362</ele>
        <time>2009-05-31T06:06:20Z</time>
      </trkpt>
      <trkpt lat="44.04821" lon="7.1971">
        <ele>1837.695</ele>
        <time>2009-05-31T06:06:27Z</time>
      </trkpt>
      <trkpt lat="44.0482" lon="7.1971">
        <ele>1838.074</ele>
        <time>2009-05-31T06:06:28Z</time>
      </trkpt>
      <trkpt lat="44.04815" lon="7.1972">
        <ele>1838.003</ele>
        <time>2009-05-31T06:06:36Z</time>
      </trkpt>
      <trkpt lat="44.04813" lon="7.19725">
        <ele>1839.016</ele>
        <time>2009-05-31T06:06:43Z</time>
      </trkpt>
      <trkpt lat="44.04811" lon="7.19732">
        <ele>1839.776</ele>
        <time>2009-05-31T06:06:50Z</time>
      </trkpt>
      <trkpt lat="44.04807" lon="7.19743">
        <ele>1840.986</ele>
        <time>2009-05-31T06:06:59Z</time>
      </trkpt>
      <trkpt lat="44.04805" lon="7.19751">
        <ele>1842.181</ele>
        <time>2009-05-31T06:07:07Z</time>
      </trkpt>
      <trkpt lat="44.04804" lon="7.1976">
        <ele>1843.648</ele>
        <time>2009-05-31T06:07:15Z</time>
      </trkpt>
      <trkpt lat="44.04801" lon="7.19766">
        <ele>1845.659</ele>
        <time>2009-05-31T06:07:22Z</time>
      </trkpt>
      <trkpt lat="44.04794" lon="7.19772">
        <ele>1846.245</ele>
        <time>2009-05-31T06:07:32Z</time>
      </trkpt>
      <trkpt lat="44.04788" lon="7.19776">
        <ele>1848.549</ele>
        <time>2009-05-31T06:07:43Z</time>
      </trkpt>
      <trkpt lat="44.04783" lon="7.19788">
        <ele>1849.452</ele>
        <time>2009-05-31T06:07:55Z</time>
      </trkpt>
      <trkpt lat="44.04778" lon="7.19793">
        <ele>1851.16</ele>
        <time>2009-05-31T06:08:06Z</time>
      </trkpt>
      <trkpt lat="44.04776" lon="7.19798">
        <ele>1852.51</ele>
        <time>2009-05-31T06:08:19Z</time>
      </trkpt>
      <trkpt lat="44.04776" lon="7.19799">
        <ele>1853.923</ele>
        <time>2009-05-31T06:08:32Z</time>
      </trkpt>
      <trkpt lat="44.04768" lon="7.19808">
        <ele>1856.486</ele>
        <time>2009-05-31T06:08:49Z</time>
      </trkpt>
      <trkpt lat="44.04758" lon="7.19812">
        <ele>1859.546</ele>
        <time>2009-05-31T06:09:05Z</time>
      </trkpt>
      <trkpt lat="44.04749" lon="7.19819">
        <ele>1860.719</ele>
        <time>2009-05-31T06:09:16Z</time>
      </trkpt>
      <trkpt lat="44.04737" lon="7.19824">
        <ele>1863.099</ele>
        <time>2009-05-31T06:09:30Z</time>
      </trkpt>
      <trkpt lat="44.04732" lon="7.19829">
        <ele>1862.736</ele>
        <time>2009-05-31T06:09:41Z</time>
      </trkpt>
      <trkpt lat="44.04727" lon="7.19835">
        <ele>1863.758</ele>
        <time>2009-05-31T06:09:52Z</time>
      </trkpt>
      <trkpt lat="44.04722" lon="7.19844">
        <ele>1865.003</ele>
        <time>2009-05-31T06:10:02Z</time>
      </trkpt>
      <trkpt lat="44.04721" lon="7.19848">
        <ele>1865.796</ele>
        <time>2009-05-31T06:10:09Z</time>
      </trkpt>
      <trkpt lat="44.04719" lon="7.19857">
        <ele>1868.163</ele>
        <time>2009-05-31T06:10:22Z</time>
      </trkpt>
      <trkpt lat="44.04715" lon="7.19865">
        <ele>1869.201</ele>
        <time>2009-05-31T06:10:32Z</time>
      </trkpt>
      <trkpt lat="44.0471" lon="7.19874">
        <ele>1870.654</ele>
        <time>2009-05-31T06:10:40Z</time>
      </trkpt>
      <trkpt lat="44.04707" lon="7.19883">
        <ele>1871.354</ele>
        <time>2009-05-31T06:10:48Z</time>
      </trkpt>
      <trkpt lat="44.04705" lon="7.1989">
        <ele>1872.236</ele>
        <time>2009-05-31T06:10:55Z</time>
      </trkpt>
      <trkpt lat="44.04701" lon="7.19895">
        <ele>1872.332</ele>
        <time>2009-05-31T06:10:59Z</time>
      </trkpt>
      <trkpt lat="44.04697" lon="7.19902">
        <ele>1872.951</ele>
        <time>2009-05-31T06:11:07Z</time>
      </trkpt>
      <trkpt lat="44.04693" lon="7.19911">
        <ele>1873.595</ele>
        <time>2009-05-31T06:11:14Z</time>
      </trkpt>
      <trkpt lat="44.04691" lon="7.1992">
        <ele>1874.36</ele>
        <time>2009-05-31T06:11:22Z</time>
      </trkpt>
      <trkpt lat="44.04688" lon="7.19929">
        <ele>1875.864</ele>
        <time>2009-05-31T06:11:31Z</time>
      </trkpt>
      <trkpt lat="44.04686" lon="7.19938">
        <ele>1875.997</ele>
        <time>2009-05-31T06:11:39Z</time>
      </trkpt>
      <trkpt lat="44.04683" lon="7.19949">
        <ele>1876.781</ele>
        <time>2009-05-31T06:11:48Z</time>
      </trkpt>
      <trkpt lat="44.04678" lon="7.1996">
        <ele>1878.757</ele>
        <time>2009-05-31T06:11:58Z</time>
      </trkpt>
      <trkpt lat="44.04675" lon="7.1997">
        <ele>1877.232</ele>
        <time>2009-05-31T06:12:05Z</time>
      </trkpt>
      <trkpt lat="44.04672" lon="7.1998">
        <ele>1876.945</ele>
        <time>2009-05-31T06:12:13Z</time>
      </trkpt>
      <trkpt lat="44.04671" lon="7.19985">
        <ele>1877.89</ele>
        <time>2009-05-31T06:12:17Z</time>
      </trkpt>
      <trkpt lat="44.04669" lon="7.19997">
        <ele>1878.726</ele>
        <time>2009-05-31T06:12:26Z</time>
      </trkpt>
      <trkpt lat="44.04666" lon="7.20004">
        <ele>1879.523</ele>
        <time>2009-05-31T06:12:32Z</time>
      </trkpt>
      <trkpt lat="44.04664" lon="7.20012">
        <ele>1879.791</ele>
        <time>2009-05-31T06:12:39Z</time>
      </trkpt>
      <trkpt lat="44.04664" lon="7.20021">
        <ele>1879.822</ele>
        <time>2009-05-31T06:12:47Z</time>
      </trkpt>
      <trkpt lat="44.04663" lon="7.20033">
        <ele>1879.892</ele>
        <time>2009-05-31T06:12:56Z</time>
      </trkpt>
      <trkpt lat="44.04662" lon="7.20048">
        <ele>1881.358</ele>
        <time>2009-05-31T06:13:04Z</time>
      </trkpt>
      <trkpt lat="44.04659" lon="7.20063">
        <ele>1882.194</ele>
        <time>2009-05-31T06:13:12Z</time>
      </trkpt>
      <trkpt lat="44.04655" lon="7.2008">
        <ele>1882.754</ele>
        <time>2009-05-31T06:13:20Z</time>
      </trkpt>
      <trkpt lat="44.04653" lon="7.20094">
        <ele>1882.783</ele>
        <time>2009-05-31T06:13:27Z</time>
      </trkpt>
      <trkpt lat="44.0465" lon="7.20109">
        <ele>1882.734</ele>
        <time>2009-05-31T06:13:34Z</time>
      </trkpt>
      <trkpt lat="44.04642" lon="7.20123">
        <ele>1883.936</ele>
        <time>2009-05-31T06:13:43Z</time>
      </trkpt>
      <trkpt lat="44.04637" lon="7.20128">
        <ele>1884.562</ele>
        <time>2009-05-31T06:13:47Z</time>
      </trkpt>
      <trkpt lat="44.0463" lon="7.20142">
        <ele>1884.874</ele>
        <time>2009-05-31T06:13:56Z</time>
      </trkpt>
      <trkpt lat="44.04622" lon="7.20153">
        <ele>1885.449</ele>
        <time>2009-05-31T06:14:04Z</time>
      </trkpt>
      <trkpt lat="44.04615" lon="7.20164">
        <ele>1886.559</ele>
        <time>2009-05-31T06:14:12Z</time>
      </trkpt>
      <trkpt lat="44.04612" lon="7.20166">
        <ele>1887.3</ele>
        <time>2009-05-31T06:14:18Z</time>
      </trkpt>
      <trkpt lat="44.0461" lon="7.20169">
        <ele>1887.271</ele>
        <time>2009-05-31T06:14:22Z</time>
      </trkpt>
      <trkpt lat="44.04605" lon="7.20176">
        <ele>1887.713</ele>
        <time>2009-05-31T06:14:31Z</time>
      </trkpt>
      <trkpt lat="44.046" lon="7.20184">
        <ele>1888.855</ele>
        <time>2009-05-31T06:14:42Z</time>
      </trkpt>
      <trkpt lat="44.04597" lon="7.20189">
        <ele>1888.732</ele>
        <time>2009-05-31T06:14:50Z</time>
      </trkpt>
      <trkpt lat="44.04595" lon="7.20196">
        <ele>1888.849</ele>
        <time>2009-05-31T06:15:00Z</time>
      </trkpt>
      <trkpt lat="44.04591" lon="7.20204">
        <ele>1888.376</ele>
        <time>2009-05-31T06:15:08Z</time>
      </trkpt>
      <trkpt lat="44.04586" lon="7.20209">
        <ele>1887.337</ele>
        <time>2009-05-31T06:15:16Z</time>
      </trkpt>
      <trkpt lat="44.04578" lon="7.20213">
        <ele>1888.103</ele>
        <time>2009-05-31T06:15:25Z</time>
      </trkpt>
      <trkpt lat="44.04559" lon="7.20224">
        <ele>1887.463</ele>
        <time>2009-05-31T06:15:31Z</time>
      </trkpt>
      <trkpt lat="44.04536" lon="7.20236">
        <ele>1889.485</ele>
        <time>2009-05-31T06:15:38Z</time>
      </trkpt>
      <trkpt lat="44.04522" lon="7.20248">
        <ele>1889.386</ele>
        <time>2009-05-31T06:15:42Z</time>
      </trkpt>
      <trkpt lat="44.04491" lon="7.20288">
        <ele>1889.461</ele>
        <time>2009-05-31T06:15:53Z</time>
      </trkpt>
      <trkpt lat="44.04488" lon="7.20293">
        <ele>1889.354</ele>
        <time>2009-05-31T06:15:54Z</time>
      </trkpt>
      <trkpt lat="44.0448" lon="7.20319">
        <ele>1890.068</ele>
        <time>2009-05-31T06:16:00Z</time>
      </trkpt>
      <trkpt lat="44.04479" lon="7.20323">
        <ele>1891.474</ele>
        <time>2009-05-31T06:16:06Z</time>
      </trkpt>
      <trkpt lat="44.04477" lon="7.20326">
        <ele>1892.475</ele>
        <time>2009-05-31T06:16:11Z</time>
      </trkpt>
      <trkpt lat="44.04468" lon="7.20336">
        <ele>1892.949</ele>
        <time>2009-05-31T06:16:18Z</time>
      </trkpt>
      <trkpt lat="44.04456" lon="7.20351">
        <ele>1894.097</ele>
        <time>2009-05-31T06:16:25Z</time>
      </trkpt>
      <trkpt lat="44.04445" lon="7.20364">
        <ele>1895.51</ele>
        <time>2009-05-31T06:16:34Z</time>
      </trkpt>
      <trkpt lat="44.0444" lon="7.20369">
        <ele>1895.249</ele>
        <time>2009-05-31T06:16:38Z</time>
      </trkpt>
      <trkpt lat="44.04434" lon="7.20374">
        <ele>1896.671</ele>
        <time>2009-05-31T06:16:43Z</time>
      </trkpt>
      <trkpt lat="44.04429" lon="7.2038">
        <ele>1895.3</ele>
        <time>2009-05-31T06:16:48Z</time>
      </trkpt>
      <trkpt lat="44.04419" lon="7.2039">
        <ele>1895.578</ele>
        <time>2009-05-31T06:16:57Z</time>
      </trkpt>
      <trkpt lat="44.04409" lon="7.20399">
        <ele>1896.007</ele>
        <time>2009-05-31T06:17:04Z</time>
      </trkpt>
      <trkpt lat="44.04391" lon="7.20412">
        <ele>1895.528</ele>
        <time>2009-05-31T06:17:11Z</time>
      </trkpt>
      <trkpt lat="44.04376" lon="7.2042">
        <ele>1895.328</ele>
        <time>2009-05-31T06:17:19Z</time>
      </trkpt>
      <trkpt lat="44.0436" lon="7.2043">
        <ele>1898.643</ele>
        <time>2009-05-31T06:17:28Z</time>
      </trkpt>
      <trkpt lat="44.0435" lon="7.20438">
        <ele>1901.202</ele>
        <time>2009-05-31T06:17:35Z</time>
      </trkpt>
      <trkpt lat="44.04341" lon="7.2044">
        <ele>1903.266</ele>
        <time>2009-05-31T06:17:40Z</time>
      </trkpt>
      <trkpt lat="44.04331" lon="7.20445">
        <ele>1905.151</ele>
        <time>2009-05-31T06:17:47Z</time>
      </trkpt>
      <trkpt lat="44.04323" lon="7.20448">
        <ele>1906.836</ele>
        <time>2009-05-31T06:17:54Z</time>
      </trkpt>
      <trkpt lat="44.04319" lon="7.20449">
        <ele>1906.824</ele>
        <time>2009-05-31T06:17:56Z</time>
      </trkpt>
      <trkpt lat="44.04313" lon="7.20452">
        <ele>1907.13</ele>
        <time>2009-05-31T06:18:02Z</time>
      </trkpt>
      <trkpt lat="44.04301" lon="7.20461">
        <ele>1909.048</ele>
        <time>2009-05-31T06:18:12Z</time>
      </trkpt>
      <trkpt lat="44.04293" lon="7.20468">
        <ele>1908.466</ele>
        <time>2009-05-31T06:18:20Z</time>
      </trkpt>
      <trkpt lat="44.04284" lon="7.20476">
        <ele>1909.369</ele>
        <time>2009-05-31T06:18:29Z</time>
      </trkpt>
      <trkpt lat="44.04281" lon="7.20479">
        <ele>1910.766</ele>
        <time>2009-05-31T06:18:32Z</time>
      </trkpt>
      <trkpt lat="44.04276" lon="7.20479">
        <ele>1911.907</ele>
        <time>2009-05-31T06:18:39Z</time>
      </trkpt>
      <trkpt lat="44.04269" lon="7.20481">
        <ele>1913.183</ele>
        <time>2009-05-31T06:18:49Z</time>
      </trkpt>
      <trkpt lat="44.04269" lon="7.20481">
        <ele>1913.231</ele>
        <time>2009-05-31T06:18:52Z</time>
      </trkpt>
      <trkpt lat="44.04262" lon="7.20481">
        <ele>1913.822</ele>
        <time>2009-05-31T06:18:58Z</time>
      </trkpt>
      <trkpt lat="44.04251" lon="7.2048">
        <ele>1915.319</ele>
        <time>2009-05-31T06:19:06Z</time>
      </trkpt>
      <trkpt lat="44.04239" lon="7.20478">
        <ele>1917.4</ele>
        <time>2009-05-31T06:19:15Z</time>
      </trkpt>
      <trkpt lat="44.04237" lon="7.20478">
        <ele>1917.636</ele>
        <time>2009-05-31T06:19:16Z</time>
      </trkpt>
      <trkpt lat="44.04226" lon="7.20474">
        <ele>1920.042</ele>
        <time>2009-05-31T06:19:24Z</time>
      </trkpt>
      <trkpt lat="44.04219" lon="7.2047">
        <ele>1921.393</ele>
        <time>2009-05-31T06:19:29Z</time>
      </trkpt>
      <trkpt lat="44.04218" lon="7.2047">
        <ele>1921.665</ele>
        <time>2009-05-31T06:19:30Z</time>
      </trkpt>
      <trkpt lat="44.04202" lon="7.20468">
        <ele>1923.233</ele>
        <time>2009-05-31T06:19:38Z</time>
      </trkpt>
      <trkpt lat="44.04198" lon="7.20468">
        <ele>1923.299</ele>
        <time>2009-05-31T06:19:40Z</time>
      </trkpt>
      <trkpt lat="44.04182" lon="7.20471">
        <ele>1923.598</ele>
        <time>2009-05-31T06:19:49Z</time>
      </trkpt>
      <trkpt lat="44.04174" lon="7.20475">
        <ele>1923.865</ele>
        <time>2009-05-31T06:19:56Z</time>
      </trkpt>
      <trkpt lat="44.04164" lon="7.20479">
        <ele>1923.776</ele>
        <time>2009-05-31T06:20:03Z</time>
      </trkpt>
      <trkpt lat="44.04161" lon="7.20479">
        <ele>1924.514</ele>
        <time>2009-05-31T06:20:05Z</time>
      </trkpt>
      <trkpt lat="44.04157" lon="7.20483">
        <ele>1924.954</ele>
        <time>2009-05-31T06:20:09Z</time>
      </trkpt>
      <trkpt lat="44.04147" lon="7.20486">
        <ele>1926.891</ele>
        <time>2009-05-31T06:20:17Z</time>
      </trkpt>
      <trkpt lat="44.04143" lon="7.20486">
        <ele>1926.784</ele>
        <time>2009-05-31T06:20:20Z</time>
      </trkpt>
      <trkpt lat="44.04136" lon="7.20483">
        <ele>1928.183</ele>
        <time>2009-05-31T06:20:25Z</time>
      </trkpt>
      <trkpt lat="44.04126" lon="7.20479">
        <ele>1930.232</ele>
        <time>2009-05-31T06:20:33Z</time>
      </trkpt>
      <trkpt lat="44.0412" lon="7.20477">
        <ele>1931.515</ele>
        <time>2009-05-31T06:20:37Z</time>
      </trkpt>
      <trkpt lat="44.0411" lon="7.20477">
        <ele>1934.103</ele>
        <time>2009-05-31T06:20:45Z</time>
      </trkpt>
      <trkpt lat="44.04095" lon="7.20479">
        <ele>1936.764</ele>
        <time>2009-05-31T06:20:55Z</time>
      </trkpt>
      <trkpt lat="44.04086" lon="7.20481">
        <ele>1937.066</ele>
        <time>2009-05-31T06:21:02Z</time>
      </trkpt>
      <trkpt lat="44.04078" lon="7.20475">
        <ele>1937.959</ele>
        <time>2009-05-31T06:21:08Z</time>
      </trkpt>
      <trkpt lat="44.04069" lon="7.20465">
        <ele>1939.957</ele>
        <time>2009-05-31T06:21:16Z</time>
      </trkpt>
      <trkpt lat="44.04065" lon="7.2046">
        <ele>1941.638</ele>
        <time>2009-05-31T06:21:23Z</time>
      </trkpt>
      <trkpt lat="44.04058" lon="7.20454">
        <ele>1944.284</ele>
        <time>2009-05-31T06:21:34Z</time>
      </trkpt>
      <trkpt lat="44.04057" lon="7.20451">
        <ele>1947.136</ele>
        <time>2009-05-31T06:21:43Z</time>
      </trkpt>
      <trkpt lat="44.04049" lon="7.2045">
        <ele>1949.165</ele>
        <time>2009-05-31T06:22:04Z</time>
      </trkpt>
      <trkpt lat="44.04041" lon="7.20453">
        <ele>1950.143</ele>
        <time>2009-05-31T06:22:15Z</time>
      </trkpt>
      <trkpt lat="44.04036" lon="7.20447">
        <ele>1950.966</ele>
        <time>2009-05-31T06:22:24Z</time>
      </trkpt>
      <trkpt lat="44.04033" lon="7.20444">
        <ele>1952.295</ele>
        <time>2009-05-31T06:22:35Z</time>
      </trkpt>
      <trkpt lat="44.04026" lon="7.20443">
        <ele>1952.927</ele>
        <time>2009-05-31T06:22:48Z</time>
      </trkpt>
      <trkpt lat="44.04021" lon="7.20443">
        <ele>1953.445</ele>
        <time>2009-05-31T06:22:59Z</time>
      </trkpt>
      <trkpt lat="44.04015" lon="7.20439">
        <ele>1953.959</ele>
        <time>2009-05-31T06:23:12Z</time>
      </trkpt>
      <trkpt lat="44.04009" lon="7.20437">
        <ele>1954.352</ele>
        <time>2009-05-31T06:23:24Z</time>
      </trkpt>
      <trkpt lat="44.03998" lon="7.20442">
        <ele>1954.992</ele>
        <time>2009-05-31T06:23:35Z</time>
      </trkpt>
      <trkpt lat="44.03993" lon="7.20441">
        <ele>1955.509</ele>
        <time>2009-05-31T06:23:45Z</time>
      </trkpt>
      <trkpt lat="44.03989" lon="7.20437">
        <ele>1956.011</ele>
        <time>2009-05-31T06:23:53Z</time>
      </trkpt>
      <trkpt lat="44.03983" lon="7.2043">
        <ele>1956.652</ele>
        <time>2009-05-31T06:24:06Z</time>
      </trkpt>
      <trkpt lat="44.03976" lon="7.20429">
        <ele>1957.036</ele>
        <time>2009-05-31T06:24:16Z</time>
      </trkpt>
      <trkpt lat="44.03972" lon="7.20429">
        <ele>1957.278</ele>
        <time>2009-05-31T06:24:22Z</time>
      </trkpt>
      <trkpt lat="44.03967" lon="7.20427">
        <ele>1957.464</ele>
        <time>2009-05-31T06:24:30Z</time>
      </trkpt>
      <trkpt lat="44.03964" lon="7.20424">
        <ele>1957.765</ele>
        <time>2009-05-31T06:24:37Z</time>
      </trkpt>
      <trkpt lat="44.0396" lon="7.20421">
        <ele>1957.951</ele>
        <time>2009-05-31T06:24:44Z</time>
      </trkpt>
      <trkpt lat="44.03951" lon="7.20416">
        <ele>1958.376</ele>
        <time>2009-05-31T06:24:53Z</time>
      </trkpt>
      <trkpt lat="44.03945" lon="7.20414">
        <ele>1957.846</ele>
        <time>2009-05-31T06:25:03Z</time>
      </trkpt>
      <trkpt lat="44.03937" lon="7.20414">
        <ele>1957.814</ele>
        <time>2009-05-31T06:25:13Z</time>
      </trkpt>
      <trkpt lat="44.03938" lon="7.20417">
        <ele>1958.306</ele>
        <time>2009-05-31T06:25:21Z</time>
      </trkpt>
      <trkpt lat="44.03937" lon="7.20417">
        <ele>1959.338</ele>
        <time>2009-05-31T06:25:25Z</time>
      </trkpt>
      <trkpt lat="44.03934" lon="7.20423">
        <ele>1960.244</ele>
        <time>2009-05-31T06:25:29Z</time>
      </trkpt>
      <trkpt lat="44.03933" lon="7.20426">
        <ele>1960.579</ele>
        <time>2009-05-31T06:25:31Z</time>
      </trkpt>
      <trkpt lat="44.03928" lon="7.20445">
        <ele>1963.668</ele>
        <time>2009-05-31T06:25:41Z</time>
      </trkpt>
      <trkpt lat="44.03927" lon="7.20463">
        <ele>1965.318</ele>
        <time>2009-05-31T06:25:49Z</time>
      </trkpt>
      <trkpt lat="44.03925" lon="7.20486">
        <ele>1965.882</ele>
        <time>2009-05-31T06:25:56Z</time>
      </trkpt>
      <trkpt lat="44.03919" lon="7.20514">
        <ele>1963.793</ele>
        <time>2009-05-31T06:26:02Z</time>
      </trkpt>
      <trkpt lat="44.03899" lon="7.20552">
        <ele>1961.149</ele>
        <time>2009-05-31T06:26:09Z</time>
      </trkpt>
      <trkpt lat="44.03893" lon="7.20562">
        <ele>1960.571</ele>
        <time>2009-05-31T06:26:11Z</time>
      </trkpt>
      <trkpt lat="44.03878" lon="7.20589">
        <ele>1960.51</ele>
        <time>2009-05-31T06:26:17Z</time>
      </trkpt>
      <trkpt lat="44.03874" lon="7.20603">
        <ele>1962.548</ele>
        <time>2009-05-31T06:26:23Z</time>
      </trkpt>
      <trkpt lat="44.03868" lon="7.20615">
        <ele>1963.891</ele>
        <time>2009-05-31T06:26:30Z</time>
      </trkpt>
      <trkpt lat="44.03861" lon="7.20629">
        <ele>1965.616</ele>
        <time>2009-05-31T06:26:38Z</time>
      </trkpt>
      <trkpt lat="44.03856" lon="7.20643">
        <ele>1967.466</ele>
        <time>2009-05-31T06:26:45Z</time>
      </trkpt>
      <trkpt lat="44.03852" lon="7.20651">
        <ele>1969.467</ele>
        <time>2009-05-31T06:26:50Z</time>
      </trkpt>
      <trkpt lat="44.0385" lon="7.20659">
        <ele>1970.84</ele>
        <time>2009-05-31T06:26:59Z</time>
      </trkpt>
      <trkpt lat="44.03847" lon="7.20663">
        <ele>1971.094</ele>
        <time>2009-05-31T06:27:05Z</time>
      </trkpt>
      <trkpt lat="44.03845" lon="7.20667">
        <ele>1970.932</ele>
        <time>2009-05-31T06:27:12Z</time>
      </trkpt>
      <trkpt lat="44.03844" lon="7.20674">
        <ele>1971.327</ele>
        <time>2009-05-31T06:27:20Z</time>
      </trkpt>
      <trkpt lat="44.03838" lon="7.20686">
        <ele>1972.771</ele>
        <time>2009-05-31T06:27:30Z</time>
      </trkpt>
      <trkpt lat="44.03836" lon="7.20689">
        <ele>1973.068</ele>
        <time>2009-05-31T06:27:33Z</time>
      </trkpt>
      <trkpt lat="44.03833" lon="7.20701">
        <ele>1974.953</ele>
        <time>2009-05-31T06:27:42Z</time>
      </trkpt>
      <trkpt lat="44.0383" lon="7.20714">
        <ele>1973.757</ele>
        <time>2009-05-31T06:27:53Z</time>
      </trkpt>
      <trkpt lat="44.03829" lon="7.20724">
        <ele>1975.291</ele>
        <time>2009-05-31T06:28:01Z</time>
      </trkpt>
      <trkpt lat="44.03827" lon="7.20727">
        <ele>1977.905</ele>
        <time>2009-05-31T06:28:08Z</time>
      </trkpt>
      <trkpt lat="44.03827" lon="7.20728">
        <ele>1978.111</ele>
        <time>2009-05-31T06:28:09Z</time>
      </trkpt>
      <trkpt lat="44.03823" lon="7.20743">
        <ele>1979.133</ele>
        <time>2009-05-31T06:28:18Z</time>
      </trkpt>
      <trkpt lat="44.03821" lon="7.20751">
        <ele>1979.889</ele>
        <time>2009-05-31T06:28:22Z</time>
      </trkpt>
      <trkpt lat="44.03813" lon="7.20767">
        <ele>1981.632</ele>
        <time>2009-05-31T06:28:32Z</time>
      </trkpt>
      <trkpt lat="44.03805" lon="7.20785">
        <ele>1982.357</ele>
        <time>2009-05-31T06:28:42Z</time>
      </trkpt>
      <trkpt lat="44.03795" lon="7.20804">
        <ele>1982.182</ele>
        <time>2009-05-31T06:28:50Z</time>
      </trkpt>
      <trkpt lat="44.03783" lon="7.20822">
        <ele>1981.784</ele>
        <time>2009-05-31T06:28:58Z</time>
      </trkpt>
      <trkpt lat="44.03773" lon="7.20839">
        <ele>1981.972</ele>
        <time>2009-05-31T06:29:05Z</time>
      </trkpt>
      <trkpt lat="44.03766" lon="7.20854">
        <ele>1981.811</ele>
        <time>2009-05-31T06:29:13Z</time>
      </trkpt>
      <trkpt lat="44.03759" lon="7.20868">
        <ele>1983.353</ele>
        <time>2009-05-31T06:29:21Z</time>
      </trkpt>
      <trkpt lat="44.03758" lon="7.20869">
        <ele>1983.812</ele>
        <time>2009-05-31T06:29:22Z</time>
      </trkpt>
      <trkpt lat="44.03749" lon="7.20877">
        <ele>1986.307</ele>
        <time>2009-05-31T06:29:30Z</time>
      </trkpt>
      <trkpt lat="44.03739" lon="7.20888">
        <ele>1986.279</ele>
        <time>2009-05-31T06:29:39Z</time>
      </trkpt>
      <trkpt lat="44.03735" lon="7.2089">
        <ele>1987.104</ele>
        <time>2009-05-31T06:29:42Z</time>
      </trkpt>
      <trkpt lat="44.0372" lon="7.20889">
        <ele>1988.588</ele>
        <time>2009-05-31T06:29:52Z</time>
      </trkpt>
      <trkpt lat="44.03705" lon="7.20883">
        <ele>1989.81</ele>
        <time>2009-05-31T06:29:59Z</time>
      </trkpt>
      <trkpt lat="44.03688" lon="7.20889">
        <ele>1989.207</ele>
        <time>2009-05-31T06:30:06Z</time>
      </trkpt>
      <trkpt lat="44.03679" lon="7.20899">
        <ele>1987.49</ele>
        <time>2009-05-31T06:30:09Z</time>
      </trkpt>
      <trkpt lat="44.03649" lon="7.20905">
        <ele>1986.311</ele>
        <time>2009-05-31T06:30:15Z</time>
      </trkpt>
      <trkpt lat="44.03645" lon="7.20905">
        <ele>1985.946</ele>
        <time>2009-05-31T06:30:16Z</time>
      </trkpt>
      <trkpt lat="44.03629" lon="7.20913">
        <ele>1984.941</ele>
        <time>2009-05-31T06:30:20Z</time>
      </trkpt>
      <trkpt lat="44.0361" lon="7.20924">
        <ele>1983.755</ele>
        <time>2009-05-31T06:30:25Z</time>
      </trkpt>
      <trkpt lat="44.03605" lon="7.20937">
        <ele>1985.539</ele>
        <time>2009-05-31T06:30:29Z</time>
      </trkpt>
      <trkpt lat="44.03603" lon="7.20952">
        <ele>1986.082</ele>
        <time>2009-05-31T06:30:36Z</time>
      </trkpt>
      <trkpt lat="44.03602" lon="7.20959">
        <ele>1985.685</ele>
        <time>2009-05-31T06:30:42Z</time>
      </trkpt>
      <trkpt lat="44.03601" lon="7.20969">
        <ele>1987.487</ele>
        <time>2009-05-31T06:30:49Z</time>
      </trkpt>
      <trkpt lat="44.03593" lon="7.20979">
        <ele>1988.046</ele>
        <time>2009-05-31T06:30:57Z</time>
      </trkpt>
      <trkpt lat="44.03584" lon="7.20989">
        <ele>1987.932</ele>
        <time>2009-05-31T06:31:05Z</time>
      </trkpt>
      <trkpt lat="44.03575" lon="7.20998">
        <ele>1989.93</ele>
        <time>2009-05-31T06:31:13Z</time>
      </trkpt>
      <trkpt lat="44.03574" lon="7.20999">
        <ele>1990.729</ele>
        <time>2009-05-31T06:31:19Z</time>
      </trkpt>
      <trkpt lat="44.03556" lon="7.21008">
        <ele>1992.263</ele>
        <time>2009-05-31T06:31:48Z</time>
      </trkpt>
      <trkpt lat="44.03544" lon="7.21019">
        <ele>1991.402</ele>
        <time>2009-05-31T06:31:56Z</time>
      </trkpt>
      <trkpt lat="44.03532" lon="7.21024">
        <ele>1993.536</ele>
        <time>2009-05-31T06:32:04Z</time>
      </trkpt>
      <trkpt lat="44.03523" lon="7.21027">
        <ele>1994.548</ele>
        <time>2009-05-31T06:32:11Z</time>
      </trkpt>
      <trkpt lat="44.03513" lon="7.21035">
        <ele>1994.202</ele>
        <time>2009-05-31T06:32:18Z</time>
      </trkpt>
      <trkpt lat="44.035" lon="7.21042">
        <ele>1994.756</ele>
        <time>2009-05-31T06:32:27Z</time>
      </trkpt>
      <trkpt lat="44.03487" lon="7.21052">
        <ele>1996.415</ele>
        <time>2009-05-31T06:32:37Z</time>
      </trkpt>
      <trkpt lat="44.03486" lon="7.21053">
        <ele>1996.313</ele>
        <time>2009-05-31T06:32:38Z</time>
      </trkpt>
      <trkpt lat="44.03473" lon="7.21057">
        <ele>1996.31</ele>
        <time>2009-05-31T06:32:47Z</time>
      </trkpt>
      <trkpt lat="44.03468" lon="7.2106">
        <ele>1998.119</ele>
        <time>2009-05-31T06:32:54Z</time>
      </trkpt>
      <trkpt lat="44.03461" lon="7.21064">
        <ele>1999.813</ele>
        <time>2009-05-31T06:33:03Z</time>
      </trkpt>
      <trkpt lat="44.03456" lon="7.21065">
        <ele>2001.94</ele>
        <time>2009-05-31T06:33:11Z</time>
      </trkpt>
      <trkpt lat="44.03451" lon="7.21067">
        <ele>2002.957</ele>
        <time>2009-05-31T06:33:19Z</time>
      </trkpt>
      <trkpt lat="44.03447" lon="7.21069">
        <ele>2003.984</ele>
        <time>2009-05-31T06:33:26Z</time>
      </trkpt>
      <trkpt lat="44.03441" lon="7.21073">
        <ele>2004.641</ele>
        <time>2009-05-31T06:33:34Z</time>
      </trkpt>
      <trkpt lat="44.03441" lon="7.21075">
        <ele>2005.251</ele>
        <time>2009-05-31T06:33:36Z</time>
      </trkpt>
      <trkpt lat="44.03437" lon="7.21078">
        <ele>2005.984</ele>
        <time>2009-05-31T06:33:40Z</time>
      </trkpt>
      <trkpt lat="44.03432" lon="7.21082">
        <ele>2005.424</ele>
        <time>2009-05-31T06:33:44Z</time>
      </trkpt>
      <trkpt lat="44.03423" lon="7.21087">
        <ele>2007.381</ele>
        <time>2009-05-31T06:33:50Z</time>
      </trkpt>
      <trkpt lat="44.03419" lon="7.21087">
        <ele>2006.856</ele>
        <time>2009-05-31T06:33:57Z</time>
      </trkpt>
      <trkpt lat="44.03416" lon="7.21088">
        <ele>2007.019</ele>
        <time>2009-05-31T06:34:02Z</time>
      </trkpt>
      <trkpt lat="44.0341" lon="7.21092">
        <ele>2006.997</ele>
        <time>2009-05-31T06:34:09Z</time>
      </trkpt>
      <trkpt lat="44.03405" lon="7.21094">
        <ele>2006.789</ele>
        <time>2009-05-31T06:34:16Z</time>
      </trkpt>
      <trkpt lat="44.03401" lon="7.21097">
        <ele>2007.586</ele>
        <time>2009-05-31T06:34:23Z</time>
      </trkpt>
      <trkpt lat="44.03395" lon="7.21101">
        <ele>2009.275</ele>
        <time>2009-05-31T06:34:33Z</time>
      </trkpt>
      <trkpt lat="44.03392" lon="7.21101">
        <ele>2009.317</ele>
        <time>2009-05-31T06:34:36Z</time>
      </trkpt>
      <trkpt lat="44.03388" lon="7.21103">
        <ele>2009.757</ele>
        <time>2009-05-31T06:34:40Z</time>
      </trkpt>
      <trkpt lat="44.03382" lon="7.21109">
        <ele>2011.857</ele>
        <time>2009-05-31T06:34:48Z</time>
      </trkpt>
      <trkpt lat="44.03379" lon="7.21109">
        <ele>2013.58</ele>
        <time>2009-05-31T06:34:55Z</time>
      </trkpt>
      <trkpt lat="44.0337" lon="7.21115">
        <ele>2013.5</ele>
        <time>2009-05-31T06:35:02Z</time>
      </trkpt>
      <trkpt lat="44.03359" lon="7.21118">
        <ele>2014.264</ele>
        <time>2009-05-31T06:35:08Z</time>
      </trkpt>
      <trkpt lat="44.03345" lon="7.21117">
        <ele>2013.945</ele>
        <time>2009-05-31T06:35:16Z</time>
      </trkpt>
      <trkpt lat="44.0333" lon="7.2111">
        <ele>2014.333</ele>
        <time>2009-05-31T06:35:25Z</time>
      </trkpt>
      <trkpt lat="44.03321" lon="7.21102">
        <ele>2016.429</ele>
        <time>2009-05-31T06:35:32Z</time>
      </trkpt>
      <trkpt lat="44.03309" lon="7.21095">
        <ele>2016.429</ele>
        <time>2009-05-31T06:35:38Z</time>
      </trkpt>
      <trkpt lat="44.03295" lon="7.21095">
        <ele>2014.664</ele>
        <time>2009-05-31T06:35:43Z</time>
      </trkpt>
      <trkpt lat="44.03277" lon="7.21106">
        <ele>2011.536</ele>
        <time>2009-05-31T06:35:49Z</time>
      </trkpt>
      <trkpt lat="44.03257" lon="7.2112">
        <ele>2014.168</ele>
        <time>2009-05-31T06:35:55Z</time>
      </trkpt>
      <trkpt lat="44.03244" lon="7.21134">
        <ele>2015.261</ele>
        <time>2009-05-31T06:36:02Z</time>
      </trkpt>
      <trkpt lat="44.03241" lon="7.21141">
        <ele>2014.478</ele>
        <time>2009-05-31T06:36:04Z</time>
      </trkpt>
      <trkpt lat="44.03222" lon="7.2117">
        <ele>2010.315</ele>
        <time>2009-05-31T06:36:10Z</time>
      </trkpt>
      <trkpt lat="44.03208" lon="7.212">
        <ele>2004.166</ele>
        <time>2009-05-31T06:36:15Z</time>
      </trkpt>
      <trkpt lat="44.03201" lon="7.21238">
        <ele>1997.595</ele>
        <time>2009-05-31T06:36:20Z</time>
      </trkpt>
      <trkpt lat="44.03202" lon="7.21256">
        <ele>1995.437</ele>
        <time>2009-05-31T06:36:22Z</time>
      </trkpt>
      <trkpt lat="44.03209" lon="7.21321">
        <ele>1986.675</ele>
        <time>2009-05-31T06:36:30Z</time>
      </trkpt>
      <trkpt lat="44.03211" lon="7.21372">
        <ele>1979.813</ele>
        <time>2009-05-31T06:36:36Z</time>
      </trkpt>
      <trkpt lat="44.03211" lon="7.21397">
        <ele>1976.765</ele>
        <time>2009-05-31T06:36:39Z</time>
      </trkpt>
      <trkpt lat="44.03207" lon="7.21422">
        <ele>1972.539</ele>
        <time>2009-05-31T06:36:42Z</time>
      </trkpt>
      <trkpt lat="44.03209" lon="7.21461">
        <ele>1970.115</ele>
        <time>2009-05-31T06:36:47Z</time>
      </trkpt>
      <trkpt lat="44.03205" lon="7.21495">
        <ele>1964.189</ele>
        <time>2009-05-31T06:36:52Z</time>
      </trkpt>
      <trkpt lat="44.03187" lon="7.21519">
        <ele>1960.398</ele>
        <time>2009-05-31T06:36:57Z</time>
      </trkpt>
      <trkpt lat="44.03183" lon="7.21541">
        <ele>1958.257</ele>
        <time>2009-05-31T06:37:01Z</time>
      </trkpt>
      <trkpt lat="44.03171" lon="7.21555">
        <ele>1960.104</ele>
        <time>2009-05-31T06:37:08Z</time>
      </trkpt>
      <trkpt lat="44.03155" lon="7.2157">
        <ele>1961.739</ele>
        <time>2009-05-31T06:37:16Z</time>
      </trkpt>
      <trkpt lat="44.03145" lon="7.21577">
        <ele>1964.016</ele>
        <time>2009-05-31T06:37:22Z</time>
      </trkpt>
      <trkpt lat="44.03131" lon="7.21588">
        <ele>1964.512</ele>
        <time>2009-05-31T06:37:28Z</time>
      </trkpt>
      <trkpt lat="44.03114" lon="7.21601">
        <ele>1962.149</ele>
        <time>2009-05-31T06:37:32Z</time>
      </trkpt>
      <trkpt lat="44.03094" lon="7.21623">
        <ele>1960.554</ele>
        <time>2009-05-31T06:37:37Z</time>
      </trkpt>
      <trkpt lat="44.03082" lon="7.21634">
        <ele>1959.266</ele>
        <time>2009-05-31T06:37:40Z</time>
      </trkpt>
      <trkpt lat="44.03067" lon="7.21641">
        <ele>1954.245</ele>
        <time>2009-05-31T06:37:43Z</time>
      </trkpt>
      <trkpt lat="44.03044" lon="7.21646">
        <ele>1952.487</ele>
        <time>2009-05-31T06:37:47Z</time>
      </trkpt>
      <trkpt lat="44.03029" lon="7.21659">
        <ele>1950.72</ele>
        <time>2009-05-31T06:37:51Z</time>
      </trkpt>
      <trkpt lat="44.0302" lon="7.21679">
        <ele>1949.036</ele>
        <time>2009-05-31T06:37:58Z</time>
      </trkpt>
      <trkpt lat="44.03014" lon="7.21699">
        <ele>1947.082</ele>
        <time>2009-05-31T06:38:05Z</time>
      </trkpt>
      <trkpt lat="44.03006" lon="7.21707">
        <ele>1945.763</ele>
        <time>2009-05-31T06:38:11Z</time>
      </trkpt>
      <trkpt lat="44.03002" lon="7.21712">
        <ele>1945.153</ele>
        <time>2009-05-31T06:38:21Z</time>
      </trkpt>
      <trkpt lat="44.02998" lon="7.21719">
        <ele>1944.731</ele>
        <time>2009-05-31T06:38:30Z</time>
      </trkpt>
      <trkpt lat="44.02996" lon="7.21722">
        <ele>1944.81</ele>
        <time>2009-05-31T06:38:33Z</time>
      </trkpt>
      <trkpt lat="44.02988" lon="7.21722">
        <ele>1945.033</ele>
        <time>2009-05-31T06:38:40Z</time>
      </trkpt>
      <trkpt lat="44.02987" lon="7.21722">
        <ele>1945.077</ele>
        <time>2009-05-31T06:38:41Z</time>
      </trkpt>
      <trkpt lat="44.02979" lon="7.21717">
        <ele>1945.617</ele>
        <time>2009-05-31T06:38:50Z</time>
      </trkpt>
      <trkpt lat="44.02973" lon="7.2172">
        <ele>1946.009</ele>
        <time>2009-05-31T06:38:57Z</time>
      </trkpt>
      <trkpt lat="44.02968" lon="7.21726">
        <ele>1946.575</ele>
        <time>2009-05-31T06:39:07Z</time>
      </trkpt>
      <trkpt lat="44.02965" lon="7.21727">
        <ele>1946.61</ele>
        <time>2009-05-31T06:39:13Z</time>
      </trkpt>
      <trkpt lat="44.02951" lon="7.21744">
        <ele>1943.421</ele>
        <time>2009-05-31T06:39:19Z</time>
      </trkpt>
      <trkpt lat="44.02925" lon="7.21751">
        <ele>1943.272</ele>
        <time>2009-05-31T06:39:24Z</time>
      </trkpt>
      <trkpt lat="44.02919" lon="7.21753">
        <ele>1943.592</ele>
        <time>2009-05-31T06:39:27Z</time>
      </trkpt>
      <trkpt lat="44.02914" lon="7.21752">
        <ele>1944.44</ele>
        <time>2009-05-31T06:39:35Z</time>
      </trkpt>
      <trkpt lat="44.02906" lon="7.21748">
        <ele>1946.463</ele>
        <time>2009-05-31T06:39:43Z</time>
      </trkpt>
      <trkpt lat="44.02902" lon="7.21749">
        <ele>1947.606</ele>
        <time>2009-05-31T06:39:48Z</time>
      </trkpt>
      <trkpt lat="44.029" lon="7.21749">
        <ele>1948.458</ele>
        <time>2009-05-31T06:39:53Z</time>
      </trkpt>
      <trkpt lat="44.02892" lon="7.21764">
        <ele>1946.57</ele>
        <time>2009-05-31T06:39:59Z</time>
      </trkpt>
      <trkpt lat="44.0289" lon="7.21773">
        <ele>1945.771</ele>
        <time>2009-05-31T06:40:04Z</time>
      </trkpt>
      <trkpt lat="44.02889" lon="7.21783">
        <ele>1947.312</ele>
        <time>2009-05-31T06:40:13Z</time>
      </trkpt>
      <trkpt lat="44.02889" lon="7.21794">
        <ele>1947.427</ele>
        <time>2009-05-31T06:40:19Z</time>
      </trkpt>
      <trkpt lat="44.02889" lon="7.21798">
        <ele>1947.771</ele>
        <time>2009-05-31T06:40:22Z</time>
      </trkpt>
      <trkpt lat="44.02887" lon="7.21806">
        <ele>1947.616</ele>
        <time>2009-05-31T06:40:28Z</time>
      </trkpt>
      <trkpt lat="44.02879" lon="7.21819">
        <ele>1946.567</ele>
        <time>2009-05-31T06:40:32Z</time>
      </trkpt>
      <trkpt lat="44.02869" lon="7.21833">
        <ele>1943.533</ele>
        <time>2009-05-31T06:40:35Z</time>
      </trkpt>
      <trkpt lat="44.02845" lon="7.21848">
        <ele>1939.51</ele>
        <time>2009-05-31T06:40:41Z</time>
      </trkpt>
      <trkpt lat="44.02823" lon="7.2186">
        <ele>1938.271</ele>
        <time>2009-05-31T06:40:48Z</time>
      </trkpt>
      <trkpt lat="44.02816" lon="7.21869">
        <ele>1937.758</ele>
        <time>2009-05-31T06:40:51Z</time>
      </trkpt>
      <trkpt lat="44.02808" lon="7.21889">
        <ele>1935.332</ele>
        <time>2009-05-31T06:40:55Z</time>
      </trkpt>
      <trkpt lat="44.02792" lon="7.21933">
        <ele>1933.592</ele>
        <time>2009-05-31T06:41:04Z</time>
      </trkpt>
      <trkpt lat="44.02783" lon="7.21951">
        <ele>1932.039</ele>
        <time>2009-05-31T06:41:08Z</time>
      </trkpt>
      <trkpt lat="44.02762" lon="7.21986">
        <ele>1928.018</ele>
        <time>2009-05-31T06:41:14Z</time>
      </trkpt>
      <trkpt lat="44.02725" lon="7.22026">
        <ele>1927.396</ele>
        <time>2009-05-31T06:41:21Z</time>
      </trkpt>
      <trkpt lat="44.02706" lon="7.2205">
        <ele>1925.277</ele>
        <time>2009-05-31T06:41:25Z</time>
      </trkpt>
      <trkpt lat="44.0269" lon="7.22096">
        <ele>1922.502</ele>
        <time>2009-05-31T06:41:31Z</time>
      </trkpt>
      <trkpt lat="44.02688" lon="7.22113">
        <ele>1921.189</ele>
        <time>2009-05-31T06:41:33Z</time>
      </trkpt>
      <trkpt lat="44.02679" lon="7.22158">
        <ele>1918.344</ele>
        <time>2009-05-31T06:41:38Z</time>
      </trkpt>
      <trkpt lat="44.0268" lon="7.22198">
        <ele>1916.34</ele>
        <time>2009-05-31T06:41:43Z</time>
      </trkpt>
      <trkpt lat="44.02681" lon="7.22206">
        <ele>1916.404</ele>
        <time>2009-05-31T06:41:44Z</time>
      </trkpt>
      <trkpt lat="44.0268" lon="7.22245">
        <ele>1913.467</ele>
        <time>2009-05-31T06:41:49Z</time>
      </trkpt>
      <trkpt lat="44.02667" lon="7.22275">
        <ele>1914.337</ele>
        <time>2009-05-31T06:41:56Z</time>
      </trkpt>
      <trkpt lat="44.02657" lon="7.22294">
        <ele>1914.637</ele>
        <time>2009-05-31T06:42:02Z</time>
      </trkpt>
      <trkpt lat="44.02645" lon="7.22314">
        <ele>1915.4</ele>
        <time>2009-05-31T06:42:08Z</time>
      </trkpt>
      <trkpt lat="44.02632" lon="7.22327">
        <ele>1916.908</ele>
        <time>2009-05-31T06:42:15Z</time>
      </trkpt>
      <trkpt lat="44.0262" lon="7.22336">
        <ele>1920.693</ele>
        <time>2009-05-31T06:42:22Z</time>
      </trkpt>
      <trkpt lat="44.02608" lon="7.22345">
        <ele>1921.529</ele>
        <time>2009-05-31T06:42:31Z</time>
      </trkpt>
      <trkpt lat="44.02607" lon="7.22347">
        <ele>1921.977</ele>
        <time>2009-05-31T06:42:32Z</time>
      </trkpt>
      <trkpt lat="44.02599" lon="7.22352">
        <ele>1923.103</ele>
        <time>2009-05-31T06:42:38Z</time>
      </trkpt>
      <trkpt lat="44.02591" lon="7.22354">
        <ele>1924.586</ele>
        <time>2009-05-31T06:42:44Z</time>
      </trkpt>
      <trkpt lat="44.0259" lon="7.22354">
        <ele>1924.673</ele>
        <time>2009-05-31T06:42:45Z</time>
      </trkpt>
      <trkpt lat="44.02584" lon="7.22361">
        <ele>1925.953</ele>
        <time>2009-05-31T06:42:53Z</time>
      </trkpt>
      <trkpt lat="44.02578" lon="7.22369">
        <ele>1927.787</ele>
        <time>2009-05-31T06:43:05Z</time>
      </trkpt>
      <trkpt lat="44.02571" lon="7.22372">
        <ele>1930.904</ele>
        <time>2009-05-31T06:43:18Z</time>
      </trkpt>
      <trkpt lat="44.02564" lon="7.22374">
        <ele>1931.846</ele>
        <time>2009-05-31T06:43:25Z</time>
      </trkpt>
      <trkpt lat="44.02558" lon="7.22382">
        <ele>1932.865</ele>
        <time>2009-05-31T06:43:35Z</time>
      </trkpt>
      <trkpt lat="44.02544" lon="7.22388">
        <ele>1934.989</ele>
        <time>2009-05-31T06:43:46Z</time>
      </trkpt>
      <trkpt lat="44.02539" lon="7.22392">
        <ele>1937.828</ele>
        <time>2009-05-31T06:43:56Z</time>
      </trkpt>
      <trkpt lat="44.02533" lon="7.22396">
        <ele>1938.826</ele>
        <time>2009-05-31T06:44:03Z</time>
      </trkpt>
      <trkpt lat="44.02526" lon="7.22402">
        <ele>1939.245</ele>
        <time>2009-05-31T06:44:08Z</time>
      </trkpt>
      <trkpt lat="44.02525" lon="7.22406">
        <ele>1939.282</ele>
        <time>2009-05-31T06:44:11Z</time>
      </trkpt>
      <trkpt lat="44.02521" lon="7.22413">
        <ele>1940.479</ele>
        <time>2009-05-31T06:44:19Z</time>
      </trkpt>
      <trkpt lat="44.02514" lon="7.22423">
        <ele>1941.838</ele>
        <time>2009-05-31T06:44:30Z</time>
      </trkpt>
      <trkpt lat="44.02511" lon="7.22427">
        <ele>1942.763</ele>
        <time>2009-05-31T06:44:33Z</time>
      </trkpt>
      <trkpt lat="44.02504" lon="7.22436">
        <ele>1942.859</ele>
        <time>2009-05-31T06:44:41Z</time>
      </trkpt>
      <trkpt lat="44.02503" lon="7.22446">
        <ele>1941.671</ele>
        <time>2009-05-31T06:44:48Z</time>
      </trkpt>
      <trkpt lat="44.02502" lon="7.22452">
        <ele>1941.854</ele>
        <time>2009-05-31T06:44:52Z</time>
      </trkpt>
      <trkpt lat="44.02502" lon="7.22461">
        <ele>1942.166</ele>
        <time>2009-05-31T06:45:01Z</time>
      </trkpt>
      <trkpt lat="44.02501" lon="7.22465">
        <ele>1941.927</ele>
        <time>2009-05-31T06:45:06Z</time>
      </trkpt>
      <trkpt lat="44.02502" lon="7.22492">
        <ele>1940.39</ele>
        <time>2009-05-31T06:45:18Z</time>
      </trkpt>
      <trkpt lat="44.02503" lon="7.22509">
        <ele>1938.253</ele>
        <time>2009-05-31T06:45:26Z</time>
      </trkpt>
      <trkpt lat="44.02501" lon="7.22515">
        <ele>1937.533</ele>
        <time>2009-05-31T06:45:33Z</time>
      </trkpt>
      <trkpt lat="44.02503" lon="7.22524">
        <ele>1938.112</ele>
        <time>2009-05-31T06:45:40Z</time>
      </trkpt>
      <trkpt lat="44.02502" lon="7.22532">
        <ele>1937.411</ele>
        <time>2009-05-31T06:45:46Z</time>
      </trkpt>
      <trkpt lat="44.025" lon="7.22546">
        <ele>1936.764</ele>
        <time>2009-05-31T06:45:52Z</time>
      </trkpt>
      <trkpt lat="44.02497" lon="7.22564">
        <ele>1940.234</ele>
        <time>2009-05-31T06:46:00Z</time>
      </trkpt>
      <trkpt lat="44.02494" lon="7.2258">
        <ele>1944.7</ele>
        <time>2009-05-31T06:46:09Z</time>
      </trkpt>
      <trkpt lat="44.02491" lon="7.2259">
        <ele>1948.559</ele>
        <time>2009-05-31T06:46:15Z</time>
      </trkpt>
      <trkpt lat="44.02486" lon="7.226">
        <ele>1950.299</ele>
        <time>2009-05-31T06:46:22Z</time>
      </trkpt>
      <trkpt lat="44.02479" lon="7.22615">
        <ele>1951.976</ele>
        <time>2009-05-31T06:46:32Z</time>
      </trkpt>
      <trkpt lat="44.02474" lon="7.22636">
        <ele>1954.273</ele>
        <time>2009-05-31T06:46:42Z</time>
      </trkpt>
      <trkpt lat="44.02468" lon="7.22653">
        <ele>1955.486</ele>
        <time>2009-05-31T06:46:51Z</time>
      </trkpt>
      <trkpt lat="44.02467" lon="7.22671">
        <ele>1954.876</ele>
        <time>2009-05-31T06:46:59Z</time>
      </trkpt>
      <trkpt lat="44.02464" lon="7.22687">
        <ele>1954.426</ele>
        <time>2009-05-31T06:47:07Z</time>
      </trkpt>
      <trkpt lat="44.02459" lon="7.22705">
        <ele>1954.017</ele>
        <time>2009-05-31T06:47:15Z</time>
      </trkpt>
      <trkpt lat="44.02455" lon="7.22717">
        <ele>1953.197</ele>
        <time>2009-05-31T06:47:19Z</time>
      </trkpt>
      <trkpt lat="44.02435" lon="7.22755">
        <ele>1948.607</ele>
        <time>2009-05-31T06:47:26Z</time>
      </trkpt>
      <trkpt lat="44.0241" lon="7.22788">
        <ele>1947.996</ele>
        <time>2009-05-31T06:47:32Z</time>
      </trkpt>
      <trkpt lat="44.02399" lon="7.228">
        <ele>1950.308</ele>
        <time>2009-05-31T06:47:37Z</time>
      </trkpt>
      <trkpt lat="44.02396" lon="7.22812">
        <ele>1954.479</ele>
        <time>2009-05-31T06:47:44Z</time>
      </trkpt>
      <trkpt lat="44.02393" lon="7.2283">
        <ele>1955.519</ele>
        <time>2009-05-31T06:47:52Z</time>
      </trkpt>
      <trkpt lat="44.02392" lon="7.22846">
        <ele>1955.11</ele>
        <time>2009-05-31T06:47:59Z</time>
      </trkpt>
      <trkpt lat="44.02387" lon="7.22862">
        <ele>1956.701</ele>
        <time>2009-05-31T06:48:07Z</time>
      </trkpt>
      <trkpt lat="44.02378" lon="7.22881">
        <ele>1957.071</ele>
        <time>2009-05-31T06:48:16Z</time>
      </trkpt>
      <trkpt lat="44.02369" lon="7.22894">
        <ele>1956.653</ele>
        <time>2009-05-31T06:48:24Z</time>
      </trkpt>
      <trkpt lat="44.02356" lon="7.2291">
        <ele>1957.991</ele>
        <time>2009-05-31T06:48:32Z</time>
      </trkpt>
      <trkpt lat="44.0234" lon="7.22928">
        <ele>1957.403</ele>
        <time>2009-05-31T06:48:40Z</time>
      </trkpt>
      <trkpt lat="44.02324" lon="7.22943">
        <ele>1959.106</ele>
        <time>2009-05-31T06:48:47Z</time>
      </trkpt>
      <trkpt lat="44.02305" lon="7.22964">
        <ele>1956.434</ele>
        <time>2009-05-31T06:48:54Z</time>
      </trkpt>
      <trkpt lat="44.02294" lon="7.23">
        <ele>1954.427</ele>
        <time>2009-05-31T06:49:00Z</time>
      </trkpt>
      <trkpt lat="44.02286" lon="7.2302">
        <ele>1954.204</ele>
        <time>2009-05-31T06:49:04Z</time>
      </trkpt>
      <trkpt lat="44.02261" lon="7.23053">
        <ele>1955.229</ele>
        <time>2009-05-31T06:49:11Z</time>
      </trkpt>
      <trkpt lat="44.02252" lon="7.23059">
        <ele>1955.557</ele>
        <time>2009-05-31T06:49:14Z</time>
      </trkpt>
      <trkpt lat="44.02238" lon="7.23069">
        <ele>1955.298</ele>
        <time>2009-05-31T06:49:18Z</time>
      </trkpt>
      <trkpt lat="44.02206" lon="7.23088">
        <ele>1950.029</ele>
        <time>2009-05-31T06:49:24Z</time>
      </trkpt>
      <trkpt lat="44.02199" lon="7.2309">
        <ele>1950.263</ele>
        <time>2009-05-31T06:49:25Z</time>
      </trkpt>
      <trkpt lat="44.02187" lon="7.23091">
        <ele>1949.782</ele>
        <time>2009-05-31T06:49:27Z</time>
      </trkpt>
      <trkpt lat="44.0217" lon="7.23097">
        <ele>1949.826</ele>
        <time>2009-05-31T06:49:31Z</time>
      </trkpt>
      <trkpt lat="44.02148" lon="7.23109">
        <ele>1949.997</ele>
        <time>2009-05-31T06:49:38Z</time>
      </trkpt>
      <trkpt lat="44.02144" lon="7.2311">
        <ele>1949.067</ele>
        <time>2009-05-31T06:49:39Z</time>
      </trkpt>
      <trkpt lat="44.02132" lon="7.23112">
        <ele>1948.44</ele>
        <time>2009-05-31T06:49:42Z</time>
      </trkpt>
      <trkpt lat="44.02107" lon="7.23116">
        <ele>1945.958</ele>
        <time>2009-05-31T06:49:47Z</time>
      </trkpt>
      <trkpt lat="44.02081" lon="7.23133">
        <ele>1941.791</ele>
        <time>2009-05-31T06:49:53Z</time>
      </trkpt>
      <trkpt lat="44.02065" lon="7.23139">
        <ele>1939</ele>
        <time>2009-05-31T06:49:56Z</time>
      </trkpt>
      <trkpt lat="44.02039" lon="7.2316">
        <ele>1937.721</ele>
        <time>2009-05-31T06:50:01Z</time>
      </trkpt>
      <trkpt lat="44.02021" lon="7.2317">
        <ele>1937.984</ele>
        <time>2009-05-31T06:50:05Z</time>
      </trkpt>
      <trkpt lat="44.02009" lon="7.23178">
        <ele>1936.505</ele>
        <time>2009-05-31T06:50:08Z</time>
      </trkpt>
      <trkpt lat="44.0199" lon="7.23179">
        <ele>1935.148</ele>
        <time>2009-05-31T06:50:12Z</time>
      </trkpt>
      <trkpt lat="44.01978" lon="7.23173">
        <ele>1933.992</ele>
        <time>2009-05-31T06:50:15Z</time>
      </trkpt>
      <trkpt lat="44.01951" lon="7.23153">
        <ele>1927.515</ele>
        <time>2009-05-31T06:50:22Z</time>
      </trkpt>
      <trkpt lat="44.01934" lon="7.23141">
        <ele>1919.307</ele>
        <time>2009-05-31T06:50:29Z</time>
      </trkpt>
      <trkpt lat="44.0192" lon="7.23132">
        <ele>1914.606</ele>
        <time>2009-05-31T06:50:36Z</time>
      </trkpt>
      <trkpt lat="44.01908" lon="7.23127">
        <ele>1912.324</ele>
        <time>2009-05-31T06:50:42Z</time>
      </trkpt>
      <trkpt lat="44.01901" lon="7.23119">
        <ele>1910.553</ele>
        <time>2009-05-31T06:50:48Z</time>
      </trkpt>
      <trkpt lat="44.01899" lon="7.23117">
        <ele>1909.699</ele>
        <time>2009-05-31T06:50:53Z</time>
      </trkpt>
      <trkpt lat="44.01893" lon="7.23108">
        <ele>1908.608</ele>
        <time>2009-05-31T06:50:58Z</time>
      </trkpt>
      <trkpt lat="44.01875" lon="7.23092">
        <ele>1904.883</ele>
        <time>2009-05-31T06:51:05Z</time>
      </trkpt>
      <trkpt lat="44.01872" lon="7.2309">
        <ele>1904.407</ele>
        <time>2009-05-31T06:51:11Z</time>
      </trkpt>
      <trkpt lat="44.01865" lon="7.2309">
        <ele>1904.352</ele>
        <time>2009-05-31T06:51:17Z</time>
      </trkpt>
      <trkpt lat="44.01851" lon="7.23086">
        <ele>1902.249</ele>
        <time>2009-05-31T06:51:22Z</time>
      </trkpt>
      <trkpt lat="44.01838" lon="7.23076">
        <ele>1898.536</ele>
        <time>2009-05-31T06:51:28Z</time>
      </trkpt>
      <trkpt lat="44.0183" lon="7.23075">
        <ele>1896.845</ele>
        <time>2009-05-31T06:51:30Z</time>
      </trkpt>
      <trkpt lat="44.01821" lon="7.23056">
        <ele>1891.759</ele>
        <time>2009-05-31T06:51:35Z</time>
      </trkpt>
      <trkpt lat="44.01819" lon="7.23054">
        <ele>1891.506</ele>
        <time>2009-05-31T06:51:37Z</time>
      </trkpt>
      <trkpt lat="44.01803" lon="7.23034">
        <ele>1888.602</ele>
        <time>2009-05-31T06:51:44Z</time>
      </trkpt>
      <trkpt lat="44.01799" lon="7.23029">
        <ele>1886.848</ele>
        <time>2009-05-31T06:51:45Z</time>
      </trkpt>
      <trkpt lat="44.01785" lon="7.23011">
        <ele>1883.252</ele>
        <time>2009-05-31T06:51:49Z</time>
      </trkpt>
      <trkpt lat="44.01761" lon="7.22995">
        <ele>1876.657</ele>
        <time>2009-05-31T06:51:55Z</time>
      </trkpt>
      <trkpt lat="44.01758" lon="7.22995">
        <ele>1875.91</ele>
        <time>2009-05-31T06:51:56Z</time>
      </trkpt>
      <trkpt lat="44.01742" lon="7.22999">
        <ele>1873.267</ele>
        <time>2009-05-31T06:52:01Z</time>
      </trkpt>
      <trkpt lat="44.01727" lon="7.22995">
        <ele>1869.592</ele>
        <time>2009-05-31T06:52:07Z</time>
      </trkpt>
      <trkpt lat="44.01727" lon="7.22997">
        <ele>1868.636</ele>
        <time>2009-05-31T06:52:10Z</time>
      </trkpt>
      <trkpt lat="44.01741" lon="7.2299">
        <ele>1865.957</ele>
        <time>2009-05-31T06:52:15Z</time>
      </trkpt>
      <trkpt lat="44.01743" lon="7.22988">
        <ele>1865.641</ele>
        <time>2009-05-31T06:52:16Z</time>
      </trkpt>
      <trkpt lat="44.01744" lon="7.2298">
        <ele>1864.455</ele>
        <time>2009-05-31T06:52:22Z</time>
      </trkpt>
      <trkpt lat="44.01745" lon="7.22977">
        <ele>1863.641</ele>
        <time>2009-05-31T06:52:29Z</time>
      </trkpt>
      <trkpt lat="44.01744" lon="7.22976">
        <ele>1863.618</ele>
        <time>2009-05-31T06:52:31Z</time>
      </trkpt>
      <trkpt lat="44.01734" lon="7.22975">
        <ele>1862.639</ele>
        <time>2009-05-31T06:52:35Z</time>
      </trkpt>
      <trkpt lat="44.01712" lon="7.22969">
        <ele>1859.798</ele>
        <time>2009-05-31T06:52:42Z</time>
      </trkpt>
      <trkpt lat="44.01693" lon="7.22974">
        <ele>1857.875</ele>
        <time>2009-05-31T06:52:47Z</time>
      </trkpt>
      <trkpt lat="44.01688" lon="7.22977">
        <ele>1856.569</ele>
        <time>2009-05-31T06:52:52Z</time>
      </trkpt>
      <trkpt lat="44.01684" lon="7.22961">
        <ele>1856.295</ele>
        <time>2009-05-31T06:53:23Z</time>
      </trkpt>
      <trkpt lat="44.01678" lon="7.22945">
        <ele>1855.436</ele>
        <time>2009-05-31T06:53:28Z</time>
      </trkpt>
      <trkpt lat="44.0166" lon="7.22936">
        <ele>1852.624</ele>
        <time>2009-05-31T06:53:34Z</time>
      </trkpt>
      <trkpt lat="44.01657" lon="7.22927">
        <ele>1852.087</ele>
        <time>2009-05-31T06:53:38Z</time>
      </trkpt>
      <trkpt lat="44.01653" lon="7.22909">
        <ele>1852.916</ele>
        <time>2009-05-31T06:53:45Z</time>
      </trkpt>
      <trkpt lat="44.01651" lon="7.2289">
        <ele>1851.236</ele>
        <time>2009-05-31T06:53:49Z</time>
      </trkpt>
      <trkpt lat="44.01647" lon="7.22857">
        <ele>1844.775</ele>
        <time>2009-05-31T06:53:54Z</time>
      </trkpt>
      <trkpt lat="44.01619" lon="7.22821">
        <ele>1833.154</ele>
        <time>2009-05-31T06:54:03Z</time>
      </trkpt>
      <trkpt lat="44.01605" lon="7.22811">
        <ele>1829.302</ele>
        <time>2009-05-31T06:54:08Z</time>
      </trkpt>
      <trkpt lat="44.01597" lon="7.22799">
        <ele>1825.606</ele>
        <time>2009-05-31T06:54:11Z</time>
      </trkpt>
      <trkpt lat="44.01586" lon="7.22792">
        <ele>1820.182</ele>
        <time>2009-05-31T06:54:16Z</time>
      </trkpt>
      <trkpt lat="44.0159" lon="7.22776">
        <ele>1817.939</ele>
        <time>2009-05-31T06:54:21Z</time>
      </trkpt>
      <trkpt lat="44.01591" lon="7.22771">
        <ele>1817.383</ele>
        <time>2009-05-31T06:54:22Z</time>
      </trkpt>
      <trkpt lat="44.0159" lon="7.22754">
        <ele>1815.017</ele>
        <time>2009-05-31T06:54:25Z</time>
      </trkpt>
      <trkpt lat="44.01586" lon="7.22733">
        <ele>1813.111</ele>
        <time>2009-05-31T06:54:30Z</time>
      </trkpt>
      <trkpt lat="44.01582" lon="7.22689">
        <ele>1805.601</ele>
        <time>2009-05-31T06:54:39Z</time>
      </trkpt>
      <trkpt lat="44.01572" lon="7.22656">
        <ele>1801.64</ele>
        <time>2009-05-31T06:54:47Z</time>
      </trkpt>
      <trkpt lat="44.01569" lon="7.22652">
        <ele>1801.087</ele>
        <time>2009-05-31T06:54:48Z</time>
      </trkpt>
      <trkpt lat="44.01538" lon="7.22627">
        <ele>1795.695</ele>
        <time>2009-05-31T06:54:55Z</time>
      </trkpt>
      <trkpt lat="44.01515" lon="7.22613">
        <ele>1791.892</ele>
        <time>2009-05-31T06:55:02Z</time>
      </trkpt>
      <trkpt lat="44.01496" lon="7.22606">
        <ele>1790.11</ele>
        <time>2009-05-31T06:55:09Z</time>
      </trkpt>
      <trkpt lat="44.01476" lon="7.22607">
        <ele>1789.444</ele>
        <time>2009-05-31T06:55:16Z</time>
      </trkpt>
      <trkpt lat="44.01456" lon="7.22591">
        <ele>1787.301</ele>
        <time>2009-05-31T06:55:21Z</time>
      </trkpt>
      <trkpt lat="44.01445" lon="7.22583">
        <ele>1785.821</ele>
        <time>2009-05-31T06:55:24Z</time>
      </trkpt>
      <trkpt lat="44.01428" lon="7.22579">
        <ele>1784.483</ele>
        <time>2009-05-31T06:55:28Z</time>
      </trkpt>
      <trkpt lat="44.01406" lon="7.22569">
        <ele>1782.96</ele>
        <time>2009-05-31T06:55:33Z</time>
      </trkpt>
      <trkpt lat="44.01387" lon="7.22574">
        <ele>1781.701</ele>
        <time>2009-05-31T06:55:37Z</time>
      </trkpt>
      <trkpt lat="44.01375" lon="7.22581">
        <ele>1781.118</ele>
        <time>2009-05-31T06:55:40Z</time>
      </trkpt>
      <trkpt lat="44.01354" lon="7.22588">
        <ele>1780.484</ele>
        <time>2009-05-31T06:55:46Z</time>
      </trkpt>
      <trkpt lat="44.01351" lon="7.22591">
        <ele>1778.246</ele>
        <time>2009-05-31T06:55:50Z</time>
      </trkpt>
      <trkpt lat="44.01341" lon="7.226">
        <ele>1775.428</ele>
        <time>2009-05-31T06:55:56Z</time>
      </trkpt>
      <trkpt lat="44.01331" lon="7.22605">
        <ele>1772.071</ele>
        <time>2009-05-31T06:56:01Z</time>
      </trkpt>
      <trkpt lat="44.01324" lon="7.22601">
        <ele>1767.954</ele>
        <time>2009-05-31T06:56:07Z</time>
      </trkpt>
      <trkpt lat="44.01316" lon="7.22596">
        <ele>1764.648</ele>
        <time>2009-05-31T06:56:27Z</time>
      </trkpt>
      <trkpt lat="44.01314" lon="7.2259">
        <ele>1764.055</ele>
        <time>2009-05-31T06:56:30Z</time>
      </trkpt>
      <trkpt lat="44.01303" lon="7.22579">
        <ele>1762.312</ele>
        <time>2009-05-31T06:56:37Z</time>
      </trkpt>
      <trkpt lat="44.01303" lon="7.22577">
        <ele>1762.403</ele>
        <time>2009-05-31T06:56:38Z</time>
      </trkpt>
      <trkpt lat="44.01303" lon="7.22573">
        <ele>1762.921</ele>
        <time>2009-05-31T06:56:40Z</time>
      </trkpt>
      <trkpt lat="44.013" lon="7.22555">
        <ele>1763.689</ele>
        <time>2009-05-31T06:56:47Z</time>
      </trkpt>
      <trkpt lat="44.01298" lon="7.22551">
        <ele>1763.993</ele>
        <time>2009-05-31T06:56:48Z</time>
      </trkpt>
      <trkpt lat="44.01285" lon="7.2252">
        <ele>1763.905</ele>
        <time>2009-05-31T06:56:55Z</time>
      </trkpt>
      <trkpt lat="44.01261" lon="7.22497">
        <ele>1763.103</ele>
        <time>2009-05-31T06:57:02Z</time>
      </trkpt>
      <trkpt lat="44.0123" lon="7.225">
        <ele>1756.948</ele>
        <time>2009-05-31T06:57:09Z</time>
      </trkpt>
      <trkpt lat="44.01218" lon="7.22477">
        <ele>1754.508</ele>
        <time>2009-05-31T06:57:15Z</time>
      </trkpt>
      <trkpt lat="44.01206" lon="7.2246">
        <ele>1751.008</ele>
        <time>2009-05-31T06:57:19Z</time>
      </trkpt>
      <trkpt lat="44.01194" lon="7.22448">
        <ele>1747.85</ele>
        <time>2009-05-31T06:57:24Z</time>
      </trkpt>
      <trkpt lat="44.01187" lon="7.22443">
        <ele>1746.745</ele>
        <time>2009-05-31T06:57:26Z</time>
      </trkpt>
      <trkpt lat="44.01166" lon="7.22422">
        <ele>1743.39</ele>
        <time>2009-05-31T06:57:33Z</time>
      </trkpt>
      <trkpt lat="44.0115" lon="7.22419">
        <ele>1740.437</ele>
        <time>2009-05-31T06:57:38Z</time>
      </trkpt>
      <trkpt lat="44.01148" lon="7.22418">
        <ele>1738.785</ele>
        <time>2009-05-31T06:57:43Z</time>
      </trkpt>
      <trkpt lat="44.01143" lon="7.22416">
        <ele>1738.354</ele>
        <time>2009-05-31T06:57:50Z</time>
      </trkpt>
      <trkpt lat="44.01142" lon="7.22416">
        <ele>1738.33</ele>
        <time>2009-05-31T06:57:51Z</time>
      </trkpt>
      <trkpt lat="44.01143" lon="7.22395">
        <ele>1737.008</ele>
        <time>2009-05-31T06:57:58Z</time>
      </trkpt>
      <trkpt lat="44.01144" lon="7.22389">
        <ele>1736.919</ele>
        <time>2009-05-31T06:57:59Z</time>
      </trkpt>
      <trkpt lat="44.01147" lon="7.22354">
        <ele>1734.166</ele>
        <time>2009-05-31T06:58:05Z</time>
      </trkpt>
      <trkpt lat="44.01141" lon="7.22332">
        <ele>1732.817</ele>
        <time>2009-05-31T06:58:09Z</time>
      </trkpt>
      <trkpt lat="44.01126" lon="7.22301">
        <ele>1730.746</ele>
        <time>2009-05-31T06:58:14Z</time>
      </trkpt>
      <trkpt lat="44.01116" lon="7.2229">
        <ele>1729.967</ele>
        <time>2009-05-31T06:58:16Z</time>
      </trkpt>
      <trkpt lat="44.01102" lon="7.22267">
        <ele>1729.929</ele>
        <time>2009-05-31T06:58:22Z</time>
      </trkpt>
      <trkpt lat="44.011" lon="7.22264">
        <ele>1729.992</ele>
        <time>2009-05-31T06:58:23Z</time>
      </trkpt>
      <trkpt lat="44.01104" lon="7.22237">
        <ele>1729.767</ele>
        <time>2009-05-31T06:58:28Z</time>
      </trkpt>
      <trkpt lat="44.011" lon="7.22226">
        <ele>1728.596</ele>
        <time>2009-05-31T06:58:30Z</time>
      </trkpt>
      <trkpt lat="44.01089" lon="7.22203">
        <ele>1727.836</ele>
        <time>2009-05-31T06:58:33Z</time>
      </trkpt>
      <trkpt lat="44.01076" lon="7.22165">
        <ele>1724.769</ele>
        <time>2009-05-31T06:58:38Z</time>
      </trkpt>
      <trkpt lat="44.01069" lon="7.22136">
        <ele>1723.01</ele>
        <time>2009-05-31T06:58:42Z</time>
      </trkpt>
      <trkpt lat="44.01055" lon="7.22115">
        <ele>1720.672</ele>
        <time>2009-05-31T06:58:47Z</time>
      </trkpt>
      <trkpt lat="44.0104" lon="7.22133">
        <ele>1715.84</ele>
        <time>2009-05-31T06:58:53Z</time>
      </trkpt>
      <trkpt lat="44.01029" lon="7.22139">
        <ele>1714.77</ele>
        <time>2009-05-31T06:58:58Z</time>
      </trkpt>
      <trkpt lat="44.01011" lon="7.22156">
        <ele>1713.103</ele>
        <time>2009-05-31T06:59:05Z</time>
      </trkpt>
      <trkpt lat="44.00994" lon="7.22181">
        <ele>1713.413</ele>
        <time>2009-05-31T06:59:13Z</time>
      </trkpt>
      <trkpt lat="44.00981" lon="7.22195">
        <ele>1713.438</ele>
        <time>2009-05-31T06:59:20Z</time>
      </trkpt>
      <trkpt lat="44.00965" lon="7.22205">
        <ele>1711.611</ele>
        <time>2009-05-31T06:59:27Z</time>
      </trkpt>
      <trkpt lat="44.00944" lon="7.22214">
        <ele>1710.836</ele>
        <time>2009-05-31T06:59:34Z</time>
      </trkpt>
      <trkpt lat="44.00925" lon="7.22226">
        <ele>1709.111</ele>
        <time>2009-05-31T06:59:42Z</time>
      </trkpt>
      <trkpt lat="44.00907" lon="7.22233">
        <ele>1710.782</ele>
        <time>2009-05-31T06:59:49Z</time>
      </trkpt>
      <trkpt lat="44.0089" lon="7.22239">
        <ele>1710.782</ele>
        <time>2009-05-31T06:59:56Z</time>
      </trkpt>
      <trkpt lat="44.0087" lon="7.22256">
        <ele>1712.643</ele>
        <time>2009-05-31T07:00:05Z</time>
      </trkpt>
      <trkpt lat="44.00855" lon="7.22267">
        <ele>1713.689</ele>
        <time>2009-05-31T07:00:12Z</time>
      </trkpt>
      <trkpt lat="44.00841" lon="7.22262">
        <ele>1717.287</ele>
        <time>2009-05-31T07:00:18Z</time>
      </trkpt>
      <trkpt lat="44.00819" lon="7.22266">
        <ele>1714.621</ele>
        <time>2009-05-31T07:00:26Z</time>
      </trkpt>
      <trkpt lat="44.00799" lon="7.22275">
        <ele>1714.197</ele>
        <time>2009-05-31T07:00:34Z</time>
      </trkpt>
      <trkpt lat="44.00782" lon="7.22284">
        <ele>1715.902</ele>
        <time>2009-05-31T07:00:41Z</time>
      </trkpt>
      <trkpt lat="44.00764" lon="7.22298">
        <ele>1715.953</ele>
        <time>2009-05-31T07:00:49Z</time>
      </trkpt>
      <trkpt lat="44.00749" lon="7.22301">
        <ele>1716.276</ele>
        <time>2009-05-31T07:00:55Z</time>
      </trkpt>
      <trkpt lat="44.00733" lon="7.22294">
        <ele>1716.606</ele>
        <time>2009-05-31T07:01:02Z</time>
      </trkpt>
      <trkpt lat="44.00719" lon="7.22278">
        <ele>1718.893</ele>
        <time>2009-05-31T07:01:10Z</time>
      </trkpt>
      <trkpt lat="44.00705" lon="7.22265">
        <ele>1718.319</ele>
        <time>2009-05-31T07:01:17Z</time>
      </trkpt>
      <trkpt lat="44.00687" lon="7.22255">
        <ele>1718.708</ele>
        <time>2009-05-31T07:01:25Z</time>
      </trkpt>
      <trkpt lat="44.00666" lon="7.22265">
        <ele>1718.652</ele>
        <time>2009-05-31T07:01:34Z</time>
      </trkpt>
      <trkpt lat="44.00651" lon="7.22262">
        <ele>1719.721</ele>
        <time>2009-05-31T07:01:40Z</time>
      </trkpt>
      <trkpt lat="44.00634" lon="7.22252">
        <ele>1722.289</ele>
        <time>2009-05-31T07:01:48Z</time>
      </trkpt>
      <trkpt lat="44.00615" lon="7.2224">
        <ele>1723.721</ele>
        <time>2009-05-31T07:01:57Z</time>
      </trkpt>
      <trkpt lat="44.00599" lon="7.22229">
        <ele>1723.654</ele>
        <time>2009-05-31T07:02:05Z</time>
      </trkpt>
      <trkpt lat="44.00582" lon="7.22231">
        <ele>1724.509</ele>
        <time>2009-05-31T07:02:13Z</time>
      </trkpt>
      <trkpt lat="44.00573" lon="7.22226">
        <ele>1725.23</ele>
        <time>2009-05-31T07:02:18Z</time>
      </trkpt>
      <trkpt lat="44.00559" lon="7.22211">
        <ele>1726.33</ele>
        <time>2009-05-31T07:02:26Z</time>
      </trkpt>
      <trkpt lat="44.0055" lon="7.22188">
        <ele>1729.073</ele>
        <time>2009-05-31T07:02:34Z</time>
      </trkpt>
      <trkpt lat="44.00541" lon="7.2217">
        <ele>1729.69</ele>
        <time>2009-05-31T07:02:41Z</time>
      </trkpt>
      <trkpt lat="44.0053" lon="7.22155">
        <ele>1728.636</ele>
        <time>2009-05-31T07:02:48Z</time>
      </trkpt>
      <trkpt lat="44.00517" lon="7.22145">
        <ele>1728.178</ele>
        <time>2009-05-31T07:02:54Z</time>
      </trkpt>
      <trkpt lat="44.00493" lon="7.22129">
        <ele>1727.749</ele>
        <time>2009-05-31T07:03:03Z</time>
      </trkpt>
      <trkpt lat="44.00481" lon="7.22102">
        <ele>1728.153</ele>
        <time>2009-05-31T07:03:11Z</time>
      </trkpt>
      <trkpt lat="44.0047" lon="7.22085">
        <ele>1729.887</ele>
        <time>2009-05-31T07:03:17Z</time>
      </trkpt>
      <trkpt lat="44.00455" lon="7.22074">
        <ele>1731.514</ele>
        <time>2009-05-31T07:03:24Z</time>
      </trkpt>
      <trkpt lat="44.00437" lon="7.22061">
        <ele>1732.498</ele>
        <time>2009-05-31T07:03:32Z</time>
      </trkpt>
      <trkpt lat="44.0042" lon="7.22047">
        <ele>1733.83</ele>
        <time>2009-05-31T07:03:40Z</time>
      </trkpt>
      <trkpt lat="44.00407" lon="7.22028">
        <ele>1736.149</ele>
        <time>2009-05-31T07:03:47Z</time>
      </trkpt>
      <trkpt lat="44.00396" lon="7.22001">
        <ele>1737.254</ele>
        <time>2009-05-31T07:03:56Z</time>
      </trkpt>
      <trkpt lat="44.00375" lon="7.21995">
        <ele>1736.591</ele>
        <time>2009-05-31T07:04:04Z</time>
      </trkpt>
      <trkpt lat="44.00353" lon="7.21999">
        <ele>1735.57</ele>
        <time>2009-05-31T07:04:12Z</time>
      </trkpt>
      <trkpt lat="44.00331" lon="7.2201">
        <ele>1735.279</ele>
        <time>2009-05-31T07:04:22Z</time>
      </trkpt>
      <trkpt lat="44.00321" lon="7.22004">
        <ele>1734.097</ele>
        <time>2009-05-31T07:04:27Z</time>
      </trkpt>
      <trkpt lat="44.00302" lon="7.21993">
        <ele>1729.896</ele>
        <time>2009-05-31T07:04:33Z</time>
      </trkpt>
      <trkpt lat="44.00292" lon="7.21987">
        <ele>1727.268</ele>
        <time>2009-05-31T07:04:36Z</time>
      </trkpt>
      <trkpt lat="44.00291" lon="7.21967">
        <ele>1723.914</ele>
        <time>2009-05-31T07:04:41Z</time>
      </trkpt>
      <trkpt lat="44.00297" lon="7.21948">
        <ele>1721.755</ele>
        <time>2009-05-31T07:04:44Z</time>
      </trkpt>
      <trkpt lat="44.00303" lon="7.21934">
        <ele>1719.663</ele>
        <time>2009-05-31T07:04:47Z</time>
      </trkpt>
      <trkpt lat="44.00295" lon="7.21919">
        <ele>1713.624</ele>
        <time>2009-05-31T07:04:53Z</time>
      </trkpt>
      <trkpt lat="44.00275" lon="7.21917">
        <ele>1710.029</ele>
        <time>2009-05-31T07:04:58Z</time>
      </trkpt>
      <trkpt lat="44.00243" lon="7.21926">
        <ele>1701.49</ele>
        <time>2009-05-31T07:05:07Z</time>
      </trkpt>
      <trkpt lat="44.00241" lon="7.21924">
        <ele>1697.712</ele>
        <time>2009-05-31T07:05:14Z</time>
      </trkpt>
      <trkpt lat="44.00241" lon="7.21923">
        <ele>1697.087</ele>
        <time>2009-05-31T07:05:29Z</time>
      </trkpt>
      <trkpt lat="44.0025" lon="7.21904">
        <ele>1695.195</ele>
        <time>2009-05-31T07:05:34Z</time>
      </trkpt>
      <trkpt lat="44.00253" lon="7.21894">
        <ele>1694.683</ele>
        <time>2009-05-31T07:05:37Z</time>
      </trkpt>
      <trkpt lat="44.00261" lon="7.21867">
        <ele>1693.474</ele>
        <time>2009-05-31T07:05:43Z</time>
      </trkpt>
      <trkpt lat="44.00255" lon="7.2185">
        <ele>1691.12</ele>
        <time>2009-05-31T07:05:46Z</time>
      </trkpt>
      <trkpt lat="44.00251" lon="7.21839">
        <ele>1688.779</ele>
        <time>2009-05-31T07:05:48Z</time>
      </trkpt>
      <trkpt lat="44.00243" lon="7.21809">
        <ele>1681.508</ele>
        <time>2009-05-31T07:05:54Z</time>
      </trkpt>
      <trkpt lat="44.00243" lon="7.21794">
        <ele>1679.166</ele>
        <time>2009-05-31T07:05:57Z</time>
      </trkpt>
      <trkpt lat="44.00246" lon="7.21785">
        <ele>1675.132</ele>
        <time>2009-05-31T07:06:02Z</time>
      </trkpt>
      <trkpt lat="44.00245" lon="7.21782">
        <ele>1671.482</ele>
        <time>2009-05-31T07:06:20Z</time>
      </trkpt>
      <trkpt lat="44.0023" lon="7.21775">
        <ele>1671.102</ele>
        <time>2009-05-31T07:06:27Z</time>
      </trkpt>
      <trkpt lat="44.00217" lon="7.21773">
        <ele>1671.735</ele>
        <time>2009-05-31T07:06:34Z</time>
      </trkpt>
      <trkpt lat="44.00218" lon="7.21774">
        <ele>1671.935</ele>
        <time>2009-05-31T07:06:35Z</time>
      </trkpt>
      <trkpt lat="44.00213" lon="7.2179">
        <ele>1672.569</ele>
        <time>2009-05-31T07:06:42Z</time>
      </trkpt>
      <trkpt lat="44.00218" lon="7.21811">
        <ele>1672.961</ele>
        <time>2009-05-31T07:06:50Z</time>
      </trkpt>
      <trkpt lat="44.00217" lon="7.21809">
        <ele>1673.081</ele>
        <time>2009-05-31T07:06:57Z</time>
      </trkpt>
      <trkpt lat="44.00214" lon="7.21812">
        <ele>1672.873</ele>
        <time>2009-05-31T07:07:20Z</time>
      </trkpt>
      <trkpt lat="44.00212" lon="7.21822">
        <ele>1672.7</ele>
        <time>2009-05-31T07:07:30Z</time>
      </trkpt>
      <trkpt lat="44.0021" lon="7.21829">
        <ele>1672.715</ele>
        <time>2009-05-31T07:07:45Z</time>
      </trkpt>
      <trkpt lat="44.00207" lon="7.21841">
        <ele>1672.765</ele>
        <time>2009-05-31T07:08:00Z</time>
      </trkpt>
      <trkpt lat="44.002" lon="7.21857">
        <ele>1672.825</ele>
        <time>2009-05-31T07:08:10Z</time>
      </trkpt>
      <trkpt lat="44.00195" lon="7.21874">
        <ele>1672.737</ele>
        <time>2009-05-31T07:08:21Z</time>
      </trkpt>
      <trkpt lat="44.00193" lon="7.2188">
        <ele>1672.617</ele>
        <time>2009-05-31T07:08:29Z</time>
      </trkpt>
      <trkpt lat="44.00186" lon="7.21895">
        <ele>1672.231</ele>
        <time>2009-05-31T07:08:42Z</time>
      </trkpt>
      <trkpt lat="44.00183" lon="7.21913">
        <ele>1672.024</ele>
        <time>2009-05-31T07:08:52Z</time>
      </trkpt>
      <trkpt lat="44.00179" lon="7.21921">
        <ele>1671.706</ele>
        <time>2009-05-31T07:09:03Z</time>
      </trkpt>
      <trkpt lat="44.00179" lon="7.21929">
        <ele>1671.543</ele>
        <time>2009-05-31T07:09:15Z</time>
      </trkpt>
      <trkpt lat="44.00178" lon="7.21943">
        <ele>1671.523</ele>
        <time>2009-05-31T07:09:27Z</time>
      </trkpt>
      <trkpt lat="44.00181" lon="7.21957">
        <ele>1671.424</ele>
        <time>2009-05-31T07:09:35Z</time>
      </trkpt>
      <trkpt lat="44.00182" lon="7.21964">
        <ele>1671.408</ele>
        <time>2009-05-31T07:09:53Z</time>
      </trkpt>
      <trkpt lat="44.00182" lon="7.2198">
        <ele>1671.512</ele>
        <time>2009-05-31T07:10:03Z</time>
      </trkpt>
      <trkpt lat="44.00179" lon="7.21986">
        <ele>1671.179</ele>
        <time>2009-05-31T07:10:15Z</time>
      </trkpt>
      <trkpt lat="44.00182" lon="7.21999">
        <ele>1671.495</ele>
        <time>2009-05-31T07:10:25Z</time>
      </trkpt>
      <trkpt lat="44.00184" lon="7.22007">
        <ele>1673.138</ele>
        <time>2009-05-31T07:10:36Z</time>
      </trkpt>
      <trkpt lat="44.00187" lon="7.22013">
        <ele>1673.947</ele>
        <time>2009-05-31T07:10:46Z</time>
      </trkpt>
      <trkpt lat="44.00184" lon="7.22025">
        <ele>1674.47</ele>
        <time>2009-05-31T07:10:57Z</time>
      </trkpt>
      <trkpt lat="44.00184" lon="7.22029">
        <ele>1674.696</ele>
        <time>2009-05-31T07:11:07Z</time>
      </trkpt>
      <trkpt lat="44.00179" lon="7.22038">
        <ele>1675.07</ele>
        <time>2009-05-31T07:11:19Z</time>
      </trkpt>
      <trkpt lat="44.00179" lon="7.2205">
        <ele>1675.582</ele>
        <time>2009-05-31T07:11:29Z</time>
      </trkpt>
      <trkpt lat="44.0018" lon="7.2206">
        <ele>1676.035</ele>
        <time>2009-05-31T07:11:38Z</time>
      </trkpt>
      <trkpt lat="44.00179" lon="7.22066">
        <ele>1676.518</ele>
        <time>2009-05-31T07:11:47Z</time>
      </trkpt>
      <trkpt lat="44.00175" lon="7.22073">
        <ele>1676.848</ele>
        <time>2009-05-31T07:12:00Z</time>
      </trkpt>
      <trkpt lat="44.00171" lon="7.22084">
        <ele>1677.264</ele>
        <time>2009-05-31T07:12:12Z</time>
      </trkpt>
      <trkpt lat="44.00168" lon="7.22086">
        <ele>1677.441</ele>
        <time>2009-05-31T07:12:24Z</time>
      </trkpt>
      <trkpt lat="44.00167" lon="7.221">
        <ele>1677.593</ele>
        <time>2009-05-31T07:12:38Z</time>
      </trkpt>
      <trkpt lat="44.00167" lon="7.22129">
        <ele>1678.007</ele>
        <time>2009-05-31T07:12:58Z</time>
      </trkpt>
      <trkpt lat="44.00168" lon="7.22137">
        <ele>1678.25</ele>
        <time>2009-05-31T07:13:10Z</time>
      </trkpt>
      <trkpt lat="44.00173" lon="7.22157">
        <ele>1678.635</ele>
        <time>2009-05-31T07:13:28Z</time>
      </trkpt>
      <trkpt lat="44.00172" lon="7.22163">
        <ele>1678.925</ele>
        <time>2009-05-31T07:13:38Z</time>
      </trkpt>
      <trkpt lat="44.00174" lon="7.22182">
        <ele>1679.341</ele>
        <time>2009-05-31T07:13:52Z</time>
      </trkpt>
      <trkpt lat="44.00171" lon="7.22189">
        <ele>1679.697</ele>
        <time>2009-05-31T07:14:03Z</time>
      </trkpt>
      <trkpt lat="44.00174" lon="7.22202">
        <ele>1680.013</ele>
        <time>2009-05-31T07:14:19Z</time>
      </trkpt>
      <trkpt lat="44.00177" lon="7.22179">
        <ele>1680.052</ele>
        <time>2009-05-31T07:14:54Z</time>
      </trkpt>
      <trkpt lat="44.0018" lon="7.22184">
        <ele>1680.236</ele>
        <time>2009-05-31T07:15:09Z</time>
      </trkpt>
      <trkpt lat="44.00188" lon="7.22192">
        <ele>1680.292</ele>
        <time>2009-05-31T07:15:19Z</time>
      </trkpt>
      <trkpt lat="44.00194" lon="7.22204">
        <ele>1680.77</ele>
        <time>2009-05-31T07:15:31Z</time>
      </trkpt>
      <trkpt lat="44.00195" lon="7.22213">
        <ele>1681.431</ele>
        <time>2009-05-31T07:15:40Z</time>
      </trkpt>
      <trkpt lat="44.00191" lon="7.22225">
        <ele>1681.937</ele>
        <time>2009-05-31T07:15:51Z</time>
      </trkpt>
      <trkpt lat="44.00189" lon="7.22233">
        <ele>1681.911</ele>
        <time>2009-05-31T07:15:55Z</time>
      </trkpt>
      <trkpt lat="44.00182" lon="7.22241">
        <ele>1682.473</ele>
        <time>2009-05-31T07:16:04Z</time>
      </trkpt>
      <trkpt lat="44.00174" lon="7.22255">
        <ele>1684.254</ele>
        <time>2009-05-31T07:16:13Z</time>
      </trkpt>
      <trkpt lat="44.00174" lon="7.22274">
        <ele>1686.701</ele>
        <time>2009-05-31T07:16:21Z</time>
      </trkpt>
      <trkpt lat="44.00176" lon="7.22288">
        <ele>1688.666</ele>
        <time>2009-05-31T07:16:29Z</time>
      </trkpt>
      <trkpt lat="44.00175" lon="7.22293">
        <ele>1689.229</ele>
        <time>2009-05-31T07:16:31Z</time>
      </trkpt>
      <trkpt lat="44.00173" lon="7.22296">
        <ele>1689.852</ele>
        <time>2009-05-31T07:16:34Z</time>
      </trkpt>
      <trkpt lat="44.00171" lon="7.22302">
        <ele>1690.311</ele>
        <time>2009-05-31T07:16:37Z</time>
      </trkpt>
      <trkpt lat="44.00169" lon="7.22318">
        <ele>1692.645</ele>
        <time>2009-05-31T07:16:46Z</time>
      </trkpt>
      <trkpt lat="44.00158" lon="7.22326">
        <ele>1696.553</ele>
        <time>2009-05-31T07:16:53Z</time>
      </trkpt>
      <trkpt lat="44.00153" lon="7.2233">
        <ele>1699.421</ele>
        <time>2009-05-31T07:16:57Z</time>
      </trkpt>
      <trkpt lat="44.00155" lon="7.22341">
        <ele>1702.915</ele>
        <time>2009-05-31T07:17:04Z</time>
      </trkpt>
      <trkpt lat="44.00157" lon="7.22348">
        <ele>1705.107</ele>
        <time>2009-05-31T07:17:08Z</time>
      </trkpt>
      <trkpt lat="44.00158" lon="7.22364">
        <ele>1709.308</ele>
        <time>2009-05-31T07:17:17Z</time>
      </trkpt>
      <trkpt lat="44.00158" lon="7.22378">
        <ele>1712.221</ele>
        <time>2009-05-31T07:17:25Z</time>
      </trkpt>
      <trkpt lat="44.00157" lon="7.22385">
        <ele>1713.131</ele>
        <time>2009-05-31T07:17:28Z</time>
      </trkpt>
      <trkpt lat="44.00159" lon="7.22389">
        <ele>1715.688</ele>
        <time>2009-05-31T07:17:35Z</time>
      </trkpt>
      <trkpt lat="44.0016" lon="7.22397">
        <ele>1716.103</ele>
        <time>2009-05-31T07:17:47Z</time>
      </trkpt>
      <trkpt lat="44.00163" lon="7.22402">
        <ele>1716.373</ele>
        <time>2009-05-31T07:18:00Z</time>
      </trkpt>
      <trkpt lat="44.00164" lon="7.22412">
        <ele>1717.067</ele>
        <time>2009-05-31T07:18:09Z</time>
      </trkpt>
      <trkpt lat="44.00165" lon="7.22419">
        <ele>1717.739</ele>
        <time>2009-05-31T07:18:17Z</time>
      </trkpt>
      <trkpt lat="44.00162" lon="7.22422">
        <ele>1719.13</ele>
        <time>2009-05-31T07:18:29Z</time>
      </trkpt>
      <trkpt lat="44.0016" lon="7.22426">
        <ele>1719.771</ele>
        <time>2009-05-31T07:18:32Z</time>
      </trkpt>
      <trkpt lat="44.00159" lon="7.22431">
        <ele>1720.115</ele>
        <time>2009-05-31T07:18:35Z</time>
      </trkpt>
      <trkpt lat="44.00155" lon="7.22438">
        <ele>1721.129</ele>
        <time>2009-05-31T07:18:42Z</time>
      </trkpt>
      <trkpt lat="44.00153" lon="7.22441">
        <ele>1721.404</ele>
        <time>2009-05-31T07:18:46Z</time>
      </trkpt>
      <trkpt lat="44.00147" lon="7.22442">
        <ele>1723.127</ele>
        <time>2009-05-31T07:18:55Z</time>
      </trkpt>
      <trkpt lat="44.00146" lon="7.22449">
        <ele>1724.156</ele>
        <time>2009-05-31T07:19:02Z</time>
      </trkpt>
      <trkpt lat="44.00147" lon="7.22461">
        <ele>1725.499</ele>
        <time>2009-05-31T07:19:15Z</time>
      </trkpt>
      <trkpt lat="44.0015" lon="7.22475">
        <ele>1727.065</ele>
        <time>2009-05-31T07:19:27Z</time>
      </trkpt>
      <trkpt lat="44.0015" lon="7.22481">
        <ele>1728.548</ele>
        <time>2009-05-31T07:19:37Z</time>
      </trkpt>
      <trkpt lat="44.00139" lon="7.22487">
        <ele>1730.525</ele>
        <time>2009-05-31T07:19:45Z</time>
      </trkpt>
      <trkpt lat="44.00138" lon="7.2249">
        <ele>1730.908</ele>
        <time>2009-05-31T07:19:46Z</time>
      </trkpt>
      <trkpt lat="44.00137" lon="7.225">
        <ele>1731.049</ele>
        <time>2009-05-31T07:19:54Z</time>
      </trkpt>
      <trkpt lat="44.00137" lon="7.22502">
        <ele>1731.179</ele>
        <time>2009-05-31T07:20:01Z</time>
      </trkpt>
      <trkpt lat="44.00136" lon="7.22517">
        <ele>1731.223</ele>
        <time>2009-05-31T07:20:09Z</time>
      </trkpt>
      <trkpt lat="44.00137" lon="7.22529">
        <ele>1731.672</ele>
        <time>2009-05-31T07:20:13Z</time>
      </trkpt>
      <trkpt lat="44.0014" lon="7.22547">
        <ele>1734.558</ele>
        <time>2009-05-31T07:20:21Z</time>
      </trkpt>
      <trkpt lat="44.00139" lon="7.2256">
        <ele>1735.742</ele>
        <time>2009-05-31T07:20:27Z</time>
      </trkpt>
      <trkpt lat="44.00139" lon="7.22576">
        <ele>1737.733</ele>
        <time>2009-05-31T07:20:34Z</time>
      </trkpt>
      <trkpt lat="44.00134" lon="7.22604">
        <ele>1737.706</ele>
        <time>2009-05-31T07:20:40Z</time>
      </trkpt>
      <trkpt lat="44.00134" lon="7.2261">
        <ele>1737.444</ele>
        <time>2009-05-31T07:20:41Z</time>
      </trkpt>
      <trkpt lat="44.00126" lon="7.22632">
        <ele>1736.087</ele>
        <time>2009-05-31T07:20:45Z</time>
      </trkpt>
      <trkpt lat="44.0012" lon="7.22641">
        <ele>1735.387</ele>
        <time>2009-05-31T07:20:47Z</time>
      </trkpt>
      <trkpt lat="44.00108" lon="7.22658">
        <ele>1734.385</ele>
        <time>2009-05-31T07:20:51Z</time>
      </trkpt>
      <trkpt lat="44.00092" lon="7.22692">
        <ele>1732.804</ele>
        <time>2009-05-31T07:20:58Z</time>
      </trkpt>
      <trkpt lat="44.00087" lon="7.22725">
        <ele>1731.436</ele>
        <time>2009-05-31T07:21:05Z</time>
      </trkpt>
      <trkpt lat="44.00077" lon="7.22742">
        <ele>1731.855</ele>
        <time>2009-05-31T07:21:11Z</time>
      </trkpt>
      <trkpt lat="44.00059" lon="7.22757">
        <ele>1735.151</ele>
        <time>2009-05-31T07:21:17Z</time>
      </trkpt>
      <trkpt lat="44.00053" lon="7.22764">
        <ele>1735.351</ele>
        <time>2009-05-31T07:21:19Z</time>
      </trkpt>
      <trkpt lat="44.00051" lon="7.22788">
        <ele>1735.975</ele>
        <time>2009-05-31T07:21:24Z</time>
      </trkpt>
      <trkpt lat="44.00054" lon="7.22825">
        <ele>1737.041</ele>
        <time>2009-05-31T07:21:32Z</time>
      </trkpt>
      <trkpt lat="44.00062" lon="7.22868">
        <ele>1737.654</ele>
        <time>2009-05-31T07:21:41Z</time>
      </trkpt>
      <trkpt lat="44.00063" lon="7.22898">
        <ele>1737.15</ele>
        <time>2009-05-31T07:21:48Z</time>
      </trkpt>
      <trkpt lat="44.00067" lon="7.22923">
        <ele>1739.545</ele>
        <time>2009-05-31T07:21:54Z</time>
      </trkpt>
      <trkpt lat="44.00064" lon="7.22943">
        <ele>1739.248</ele>
        <time>2009-05-31T07:22:00Z</time>
      </trkpt>
      <trkpt lat="44.00062" lon="7.22945">
        <ele>1740.43</ele>
        <time>2009-05-31T07:22:01Z</time>
      </trkpt>
      <trkpt lat="44.00059" lon="7.22938">
        <ele>1742.399</ele>
        <time>2009-05-31T07:22:06Z</time>
      </trkpt>
      <trkpt lat="44.00065" lon="7.22931">
        <ele>1743.476</ele>
        <time>2009-05-31T07:22:11Z</time>
      </trkpt>
      <trkpt lat="44.00066" lon="7.22926">
        <ele>1742.286</ele>
        <time>2009-05-31T07:22:16Z</time>
      </trkpt>
      <trkpt lat="44.00066" lon="7.2293">
        <ele>1741.861</ele>
        <time>2009-05-31T07:22:25Z</time>
      </trkpt>
      <trkpt lat="44.00063" lon="7.22938">
        <ele>1742.174</ele>
        <time>2009-05-31T07:22:29Z</time>
      </trkpt>
      <trkpt lat="44.00052" lon="7.22955">
        <ele>1744.445</ele>
        <time>2009-05-31T07:22:36Z</time>
      </trkpt>
      <trkpt lat="44.00033" lon="7.22975">
        <ele>1747.198</ele>
        <time>2009-05-31T07:22:42Z</time>
      </trkpt>
      <trkpt lat="44.00023" lon="7.22986">
        <ele>1747.754</ele>
        <time>2009-05-31T07:22:45Z</time>
      </trkpt>
      <trkpt lat="44" lon="7.23006">
        <ele>1750.877</ele>
        <time>2009-05-31T07:22:52Z</time>
      </trkpt>
      <trkpt lat="43.99986" lon="7.23018">
        <ele>1752.789</ele>
        <time>2009-05-31T07:22:56Z</time>
      </trkpt>
      <trkpt lat="43.99974" lon="7.23031">
        <ele>1753.91</ele>
        <time>2009-05-31T07:22:59Z</time>
      </trkpt>
      <trkpt lat="43.99963" lon="7.23045">
        <ele>1755.476</ele>
        <time>2009-05-31T07:23:02Z</time>
      </trkpt>
      <trkpt lat="43.9994" lon="7.23077">
        <ele>1757.46</ele>
        <time>2009-05-31T07:23:07Z</time>
      </trkpt>
      <trkpt lat="43.99911" lon="7.23109">
        <ele>1758.428</ele>
        <time>2009-05-31T07:23:12Z</time>
      </trkpt>
      <trkpt lat="43.99864" lon="7.23136">
        <ele>1757.631</ele>
        <time>2009-05-31T07:23:18Z</time>
      </trkpt>
      <trkpt lat="43.99857" lon="7.23138">
        <ele>1757.262</ele>
        <time>2009-05-31T07:23:19Z</time>
      </trkpt>
      <trkpt lat="43.9984" lon="7.23168">
        <ele>1756.384</ele>
        <time>2009-05-31T07:23:23Z</time>
      </trkpt>
      <trkpt lat="43.9984" lon="7.23196">
        <ele>1754.226</ele>
        <time>2009-05-31T07:23:26Z</time>
      </trkpt>
      <trkpt lat="43.99856" lon="7.23283">
        <ele>1741.39</ele>
        <time>2009-05-31T07:23:34Z</time>
      </trkpt>
      <trkpt lat="43.9987" lon="7.23349">
        <ele>1735.344</ele>
        <time>2009-05-31T07:23:40Z</time>
      </trkpt>
      <trkpt lat="43.99879" lon="7.23381">
        <ele>1731.406</ele>
        <time>2009-05-31T07:23:43Z</time>
      </trkpt>
      <trkpt lat="43.99883" lon="7.23401">
        <ele>1728.971</ele>
        <time>2009-05-31T07:23:45Z</time>
      </trkpt>
      <trkpt lat="43.99887" lon="7.23461">
        <ele>1723.794</ele>
        <time>2009-05-31T07:23:50Z</time>
      </trkpt>
      <trkpt lat="43.9988" lon="7.23514">
        <ele>1719.572</ele>
        <time>2009-05-31T07:23:55Z</time>
      </trkpt>
      <trkpt lat="43.99867" lon="7.23584">
        <ele>1715.729</ele>
        <time>2009-05-31T07:24:01Z</time>
      </trkpt>
      <trkpt lat="43.99862" lon="7.23599">
        <ele>1713.432</ele>
        <time>2009-05-31T07:24:05Z</time>
      </trkpt>
      <trkpt lat="43.99862" lon="7.23612">
        <ele>1707.112</ele>
        <time>2009-05-31T07:28:14Z</time>
      </trkpt>
      <trkpt lat="43.99865" lon="7.23599">
        <ele>1704.337</ele>
        <time>2009-05-31T07:28:29Z</time>
      </trkpt>
      <trkpt lat="43.99862" lon="7.23604">
        <ele>1702.706</ele>
        <time>2009-05-31T07:28:35Z</time>
      </trkpt>
      <trkpt lat="43.9986" lon="7.23609">
        <ele>1702.587</ele>
        <time>2009-05-31T07:28:44Z</time>
      </trkpt>
      <trkpt lat="43.99857" lon="7.23605">
        <ele>1701.593</ele>
        <time>2009-05-31T07:28:51Z</time>
      </trkpt>
      <trkpt lat="43.99851" lon="7.23591">
        <ele>1698.354</ele>
        <time>2009-05-31T07:28:57Z</time>
      </trkpt>
      <trkpt lat="43.99847" lon="7.2358">
        <ele>1696.458</ele>
        <time>2009-05-31T07:29:02Z</time>
      </trkpt>
      <trkpt lat="43.99845" lon="7.23562">
        <ele>1694.047</ele>
        <time>2009-05-31T07:29:08Z</time>
      </trkpt>
      <trkpt lat="43.99844" lon="7.23555">
        <ele>1692.27</ele>
        <time>2009-05-31T07:29:13Z</time>
      </trkpt>
      <trkpt lat="43.99841" lon="7.23552">
        <ele>1691.367</ele>
        <time>2009-05-31T07:29:20Z</time>
      </trkpt>
      <trkpt lat="43.99839" lon="7.23552">
        <ele>1691.211</ele>
        <time>2009-05-31T07:29:22Z</time>
      </trkpt>
      <trkpt lat="43.99824" lon="7.23562">
        <ele>1691.113</ele>
        <time>2009-05-31T07:29:29Z</time>
      </trkpt>
      <trkpt lat="43.9981" lon="7.23566">
        <ele>1691.583</ele>
        <time>2009-05-31T07:29:58Z</time>
      </trkpt>
      <trkpt lat="43.99809" lon="7.23568">
        <ele>1691.552</ele>
        <time>2009-05-31T07:29:59Z</time>
      </trkpt>
      <trkpt lat="43.99796" lon="7.23566">
        <ele>1690.282</ele>
        <time>2009-05-31T07:30:04Z</time>
      </trkpt>
      <trkpt lat="43.99795" lon="7.23546">
        <ele>1687.674</ele>
        <time>2009-05-31T07:30:11Z</time>
      </trkpt>
      <trkpt lat="43.99794" lon="7.23542">
        <ele>1687.292</ele>
        <time>2009-05-31T07:30:19Z</time>
      </trkpt>
      <trkpt lat="43.99794" lon="7.23543">
        <ele>1687.205</ele>
        <time>2009-05-31T07:30:25Z</time>
      </trkpt>
      <trkpt lat="43.99785" lon="7.23549">
        <ele>1687.18</ele>
        <time>2009-05-31T07:30:30Z</time>
      </trkpt>
      <trkpt lat="43.99761" lon="7.23548">
        <ele>1685.05</ele>
        <time>2009-05-31T07:30:35Z</time>
      </trkpt>
      <trkpt lat="43.99752" lon="7.23541">
        <ele>1682.425</ele>
        <time>2009-05-31T07:30:40Z</time>
      </trkpt>
      <trkpt lat="43.99749" lon="7.23538">
        <ele>1681.567</ele>
        <time>2009-05-31T07:30:45Z</time>
      </trkpt>
      <trkpt lat="43.99749" lon="7.23541">
        <ele>1680.06</ele>
        <time>2009-05-31T07:30:57Z</time>
      </trkpt>
      <trkpt lat="43.99745" lon="7.23536">
        <ele>1679.974</ele>
        <time>2009-05-31T07:31:10Z</time>
      </trkpt>
      <trkpt lat="43.99741" lon="7.23532">
        <ele>1679.189</ele>
        <time>2009-05-31T07:31:13Z</time>
      </trkpt>
      <trkpt lat="43.99739" lon="7.23524">
        <ele>1676.594</ele>
        <time>2009-05-31T07:31:19Z</time>
      </trkpt>
      <trkpt lat="43.99739" lon="7.23516">
        <ele>1675.58</ele>
        <time>2009-05-31T07:31:27Z</time>
      </trkpt>
      <trkpt lat="43.99739" lon="7.23516">
        <ele>1675.611</ele>
        <time>2009-05-31T07:31:31Z</time>
      </trkpt>
      <trkpt lat="43.99736" lon="7.23505">
        <ele>1674.528</ele>
        <time>2009-05-31T07:31:36Z</time>
      </trkpt>
      <trkpt lat="43.99733" lon="7.23499">
        <ele>1673.7</ele>
        <time>2009-05-31T07:31:42Z</time>
      </trkpt>
      <trkpt lat="43.99727" lon="7.23496">
        <ele>1672.398</ele>
        <time>2009-05-31T07:31:48Z</time>
      </trkpt>
      <trkpt lat="43.99721" lon="7.23495">
        <ele>1672.102</ele>
        <time>2009-05-31T07:31:50Z</time>
      </trkpt>
      <trkpt lat="43.99712" lon="7.23483">
        <ele>1668.707</ele>
        <time>2009-05-31T07:31:56Z</time>
      </trkpt>
      <trkpt lat="43.99707" lon="7.23481">
        <ele>1666.946</ele>
        <time>2009-05-31T07:31:58Z</time>
      </trkpt>
      <trkpt lat="43.99691" lon="7.23481">
        <ele>1663.787</ele>
        <time>2009-05-31T07:32:03Z</time>
      </trkpt>
      <trkpt lat="43.9969" lon="7.23483">
        <ele>1663.179</ele>
        <time>2009-05-31T07:32:04Z</time>
      </trkpt>
      <trkpt lat="43.99688" lon="7.23483">
        <ele>1658.427</ele>
        <time>2009-05-31T07:32:11Z</time>
      </trkpt>
      <trkpt lat="43.99681" lon="7.23471">
        <ele>1657.139</ele>
        <time>2009-05-31T07:32:30Z</time>
      </trkpt>
      <trkpt lat="43.9968" lon="7.2347">
        <ele>1657.041</ele>
        <time>2009-05-31T07:32:31Z</time>
      </trkpt>
      <trkpt lat="43.99676" lon="7.23464">
        <ele>1656.144</ele>
        <time>2009-05-31T07:32:38Z</time>
      </trkpt>
      <trkpt lat="43.99676" lon="7.23464">
        <ele>1656.052</ele>
        <time>2009-05-31T07:32:39Z</time>
      </trkpt>
      <trkpt lat="43.99663" lon="7.23473">
        <ele>1655.449</ele>
        <time>2009-05-31T07:32:45Z</time>
      </trkpt>
      <trkpt lat="43.99654" lon="7.23473">
        <ele>1654.817</ele>
        <time>2009-05-31T07:32:49Z</time>
      </trkpt>
      <trkpt lat="43.99641" lon="7.23467">
        <ele>1653.465</ele>
        <time>2009-05-31T07:32:56Z</time>
      </trkpt>
      <trkpt lat="43.99641" lon="7.23466">
        <ele>1653.147</ele>
        <time>2009-05-31T07:32:58Z</time>
      </trkpt>
      <trkpt lat="43.99638" lon="7.23454">
        <ele>1649.788</ele>
        <time>2009-05-31T07:33:04Z</time>
      </trkpt>
      <trkpt lat="43.99635" lon="7.23454">
        <ele>1648.604</ele>
        <time>2009-05-31T07:33:06Z</time>
      </trkpt>
      <trkpt lat="43.99629" lon="7.23457">
        <ele>1647.6</ele>
        <time>2009-05-31T07:33:10Z</time>
      </trkpt>
      <trkpt lat="43.99619" lon="7.23439">
        <ele>1642.301</ele>
        <time>2009-05-31T07:33:16Z</time>
      </trkpt>
      <trkpt lat="43.99619" lon="7.2344">
        <ele>1638.957</ele>
        <time>2009-05-31T07:33:19Z</time>
      </trkpt>
      <trkpt lat="43.99607" lon="7.23437">
        <ele>1636.278</ele>
        <time>2009-05-31T07:33:24Z</time>
      </trkpt>
      <trkpt lat="43.99598" lon="7.23439">
        <ele>1634.865</ele>
        <time>2009-05-31T07:33:26Z</time>
      </trkpt>
      <trkpt lat="43.99563" lon="7.23437">
        <ele>1625.136</ele>
        <time>2009-05-31T07:33:31Z</time>
      </trkpt>
      <trkpt lat="43.99552" lon="7.23429">
        <ele>1618.904</ele>
        <time>2009-05-31T07:33:34Z</time>
      </trkpt>
      <trkpt lat="43.9955" lon="7.23415">
        <ele>1611.308</ele>
        <time>2009-05-31T07:33:39Z</time>
      </trkpt>
      <trkpt lat="43.99554" lon="7.23397">
        <ele>1605.217</ele>
        <time>2009-05-31T07:33:43Z</time>
      </trkpt>
      <trkpt lat="43.99535" lon="7.23377">
        <ele>1598.85</ele>
        <time>2009-05-31T07:33:47Z</time>
      </trkpt>
      <trkpt lat="43.99486" lon="7.23355">
        <ele>1592.296</ele>
        <time>2009-05-31T07:33:53Z</time>
      </trkpt>
      <trkpt lat="43.9948" lon="7.23351">
        <ele>1591.281</ele>
        <time>2009-05-31T07:33:54Z</time>
      </trkpt>
      <trkpt lat="43.99465" lon="7.23337">
        <ele>1587.243</ele>
        <time>2009-05-31T07:33:59Z</time>
      </trkpt>
      <trkpt lat="43.9945" lon="7.23319">
        <ele>1581.859</ele>
        <time>2009-05-31T07:34:05Z</time>
      </trkpt>
      <trkpt lat="43.99437" lon="7.23316">
        <ele>1577.524</ele>
        <time>2009-05-31T07:34:09Z</time>
      </trkpt>
      <trkpt lat="43.99426" lon="7.23313">
        <ele>1575.055</ele>
        <time>2009-05-31T07:34:11Z</time>
      </trkpt>
      <trkpt lat="43.99407" lon="7.23296">
        <ele>1568.757</ele>
        <time>2009-05-31T07:34:16Z</time>
      </trkpt>
      <trkpt lat="43.99398" lon="7.23287">
        <ele>1563.899</ele>
        <time>2009-05-31T07:34:21Z</time>
      </trkpt>
      <trkpt lat="43.99375" lon="7.23279">
        <ele>1557.918</ele>
        <time>2009-05-31T07:35:00Z</time>
      </trkpt>
      <trkpt lat="43.99362" lon="7.23266">
        <ele>1556.329</ele>
        <time>2009-05-31T07:35:04Z</time>
      </trkpt>
      <trkpt lat="43.99355" lon="7.23259">
        <ele>1554.915</ele>
        <time>2009-05-31T07:35:06Z</time>
      </trkpt>
      <trkpt lat="43.99339" lon="7.23238">
        <ele>1552.456</ele>
        <time>2009-05-31T07:35:09Z</time>
      </trkpt>
      <trkpt lat="43.99317" lon="7.23218">
        <ele>1548.808</ele>
        <time>2009-05-31T07:35:14Z</time>
      </trkpt>
      <trkpt lat="43.993" lon="7.23209">
        <ele>1544.148</ele>
        <time>2009-05-31T07:35:20Z</time>
      </trkpt>
      <trkpt lat="43.99288" lon="7.23201">
        <ele>1540.337</ele>
        <time>2009-05-31T07:35:24Z</time>
      </trkpt>
      <trkpt lat="43.9928" lon="7.23199">
        <ele>1538.071</ele>
        <time>2009-05-31T07:35:29Z</time>
      </trkpt>
      <trkpt lat="43.99269" lon="7.23193">
        <ele>1534.328</ele>
        <time>2009-05-31T07:35:54Z</time>
      </trkpt>
      <trkpt lat="43.99264" lon="7.23195">
        <ele>1534.088</ele>
        <time>2009-05-31T07:35:58Z</time>
      </trkpt>
      <trkpt lat="43.99256" lon="7.23193">
        <ele>1532.829</ele>
        <time>2009-05-31T07:36:02Z</time>
      </trkpt>
      <trkpt lat="43.99237" lon="7.23188">
        <ele>1522.152</ele>
        <time>2009-05-31T07:36:09Z</time>
      </trkpt>
      <trkpt lat="43.99214" lon="7.23178">
        <ele>1520.001</ele>
        <time>2009-05-31T07:36:14Z</time>
      </trkpt>
      <trkpt lat="43.99201" lon="7.23172">
        <ele>1519.159</ele>
        <time>2009-05-31T07:36:16Z</time>
      </trkpt>
      <trkpt lat="43.99187" lon="7.23165">
        <ele>1518.137</ele>
        <time>2009-05-31T07:36:21Z</time>
      </trkpt>
      <trkpt lat="43.99169" lon="7.23173">
        <ele>1517.128</ele>
        <time>2009-05-31T07:36:48Z</time>
      </trkpt>
      <trkpt lat="43.99153" lon="7.23178">
        <ele>1517.338</ele>
        <time>2009-05-31T07:36:52Z</time>
      </trkpt>
      <trkpt lat="43.9913" lon="7.23183">
        <ele>1516.107</ele>
        <time>2009-05-31T07:36:56Z</time>
      </trkpt>
      <trkpt lat="43.99118" lon="7.23185">
        <ele>1515.724</ele>
        <time>2009-05-31T07:37:00Z</time>
      </trkpt>
      <trkpt lat="43.99112" lon="7.23184">
        <ele>1515.21</ele>
        <time>2009-05-31T07:37:03Z</time>
      </trkpt>
      <trkpt lat="43.99081" lon="7.23187">
        <ele>1510.569</ele>
        <time>2009-05-31T07:37:09Z</time>
      </trkpt>
      <trkpt lat="43.99061" lon="7.23191">
        <ele>1507.387</ele>
        <time>2009-05-31T07:37:17Z</time>
      </trkpt>
      <trkpt lat="43.99057" lon="7.23191">
        <ele>1506.047</ele>
        <time>2009-05-31T07:37:19Z</time>
      </trkpt>
      <trkpt lat="43.99045" lon="7.23181">
        <ele>1504.692</ele>
        <time>2009-05-31T07:37:25Z</time>
      </trkpt>
      <trkpt lat="43.99039" lon="7.23174">
        <ele>1503.132</ele>
        <time>2009-05-31T07:37:28Z</time>
      </trkpt>
      <trkpt lat="43.99035" lon="7.23165">
        <ele>1495.526</ele>
        <time>2009-05-31T07:37:35Z</time>
      </trkpt>
      <trkpt lat="43.9903" lon="7.23158">
        <ele>1490.859</ele>
        <time>2009-05-31T07:37:40Z</time>
      </trkpt>
      <trkpt lat="43.99027" lon="7.23158">
        <ele>1488.25</ele>
        <time>2009-05-31T07:37:44Z</time>
      </trkpt>
      <trkpt lat="43.9902" lon="7.23158">
        <ele>1482.195</ele>
        <time>2009-05-31T07:37:52Z</time>
      </trkpt>
      <trkpt lat="43.99018" lon="7.23156">
        <ele>1480.592</ele>
        <time>2009-05-31T07:38:08Z</time>
      </trkpt>
      <trkpt lat="43.99016" lon="7.23148">
        <ele>1479.804</ele>
        <time>2009-05-31T07:38:14Z</time>
      </trkpt>
      <trkpt lat="43.99017" lon="7.2314">
        <ele>1477.82</ele>
        <time>2009-05-31T07:38:19Z</time>
      </trkpt>
      <trkpt lat="43.99014" lon="7.23136">
        <ele>1477.313</ele>
        <time>2009-05-31T07:38:32Z</time>
      </trkpt>
      <trkpt lat="43.99014" lon="7.23133">
        <ele>1477.319</ele>
        <time>2009-05-31T07:38:39Z</time>
      </trkpt>
      <trkpt lat="43.99008" lon="7.23133">
        <ele>1477.437</ele>
        <time>2009-05-31T07:38:44Z</time>
      </trkpt>
      <trkpt lat="43.98994" lon="7.23126">
        <ele>1477.018</ele>
        <time>2009-05-31T07:38:49Z</time>
      </trkpt>
      <trkpt lat="43.9897" lon="7.23129">
        <ele>1476.37</ele>
        <time>2009-05-31T07:38:54Z</time>
      </trkpt>
      <trkpt lat="43.98958" lon="7.23128">
        <ele>1475.475</ele>
        <time>2009-05-31T07:38:59Z</time>
      </trkpt>
      <trkpt lat="43.98954" lon="7.23131">
        <ele>1474.659</ele>
        <time>2009-05-31T07:39:10Z</time>
      </trkpt>
      <trkpt lat="43.98941" lon="7.23133">
        <ele>1473.009</ele>
        <time>2009-05-31T07:39:21Z</time>
      </trkpt>
      <trkpt lat="43.98917" lon="7.23139">
        <ele>1467.808</ele>
        <time>2009-05-31T07:39:28Z</time>
      </trkpt>
      <trkpt lat="43.98906" lon="7.23144">
        <ele>1466.454</ele>
        <time>2009-05-31T07:39:35Z</time>
      </trkpt>
      <trkpt lat="43.98894" lon="7.23147">
        <ele>1465.322</ele>
        <time>2009-05-31T07:39:40Z</time>
      </trkpt>
      <trkpt lat="43.98883" lon="7.23138">
        <ele>1463.4</ele>
        <time>2009-05-31T07:39:43Z</time>
      </trkpt>
      <trkpt lat="43.98862" lon="7.23146">
        <ele>1452.717</ele>
        <time>2009-05-31T07:39:48Z</time>
      </trkpt>
      <trkpt lat="43.98857" lon="7.23149">
        <ele>1448.583</ele>
        <time>2009-05-31T07:39:50Z</time>
      </trkpt>
      <trkpt lat="43.98846" lon="7.23153">
        <ele>1441.047</ele>
        <time>2009-05-31T07:39:57Z</time>
      </trkpt>
      <trkpt lat="43.98841" lon="7.23154">
        <ele>1434.088</ele>
        <time>2009-05-31T07:40:02Z</time>
      </trkpt>
      <trkpt lat="43.98839" lon="7.23143">
        <ele>1428.047</ele>
        <time>2009-05-31T07:40:08Z</time>
      </trkpt>
      <trkpt lat="43.98836" lon="7.23142">
        <ele>1426.978</ele>
        <time>2009-05-31T07:40:10Z</time>
      </trkpt>
      <trkpt lat="43.98825" lon="7.23151">
        <ele>1423.989</ele>
        <time>2009-05-31T07:40:17Z</time>
      </trkpt>
      <trkpt lat="43.9881" lon="7.23164">
        <ele>1420.065</ele>
        <time>2009-05-31T07:40:24Z</time>
      </trkpt>
      <trkpt lat="43.98807" lon="7.2316">
        <ele>1416.911</ele>
        <time>2009-05-31T07:40:29Z</time>
      </trkpt>
      <trkpt lat="43.98808" lon="7.23158">
        <ele>1416.066</ele>
        <time>2009-05-31T07:40:31Z</time>
      </trkpt>
      <trkpt lat="43.98796" lon="7.23157">
        <ele>1411.486</ele>
        <time>2009-05-31T07:40:38Z</time>
      </trkpt>
      <trkpt lat="43.98789" lon="7.23152">
        <ele>1410.684</ele>
        <time>2009-05-31T07:41:24Z</time>
      </trkpt>
      <trkpt lat="43.98784" lon="7.23151">
        <ele>1409.064</ele>
        <time>2009-05-31T07:41:37Z</time>
      </trkpt>
      <trkpt lat="43.98784" lon="7.2315">
        <ele>1408.934</ele>
        <time>2009-05-31T07:41:47Z</time>
      </trkpt>
      <trkpt lat="43.98785" lon="7.23145">
        <ele>1408.865</ele>
        <time>2009-05-31T07:41:57Z</time>
      </trkpt>
      <trkpt lat="43.9878" lon="7.23135">
        <ele>1408.854</ele>
        <time>2009-05-31T07:42:02Z</time>
      </trkpt>
      <trkpt lat="43.98773" lon="7.23132">
        <ele>1408.624</ele>
        <time>2009-05-31T07:42:09Z</time>
      </trkpt>
      <trkpt lat="43.98768" lon="7.23137">
        <ele>1407.728</ele>
        <time>2009-05-31T07:42:18Z</time>
      </trkpt>
      <trkpt lat="43.98761" lon="7.23138">
        <ele>1405.643</ele>
        <time>2009-05-31T07:42:35Z</time>
      </trkpt>
      <trkpt lat="43.9875" lon="7.23147">
        <ele>1402.986</ele>
        <time>2009-05-31T07:42:41Z</time>
      </trkpt>
      <trkpt lat="43.98735" lon="7.23157">
        <ele>1402.049</ele>
        <time>2009-05-31T07:42:46Z</time>
      </trkpt>
      <trkpt lat="43.98721" lon="7.23165">
        <ele>1399.374</ele>
        <time>2009-05-31T07:42:51Z</time>
      </trkpt>
      <trkpt lat="43.9871" lon="7.23175">
        <ele>1397.039</ele>
        <time>2009-05-31T07:42:56Z</time>
      </trkpt>
      <trkpt lat="43.98701" lon="7.23184">
        <ele>1395.202</ele>
        <time>2009-05-31T07:43:01Z</time>
      </trkpt>
      <trkpt lat="43.98694" lon="7.23189">
        <ele>1392.399</ele>
        <time>2009-05-31T07:43:02Z</time>
      </trkpt>
      <trkpt lat="43.98657" lon="7.23203">
        <ele>1389.116</ele>
        <time>2009-05-31T07:43:08Z</time>
      </trkpt>
      <trkpt lat="43.98627" lon="7.23219">
        <ele>1386.756</ele>
        <time>2009-05-31T07:43:14Z</time>
      </trkpt>
      <trkpt lat="43.98606" lon="7.2323">
        <ele>1383.323</ele>
        <time>2009-05-31T07:43:20Z</time>
      </trkpt>
      <trkpt lat="43.98592" lon="7.23234">
        <ele>1380.541</ele>
        <time>2009-05-31T07:43:25Z</time>
      </trkpt>
      <trkpt lat="43.98585" lon="7.23237">
        <ele>1376.932</ele>
        <time>2009-05-31T07:43:30Z</time>
      </trkpt>
      <trkpt lat="43.98582" lon="7.23239">
        <ele>1376.97</ele>
        <time>2009-05-31T07:43:48Z</time>
      </trkpt>
      <trkpt lat="43.98573" lon="7.2325">
        <ele>1377.128</ele>
        <time>2009-05-31T07:43:52Z</time>
      </trkpt>
      <trkpt lat="43.98565" lon="7.23262">
        <ele>1377.91</ele>
        <time>2009-05-31T07:43:58Z</time>
      </trkpt>
      <trkpt lat="43.98562" lon="7.23275">
        <ele>1378.22</ele>
        <time>2009-05-31T07:44:03Z</time>
      </trkpt>
      <trkpt lat="43.98553" lon="7.23301">
        <ele>1379.398</ele>
        <time>2009-05-31T07:44:09Z</time>
      </trkpt>
      <trkpt lat="43.98548" lon="7.23322">
        <ele>1381.148</ele>
        <time>2009-05-31T07:44:15Z</time>
      </trkpt>
      <trkpt lat="43.98535" lon="7.23348">
        <ele>1383.697</ele>
        <time>2009-05-31T07:44:22Z</time>
      </trkpt>
      <trkpt lat="43.98521" lon="7.23358">
        <ele>1387.489</ele>
        <time>2009-05-31T07:44:28Z</time>
      </trkpt>
      <trkpt lat="43.98506" lon="7.23366">
        <ele>1391.091</ele>
        <time>2009-05-31T07:44:35Z</time>
      </trkpt>
      <trkpt lat="43.98498" lon="7.23374">
        <ele>1396.519</ele>
        <time>2009-05-31T07:44:43Z</time>
      </trkpt>
      <trkpt lat="43.98489" lon="7.23383">
        <ele>1401.561</ele>
        <time>2009-05-31T07:44:51Z</time>
      </trkpt>
      <trkpt lat="43.98457" lon="7.23423">
        <ele>1407.967</ele>
        <time>2009-05-31T07:46:17Z</time>
      </trkpt>
      <trkpt lat="43.98448" lon="7.23429">
        <ele>1404.782</ele>
        <time>2009-05-31T07:46:28Z</time>
      </trkpt>
      <trkpt lat="43.98443" lon="7.23433">
        <ele>1404.282</ele>
        <time>2009-05-31T07:46:34Z</time>
      </trkpt>
      <trkpt lat="43.98429" lon="7.23455">
        <ele>1403.654</ele>
        <time>2009-05-31T07:46:49Z</time>
      </trkpt>
      <trkpt lat="43.98422" lon="7.23473">
        <ele>1403.322</ele>
        <time>2009-05-31T07:46:57Z</time>
      </trkpt>
      <trkpt lat="43.98395" lon="7.23485">
        <ele>1397.084</ele>
        <time>2009-05-31T07:47:05Z</time>
      </trkpt>
      <trkpt lat="43.98384" lon="7.2349">
        <ele>1397.404</ele>
        <time>2009-05-31T07:47:10Z</time>
      </trkpt>
      <trkpt lat="43.98373" lon="7.235">
        <ele>1397.48</ele>
        <time>2009-05-31T07:47:16Z</time>
      </trkpt>
      <trkpt lat="43.98355" lon="7.23518">
        <ele>1398.112</ele>
        <time>2009-05-31T07:47:23Z</time>
      </trkpt>
      <trkpt lat="43.98337" lon="7.23533">
        <ele>1397.667</ele>
        <time>2009-05-31T07:47:29Z</time>
      </trkpt>
      <trkpt lat="43.9832" lon="7.23546">
        <ele>1399.671</ele>
        <time>2009-05-31T07:47:36Z</time>
      </trkpt>
      <trkpt lat="43.98293" lon="7.23554">
        <ele>1390.618</ele>
        <time>2009-05-31T07:47:41Z</time>
      </trkpt>
      <trkpt lat="43.98289" lon="7.23556">
        <ele>1389.406</ele>
        <time>2009-05-31T07:47:42Z</time>
      </trkpt>
      <trkpt lat="43.9826" lon="7.23565">
        <ele>1386.527</ele>
        <time>2009-05-31T07:47:49Z</time>
      </trkpt>
      <trkpt lat="43.98246" lon="7.2358">
        <ele>1388.776</ele>
        <time>2009-05-31T07:47:54Z</time>
      </trkpt>
      <trkpt lat="43.98227" lon="7.23588">
        <ele>1388.085</ele>
        <time>2009-05-31T07:48:00Z</time>
      </trkpt>
      <trkpt lat="43.98219" lon="7.23595">
        <ele>1390.726</ele>
        <time>2009-05-31T07:48:05Z</time>
      </trkpt>
      <trkpt lat="43.98207" lon="7.23602">
        <ele>1389.603</ele>
        <time>2009-05-31T07:48:10Z</time>
      </trkpt>
      <trkpt lat="43.98201" lon="7.23604">
        <ele>1390.057</ele>
        <time>2009-05-31T07:48:14Z</time>
      </trkpt>
      <trkpt lat="43.98193" lon="7.23603">
        <ele>1388.776</ele>
        <time>2009-05-31T07:48:18Z</time>
      </trkpt>
      <trkpt lat="43.98182" lon="7.23596">
        <ele>1389.182</ele>
        <time>2009-05-31T07:48:25Z</time>
      </trkpt>
      <trkpt lat="43.98171" lon="7.23585">
        <ele>1388.865</ele>
        <time>2009-05-31T07:48:33Z</time>
      </trkpt>
      <trkpt lat="43.98156" lon="7.23567">
        <ele>1389.072</ele>
        <time>2009-05-31T07:48:41Z</time>
      </trkpt>
      <trkpt lat="43.98138" lon="7.23562">
        <ele>1389.485</ele>
        <time>2009-05-31T07:48:48Z</time>
      </trkpt>
      <trkpt lat="43.98129" lon="7.23558">
        <ele>1391.519</ele>
        <time>2009-05-31T07:48:52Z</time>
      </trkpt>
      <trkpt lat="43.98121" lon="7.23551">
        <ele>1393.588</ele>
        <time>2009-05-31T07:48:56Z</time>
      </trkpt>
      <trkpt lat="43.98102" lon="7.23541">
        <ele>1393.842</ele>
        <time>2009-05-31T07:49:04Z</time>
      </trkpt>
      <trkpt lat="43.98086" lon="7.23525">
        <ele>1391.406</ele>
        <time>2009-05-31T07:49:11Z</time>
      </trkpt>
      <trkpt lat="43.98073" lon="7.23503">
        <ele>1391.112</ele>
        <time>2009-05-31T07:49:18Z</time>
      </trkpt>
      <trkpt lat="43.98064" lon="7.23488">
        <ele>1392.039</ele>
        <time>2009-05-31T07:49:23Z</time>
      </trkpt>
      <trkpt lat="43.98049" lon="7.23478">
        <ele>1393.503</ele>
        <time>2009-05-31T07:49:30Z</time>
      </trkpt>
      <trkpt lat="43.98043" lon="7.23473">
        <ele>1393.567</ele>
        <time>2009-05-31T07:49:33Z</time>
      </trkpt>
      <trkpt lat="43.98024" lon="7.23463">
        <ele>1394.48</ele>
        <time>2009-05-31T07:49:42Z</time>
      </trkpt>
      <trkpt lat="43.98015" lon="7.23453">
        <ele>1398.052</ele>
        <time>2009-05-31T07:49:49Z</time>
      </trkpt>
      <trkpt lat="43.98009" lon="7.23449">
        <ele>1399.435</ele>
        <time>2009-05-31T07:49:53Z</time>
      </trkpt>
      <trkpt lat="43.98004" lon="7.23445">
        <ele>1402.876</ele>
        <time>2009-05-31T07:49:58Z</time>
      </trkpt>
      <trkpt lat="43.97997" lon="7.23443">
        <ele>1404.81</ele>
        <time>2009-05-31T07:50:02Z</time>
      </trkpt>
      <trkpt lat="43.9799" lon="7.23437">
        <ele>1407.521</ele>
        <time>2009-05-31T07:50:07Z</time>
      </trkpt>
      <trkpt lat="43.97977" lon="7.23426">
        <ele>1410.157</ele>
        <time>2009-05-31T07:50:15Z</time>
      </trkpt>
      <trkpt lat="43.97958" lon="7.23427">
        <ele>1408.349</ele>
        <time>2009-05-31T07:50:21Z</time>
      </trkpt>
      <trkpt lat="43.97947" lon="7.23423">
        <ele>1410.577</ele>
        <time>2009-05-31T07:50:28Z</time>
      </trkpt>
      <trkpt lat="43.97938" lon="7.23418">
        <ele>1415.054</ele>
        <time>2009-05-31T07:50:34Z</time>
      </trkpt>
      <trkpt lat="43.97932" lon="7.23419">
        <ele>1416.191</ele>
        <time>2009-05-31T07:50:37Z</time>
      </trkpt>
      <trkpt lat="43.97915" lon="7.23424">
        <ele>1414.65</ele>
        <time>2009-05-31T07:50:44Z</time>
      </trkpt>
      <trkpt lat="43.979" lon="7.23426">
        <ele>1414.692</ele>
        <time>2009-05-31T07:50:51Z</time>
      </trkpt>
      <trkpt lat="43.97897" lon="7.23425">
        <ele>1415.652</ele>
        <time>2009-05-31T07:50:59Z</time>
      </trkpt>
      <trkpt lat="43.97897" lon="7.23426">
        <ele>1415.742</ele>
        <time>2009-05-31T07:51:00Z</time>
      </trkpt>
      <trkpt lat="43.97878" lon="7.23443">
        <ele>1413.945</ele>
        <time>2009-05-31T07:51:09Z</time>
      </trkpt>
      <trkpt lat="43.97857" lon="7.23454">
        <ele>1409.869</ele>
        <time>2009-05-31T07:51:17Z</time>
      </trkpt>
      <trkpt lat="43.97846" lon="7.23463">
        <ele>1409.604</ele>
        <time>2009-05-31T07:51:24Z</time>
      </trkpt>
      <trkpt lat="43.97829" lon="7.23475">
        <ele>1406.189</ele>
        <time>2009-05-31T07:51:31Z</time>
      </trkpt>
      <trkpt lat="43.97815" lon="7.2348">
        <ele>1403.966</ele>
        <time>2009-05-31T07:51:36Z</time>
      </trkpt>
      <trkpt lat="43.97799" lon="7.23484">
        <ele>1400.013</ele>
        <time>2009-05-31T07:51:41Z</time>
      </trkpt>
      <trkpt lat="43.9779" lon="7.23485">
        <ele>1400.115</ele>
        <time>2009-05-31T07:51:46Z</time>
      </trkpt>
      <trkpt lat="43.97783" lon="7.23493">
        <ele>1402.945</ele>
        <time>2009-05-31T07:51:49Z</time>
      </trkpt>
      <trkpt lat="43.97771" lon="7.23499">
        <ele>1404.633</ele>
        <time>2009-05-31T07:51:56Z</time>
      </trkpt>
      <trkpt lat="43.97754" lon="7.23518">
        <ele>1407.306</ele>
        <time>2009-05-31T07:52:02Z</time>
      </trkpt>
      <trkpt lat="43.97746" lon="7.2353">
        <ele>1409.534</ele>
        <time>2009-05-31T07:52:09Z</time>
      </trkpt>
      <trkpt lat="43.97737" lon="7.23541">
        <ele>1411.761</ele>
        <time>2009-05-31T07:52:17Z</time>
      </trkpt>
      <trkpt lat="43.97735" lon="7.23552">
        <ele>1414.277</ele>
        <time>2009-05-31T07:52:23Z</time>
      </trkpt>
      <trkpt lat="43.97724" lon="7.2357">
        <ele>1416.142</ele>
        <time>2009-05-31T07:52:30Z</time>
      </trkpt>
      <trkpt lat="43.97726" lon="7.23579">
        <ele>1416.847</ele>
        <time>2009-05-31T07:52:36Z</time>
      </trkpt>
      <trkpt lat="43.97728" lon="7.23586">
        <ele>1417.226</ele>
        <time>2009-05-31T07:52:44Z</time>
      </trkpt>
      <trkpt lat="43.9773" lon="7.23587">
        <ele>1419.998</ele>
        <time>2009-05-31T07:52:52Z</time>
      </trkpt>
      <trkpt lat="43.97724" lon="7.23595">
        <ele>1420.374</ele>
        <time>2009-05-31T07:53:01Z</time>
      </trkpt>
      <trkpt lat="43.97718" lon="7.23601">
        <ele>1420.621</ele>
        <time>2009-05-31T07:53:08Z</time>
      </trkpt>
      <trkpt lat="43.97713" lon="7.23609">
        <ele>1422.042</ele>
        <time>2009-05-31T07:53:15Z</time>
      </trkpt>
      <trkpt lat="43.9771" lon="7.23619">
        <ele>1423.222</ele>
        <time>2009-05-31T07:53:25Z</time>
      </trkpt>
      <trkpt lat="43.97707" lon="7.23631">
        <ele>1424.305</ele>
        <time>2009-05-31T07:53:34Z</time>
      </trkpt>
      <trkpt lat="43.97702" lon="7.23639">
        <ele>1425.287</ele>
        <time>2009-05-31T07:53:45Z</time>
      </trkpt>
      <trkpt lat="43.97697" lon="7.23644">
        <ele>1426.273</ele>
        <time>2009-05-31T07:53:57Z</time>
      </trkpt>
      <trkpt lat="43.97689" lon="7.23656">
        <ele>1426.761</ele>
        <time>2009-05-31T07:54:10Z</time>
      </trkpt>
      <trkpt lat="43.9768" lon="7.23663">
        <ele>1427.291</ele>
        <time>2009-05-31T07:54:17Z</time>
      </trkpt>
      <trkpt lat="43.97667" lon="7.23674">
        <ele>1424.854</ele>
        <time>2009-05-31T07:54:25Z</time>
      </trkpt>
      <trkpt lat="43.97655" lon="7.23678">
        <ele>1422.402</ele>
        <time>2009-05-31T07:54:33Z</time>
      </trkpt>
      <trkpt lat="43.97653" lon="7.23678">
        <ele>1422.629</ele>
        <time>2009-05-31T07:54:35Z</time>
      </trkpt>
      <trkpt lat="43.97652" lon="7.23679">
        <ele>1422.787</ele>
        <time>2009-05-31T07:54:37Z</time>
      </trkpt>
      <trkpt lat="43.97643" lon="7.23675">
        <ele>1421.613</ele>
        <time>2009-05-31T07:54:45Z</time>
      </trkpt>
      <trkpt lat="43.97643" lon="7.23675">
        <ele>1421.298</ele>
        <time>2009-05-31T07:54:46Z</time>
      </trkpt>
      <trkpt lat="43.97631" lon="7.23662">
        <ele>1419.15</ele>
        <time>2009-05-31T07:54:55Z</time>
      </trkpt>
      <trkpt lat="43.97626" lon="7.23656">
        <ele>1420.798</ele>
        <time>2009-05-31T07:54:58Z</time>
      </trkpt>
      <trkpt lat="43.97606" lon="7.23648">
        <ele>1420.678</ele>
        <time>2009-05-31T07:55:07Z</time>
      </trkpt>
      <trkpt lat="43.97592" lon="7.23646">
        <ele>1419.988</ele>
        <time>2009-05-31T07:55:12Z</time>
      </trkpt>
      <trkpt lat="43.97574" lon="7.23658">
        <ele>1417.117</ele>
        <time>2009-05-31T07:55:18Z</time>
      </trkpt>
      <trkpt lat="43.97559" lon="7.23662">
        <ele>1415.973</ele>
        <time>2009-05-31T07:55:23Z</time>
      </trkpt>
      <trkpt lat="43.97543" lon="7.23658">
        <ele>1413.535</ele>
        <time>2009-05-31T07:55:29Z</time>
      </trkpt>
      <trkpt lat="43.97515" lon="7.23665">
        <ele>1409.534</ele>
        <time>2009-05-31T07:55:36Z</time>
      </trkpt>
      <trkpt lat="43.97503" lon="7.2367">
        <ele>1407.968</ele>
        <time>2009-05-31T07:55:41Z</time>
      </trkpt>
      <trkpt lat="43.97487" lon="7.23687">
        <ele>1409.268</ele>
        <time>2009-05-31T07:55:48Z</time>
      </trkpt>
      <trkpt lat="43.97473" lon="7.23689">
        <ele>1411.631</ele>
        <time>2009-05-31T07:55:55Z</time>
      </trkpt>
      <trkpt lat="43.97453" lon="7.23689">
        <ele>1408.088</ele>
        <time>2009-05-31T07:56:03Z</time>
      </trkpt>
      <trkpt lat="43.97433" lon="7.23694">
        <ele>1405.724</ele>
        <time>2009-05-31T07:56:11Z</time>
      </trkpt>
      <trkpt lat="43.97416" lon="7.23702">
        <ele>1404.195</ele>
        <time>2009-05-31T07:56:17Z</time>
      </trkpt>
      <trkpt lat="43.97405" lon="7.23702">
        <ele>1403.812</ele>
        <time>2009-05-31T07:56:23Z</time>
      </trkpt>
      <trkpt lat="43.97401" lon="7.23709">
        <ele>1403.854</ele>
        <time>2009-05-31T07:56:24Z</time>
      </trkpt>
      <trkpt lat="43.97377" lon="7.23713">
        <ele>1402.676</ele>
        <time>2009-05-31T07:56:32Z</time>
      </trkpt>
      <trkpt lat="43.97371" lon="7.23713">
        <ele>1402.437</ele>
        <time>2009-05-31T07:56:36Z</time>
      </trkpt>
      <trkpt lat="43.97367" lon="7.23709">
        <ele>1403.57</ele>
        <time>2009-05-31T07:56:38Z</time>
      </trkpt>
      <trkpt lat="43.97362" lon="7.23707">
        <ele>1405.817</ele>
        <time>2009-05-31T07:56:45Z</time>
      </trkpt>
      <trkpt lat="43.97357" lon="7.23705">
        <ele>1406.374</ele>
        <time>2009-05-31T07:56:54Z</time>
      </trkpt>
      <trkpt lat="43.97346" lon="7.23726">
        <ele>1408.781</ele>
        <time>2009-05-31T07:57:03Z</time>
      </trkpt>
      <trkpt lat="43.9734" lon="7.2373">
        <ele>1410.275</ele>
        <time>2009-05-31T07:57:07Z</time>
      </trkpt>
      <trkpt lat="43.97328" lon="7.23733">
        <ele>1414.044</ele>
        <time>2009-05-31T07:57:18Z</time>
      </trkpt>
      <trkpt lat="43.97321" lon="7.23745">
        <ele>1415.58</ele>
        <time>2009-05-31T07:57:21Z</time>
      </trkpt>
      <trkpt lat="43.97315" lon="7.23747">
        <ele>1416.672</ele>
        <time>2009-05-31T07:57:26Z</time>
      </trkpt>
      <trkpt lat="43.97302" lon="7.23764">
        <ele>1418.34</ele>
        <time>2009-05-31T07:57:33Z</time>
      </trkpt>
      <trkpt lat="43.97296" lon="7.23785">
        <ele>1418.935</ele>
        <time>2009-05-31T07:57:39Z</time>
      </trkpt>
      <trkpt lat="43.97288" lon="7.23807">
        <ele>1419.073</ele>
        <time>2009-05-31T07:57:43Z</time>
      </trkpt>
      <trkpt lat="43.97278" lon="7.2383">
        <ele>1418.671</ele>
        <time>2009-05-31T07:57:47Z</time>
      </trkpt>
      <trkpt lat="43.97268" lon="7.23856">
        <ele>1417.23</ele>
        <time>2009-05-31T07:57:53Z</time>
      </trkpt>
      <trkpt lat="43.97238" lon="7.23879">
        <ele>1415.756</ele>
        <time>2009-05-31T07:58:01Z</time>
      </trkpt>
      <trkpt lat="43.97225" lon="7.23897">
        <ele>1416.265</ele>
        <time>2009-05-31T07:58:07Z</time>
      </trkpt>
      <trkpt lat="43.9721" lon="7.2391">
        <ele>1416.967</ele>
        <time>2009-05-31T07:58:14Z</time>
      </trkpt>
      <trkpt lat="43.97182" lon="7.23923">
        <ele>1411.197</ele>
        <time>2009-05-31T07:58:20Z</time>
      </trkpt>
      <trkpt lat="43.97166" lon="7.23924">
        <ele>1408.773</ele>
        <time>2009-05-31T07:58:25Z</time>
      </trkpt>
      <trkpt lat="43.97144" lon="7.23923">
        <ele>1407.404</ele>
        <time>2009-05-31T07:58:33Z</time>
      </trkpt>
      <trkpt lat="43.97133" lon="7.23934">
        <ele>1407.735</ele>
        <time>2009-05-31T07:58:40Z</time>
      </trkpt>
      <trkpt lat="43.97107" lon="7.23925">
        <ele>1406.642</ele>
        <time>2009-05-31T07:59:37Z</time>
      </trkpt>
      <trkpt lat="43.97098" lon="7.23913">
        <ele>1405.344</ele>
        <time>2009-05-31T07:59:45Z</time>
      </trkpt>
      <trkpt lat="43.97095" lon="7.23906">
        <ele>1404.376</ele>
        <time>2009-05-31T07:59:51Z</time>
      </trkpt>
      <trkpt lat="43.97088" lon="7.23892">
        <ele>1403.767</ele>
        <time>2009-05-31T08:00:01Z</time>
      </trkpt>
      <trkpt lat="43.97081" lon="7.23885">
        <ele>1404.178</ele>
        <time>2009-05-31T08:00:09Z</time>
      </trkpt>
      <trkpt lat="43.97075" lon="7.23879">
        <ele>1404.87</ele>
        <time>2009-05-31T08:00:18Z</time>
      </trkpt>
      <trkpt lat="43.97074" lon="7.23875">
        <ele>1403.751</ele>
        <time>2009-05-31T08:00:25Z</time>
      </trkpt>
      <trkpt lat="43.97069" lon="7.2387">
        <ele>1403.666</ele>
        <time>2009-05-31T08:00:34Z</time>
      </trkpt>
      <trkpt lat="43.97064" lon="7.23861">
        <ele>1404.537</ele>
        <time>2009-05-31T08:00:43Z</time>
      </trkpt>
      <trkpt lat="43.97064" lon="7.23861">
        <ele>1404.257</ele>
        <time>2009-05-31T08:00:46Z</time>
      </trkpt>
      <trkpt lat="43.97061" lon="7.2385">
        <ele>1406.105</ele>
        <time>2009-05-31T08:00:51Z</time>
      </trkpt>
      <trkpt lat="43.97054" lon="7.23835">
        <ele>1407.453</ele>
        <time>2009-05-31T08:00:59Z</time>
      </trkpt>
      <trkpt lat="43.97051" lon="7.23832">
        <ele>1408.185</ele>
        <time>2009-05-31T08:01:03Z</time>
      </trkpt>
      <trkpt lat="43.97038" lon="7.23837">
        <ele>1406.221</ele>
        <time>2009-05-31T08:01:09Z</time>
      </trkpt>
      <trkpt lat="43.97036" lon="7.23836">
        <ele>1406.356</ele>
        <time>2009-05-31T08:01:10Z</time>
      </trkpt>
      <trkpt lat="43.97013" lon="7.23823">
        <ele>1404.344</ele>
        <time>2009-05-31T08:01:19Z</time>
      </trkpt>
      <trkpt lat="43.97" lon="7.23812">
        <ele>1403.81</ele>
        <time>2009-05-31T08:01:26Z</time>
      </trkpt>
      <trkpt lat="43.96992" lon="7.238">
        <ele>1404.662</ele>
        <time>2009-05-31T08:01:33Z</time>
      </trkpt>
      <trkpt lat="43.96986" lon="7.2379">
        <ele>1405.422</ele>
        <time>2009-05-31T08:01:38Z</time>
      </trkpt>
      <trkpt lat="43.96979" lon="7.23776">
        <ele>1405.356</ele>
        <time>2009-05-31T08:01:46Z</time>
      </trkpt>
      <trkpt lat="43.96975" lon="7.23773">
        <ele>1405.507</ele>
        <time>2009-05-31T08:01:48Z</time>
      </trkpt>
      <trkpt lat="43.9696" lon="7.23765">
        <ele>1403.91</ele>
        <time>2009-05-31T08:01:55Z</time>
      </trkpt>
      <trkpt lat="43.96949" lon="7.23752">
        <ele>1402.751</ele>
        <time>2009-05-31T08:02:03Z</time>
      </trkpt>
      <trkpt lat="43.96936" lon="7.2375">
        <ele>1405.692</ele>
        <time>2009-05-31T08:02:11Z</time>
      </trkpt>
      <trkpt lat="43.96934" lon="7.2375">
        <ele>1405.676</ele>
        <time>2009-05-31T08:02:12Z</time>
      </trkpt>
      <trkpt lat="43.96916" lon="7.23747">
        <ele>1403.872</ele>
        <time>2009-05-31T08:02:17Z</time>
      </trkpt>
      <trkpt lat="43.96902" lon="7.23748">
        <ele>1403.798</ele>
        <time>2009-05-31T08:02:23Z</time>
      </trkpt>
      <trkpt lat="43.9689" lon="7.23747">
        <ele>1403.352</ele>
        <time>2009-05-31T08:02:30Z</time>
      </trkpt>
      <trkpt lat="43.96879" lon="7.23741">
        <ele>1403.386</ele>
        <time>2009-05-31T08:02:38Z</time>
      </trkpt>
      <trkpt lat="43.96869" lon="7.23737">
        <ele>1405.315</ele>
        <time>2009-05-31T08:02:45Z</time>
      </trkpt>
      <trkpt lat="43.96857" lon="7.23733">
        <ele>1406.535</ele>
        <time>2009-05-31T08:02:54Z</time>
      </trkpt>
      <trkpt lat="43.96851" lon="7.2373">
        <ele>1409.367</ele>
        <time>2009-05-31T08:02:59Z</time>
      </trkpt>
      <trkpt lat="43.96848" lon="7.2373">
        <ele>1409.993</ele>
        <time>2009-05-31T08:03:01Z</time>
      </trkpt>
      <trkpt lat="43.96841" lon="7.23731">
        <ele>1410.103</ele>
        <time>2009-05-31T08:03:06Z</time>
      </trkpt>
      <trkpt lat="43.9683" lon="7.23733">
        <ele>1410.861</ele>
        <time>2009-05-31T08:03:13Z</time>
      </trkpt>
      <trkpt lat="43.96825" lon="7.23734">
        <ele>1411.66</ele>
        <time>2009-05-31T08:03:17Z</time>
      </trkpt>
      <trkpt lat="43.96814" lon="7.23736">
        <ele>1415.258</ele>
        <time>2009-05-31T08:03:25Z</time>
      </trkpt>
      <trkpt lat="43.96813" lon="7.23735">
        <ele>1415.63</ele>
        <time>2009-05-31T08:03:26Z</time>
      </trkpt>
      <trkpt lat="43.96809" lon="7.23735">
        <ele>1417.834</ele>
        <time>2009-05-31T08:03:30Z</time>
      </trkpt>
      <trkpt lat="43.96789" lon="7.23743">
        <ele>1419.379</ele>
        <time>2009-05-31T08:03:40Z</time>
      </trkpt>
      <trkpt lat="43.96776" lon="7.23743">
        <ele>1420.206</ele>
        <time>2009-05-31T08:03:46Z</time>
      </trkpt>
      <trkpt lat="43.96758" lon="7.23752">
        <ele>1418.162</ele>
        <time>2009-05-31T08:03:53Z</time>
      </trkpt>
      <trkpt lat="43.96742" lon="7.23755">
        <ele>1418.261</ele>
        <time>2009-05-31T08:03:59Z</time>
      </trkpt>
      <trkpt lat="43.96724" lon="7.23763">
        <ele>1417.435</ele>
        <time>2009-05-31T08:04:05Z</time>
      </trkpt>
      <trkpt lat="43.96721" lon="7.23765">
        <ele>1417.55</ele>
        <time>2009-05-31T08:04:06Z</time>
      </trkpt>
      <trkpt lat="43.96706" lon="7.23763">
        <ele>1418.838</ele>
        <time>2009-05-31T08:04:11Z</time>
      </trkpt>
      <trkpt lat="43.96687" lon="7.23757">
        <ele>1419.71</ele>
        <time>2009-05-31T08:04:16Z</time>
      </trkpt>
      <trkpt lat="43.96665" lon="7.23767">
        <ele>1420.705</ele>
        <time>2009-05-31T08:04:22Z</time>
      </trkpt>
      <trkpt lat="43.96653" lon="7.23775">
        <ele>1422.193</ele>
        <time>2009-05-31T08:04:28Z</time>
      </trkpt>
      <trkpt lat="43.9664" lon="7.23772">
        <ele>1427.275</ele>
        <time>2009-05-31T08:04:38Z</time>
      </trkpt>
      <trkpt lat="43.96625" lon="7.23773">
        <ele>1427.111</ele>
        <time>2009-05-31T08:04:46Z</time>
      </trkpt>
      <trkpt lat="43.9662" lon="7.2377">
        <ele>1427.559</ele>
        <time>2009-05-31T08:04:49Z</time>
      </trkpt>
      <trkpt lat="43.96608" lon="7.23776">
        <ele>1429.406</ele>
        <time>2009-05-31T08:04:56Z</time>
      </trkpt>
      <trkpt lat="43.96598" lon="7.23777">
        <ele>1430.148</ele>
        <time>2009-05-31T08:05:01Z</time>
      </trkpt>
      <trkpt lat="43.96588" lon="7.2378">
        <ele>1431.181</ele>
        <time>2009-05-31T08:05:09Z</time>
      </trkpt>
      <trkpt lat="43.96575" lon="7.23779">
        <ele>1431.545</ele>
        <time>2009-05-31T08:05:17Z</time>
      </trkpt>
      <trkpt lat="43.96567" lon="7.2378">
        <ele>1432.572</ele>
        <time>2009-05-31T08:05:22Z</time>
      </trkpt>
      <trkpt lat="43.96555" lon="7.2378">
        <ele>1434.237</ele>
        <time>2009-05-31T08:05:30Z</time>
      </trkpt>
      <trkpt lat="43.96544" lon="7.23788">
        <ele>1435.751</ele>
        <time>2009-05-31T08:05:37Z</time>
      </trkpt>
      <trkpt lat="43.96532" lon="7.23795">
        <ele>1434.902</ele>
        <time>2009-05-31T08:05:44Z</time>
      </trkpt>
      <trkpt lat="43.96522" lon="7.23802">
        <ele>1430.941</ele>
        <time>2009-05-31T08:05:52Z</time>
      </trkpt>
      <trkpt lat="43.96514" lon="7.23808">
        <ele>1431.726</ele>
        <time>2009-05-31T08:05:59Z</time>
      </trkpt>
      <trkpt lat="43.96501" lon="7.23818">
        <ele>1431.114</ele>
        <time>2009-05-31T08:06:09Z</time>
      </trkpt>
      <trkpt lat="43.96492" lon="7.23825">
        <ele>1430.811</ele>
        <time>2009-05-31T08:06:17Z</time>
      </trkpt>
      <trkpt lat="43.96479" lon="7.23837">
        <ele>1432.836</ele>
        <time>2009-05-31T08:06:24Z</time>
      </trkpt>
      <trkpt lat="43.96463" lon="7.23857">
        <ele>1435.199</ele>
        <time>2009-05-31T08:06:30Z</time>
      </trkpt>
      <trkpt lat="43.96443" lon="7.23874">
        <ele>1432.951</ele>
        <time>2009-05-31T08:06:36Z</time>
      </trkpt>
      <trkpt lat="43.96431" lon="7.23882">
        <ele>1431.947</ele>
        <time>2009-05-31T08:06:39Z</time>
      </trkpt>
      <trkpt lat="43.96403" lon="7.23893">
        <ele>1427.813</ele>
        <time>2009-05-31T08:06:46Z</time>
      </trkpt>
      <trkpt lat="43.96381" lon="7.23904">
        <ele>1424.984</ele>
        <time>2009-05-31T08:06:50Z</time>
      </trkpt>
      <trkpt lat="43.96353" lon="7.2392">
        <ele>1421.029</ele>
        <time>2009-05-31T08:06:54Z</time>
      </trkpt>
      <trkpt lat="43.96304" lon="7.23945">
        <ele>1417.288</ele>
        <time>2009-05-31T08:07:02Z</time>
      </trkpt>
      <trkpt lat="43.96274" lon="7.23975">
        <ele>1417.891</ele>
        <time>2009-05-31T08:07:09Z</time>
      </trkpt>
      <trkpt lat="43.96256" lon="7.23991">
        <ele>1419.813</ele>
        <time>2009-05-31T08:07:14Z</time>
      </trkpt>
      <trkpt lat="43.96242" lon="7.24012">
        <ele>1422.629</ele>
        <time>2009-05-31T08:07:20Z</time>
      </trkpt>
      <trkpt lat="43.96218" lon="7.24024">
        <ele>1419.856</ele>
        <time>2009-05-31T08:07:24Z</time>
      </trkpt>
      <trkpt lat="43.96209" lon="7.24037">
        <ele>1417.779</ele>
        <time>2009-05-31T08:07:27Z</time>
      </trkpt>
      <trkpt lat="43.96187" lon="7.24065">
        <ele>1415.968</ele>
        <time>2009-05-31T08:07:31Z</time>
      </trkpt>
      <trkpt lat="43.96168" lon="7.24073">
        <ele>1415.369</ele>
        <time>2009-05-31T08:07:34Z</time>
      </trkpt>
      <trkpt lat="43.96151" lon="7.24083">
        <ele>1415.171</ele>
        <time>2009-05-31T08:07:40Z</time>
      </trkpt>
      <trkpt lat="43.96137" lon="7.24086">
        <ele>1415.246</ele>
        <time>2009-05-31T08:07:46Z</time>
      </trkpt>
      <trkpt lat="43.96132" lon="7.24092">
        <ele>1415.85</ele>
        <time>2009-05-31T08:07:48Z</time>
      </trkpt>
      <trkpt lat="43.96118" lon="7.24104">
        <ele>1416.938</ele>
        <time>2009-05-31T08:07:52Z</time>
      </trkpt>
      <trkpt lat="43.96108" lon="7.24116">
        <ele>1418.653</ele>
        <time>2009-05-31T08:07:57Z</time>
      </trkpt>
      <trkpt lat="43.96093" lon="7.24133">
        <ele>1421.069</ele>
        <time>2009-05-31T08:08:03Z</time>
      </trkpt>
      <trkpt lat="43.96083" lon="7.24152">
        <ele>1426.03</ele>
        <time>2009-05-31T08:08:09Z</time>
      </trkpt>
      <trkpt lat="43.9607" lon="7.24175">
        <ele>1428.729</ele>
        <time>2009-05-31T08:08:15Z</time>
      </trkpt>
      <trkpt lat="43.96056" lon="7.2419">
        <ele>1429.661</ele>
        <time>2009-05-31T08:08:21Z</time>
      </trkpt>
      <trkpt lat="43.96046" lon="7.24217">
        <ele>1429.439</ele>
        <time>2009-05-31T08:08:26Z</time>
      </trkpt>
      <trkpt lat="43.96045" lon="7.24221">
        <ele>1430.868</ele>
        <time>2009-05-31T08:08:27Z</time>
      </trkpt>
      <trkpt lat="43.96027" lon="7.24233">
        <ele>1430.708</ele>
        <time>2009-05-31T08:08:33Z</time>
      </trkpt>
      <trkpt lat="43.9602" lon="7.24241">
        <ele>1432.854</ele>
        <time>2009-05-31T08:08:37Z</time>
      </trkpt>
      <trkpt lat="43.96004" lon="7.24265">
        <ele>1433.878</ele>
        <time>2009-05-31T08:08:44Z</time>
      </trkpt>
      <trkpt lat="43.96002" lon="7.24267">
        <ele>1434.388</ele>
        <time>2009-05-31T08:08:45Z</time>
      </trkpt>
      <trkpt lat="43.95987" lon="7.24287">
        <ele>1434.438</ele>
        <time>2009-05-31T08:08:53Z</time>
      </trkpt>
      <trkpt lat="43.95983" lon="7.24287">
        <ele>1434.4</ele>
        <time>2009-05-31T08:08:55Z</time>
      </trkpt>
      <trkpt lat="43.95962" lon="7.24298">
        <ele>1432.783</ele>
        <time>2009-05-31T08:09:03Z</time>
      </trkpt>
      <trkpt lat="43.95957" lon="7.24303">
        <ele>1433.244</ele>
        <time>2009-05-31T08:09:05Z</time>
      </trkpt>
      <trkpt lat="43.95942" lon="7.24308">
        <ele>1434.897</ele>
        <time>2009-05-31T08:09:13Z</time>
      </trkpt>
      <trkpt lat="43.95928" lon="7.24311">
        <ele>1437.103</ele>
        <time>2009-05-31T08:09:20Z</time>
      </trkpt>
      <trkpt lat="43.95921" lon="7.24314">
        <ele>1439.241</ele>
        <time>2009-05-31T08:09:26Z</time>
      </trkpt>
      <trkpt lat="43.95919" lon="7.24314">
        <ele>1439.007</ele>
        <time>2009-05-31T08:09:38Z</time>
      </trkpt>
      <trkpt lat="43.95913" lon="7.24317">
        <ele>1438.735</ele>
        <time>2009-05-31T08:09:50Z</time>
      </trkpt>
      <trkpt lat="43.95904" lon="7.24318">
        <ele>1438.991</ele>
        <time>2009-05-31T08:09:57Z</time>
      </trkpt>
      <trkpt lat="43.95893" lon="7.24321">
        <ele>1439.443</ele>
        <time>2009-05-31T08:10:04Z</time>
      </trkpt>
      <trkpt lat="43.95885" lon="7.24324">
        <ele>1439.989</ele>
        <time>2009-05-31T08:10:10Z</time>
      </trkpt>
      <trkpt lat="43.95881" lon="7.24323">
        <ele>1440.792</ele>
        <time>2009-05-31T08:10:13Z</time>
      </trkpt>
      <trkpt lat="43.95877" lon="7.24323">
        <ele>1441.324</ele>
        <time>2009-05-31T08:10:17Z</time>
      </trkpt>
      <trkpt lat="43.95872" lon="7.24323">
        <ele>1441.638</ele>
        <time>2009-05-31T08:10:21Z</time>
      </trkpt>
      <trkpt lat="43.95858" lon="7.24332">
        <ele>1443.889</ele>
        <time>2009-05-31T08:10:30Z</time>
      </trkpt>
      <trkpt lat="43.9585" lon="7.24327">
        <ele>1444.74</ele>
        <time>2009-05-31T08:10:36Z</time>
      </trkpt>
      <trkpt lat="43.95836" lon="7.24326">
        <ele>1445.703</ele>
        <time>2009-05-31T08:10:45Z</time>
      </trkpt>
      <trkpt lat="43.9582" lon="7.24325">
        <ele>1446.219</ele>
        <time>2009-05-31T08:10:53Z</time>
      </trkpt>
      <trkpt lat="43.95806" lon="7.24322">
        <ele>1447.635</ele>
        <time>2009-05-31T08:11:00Z</time>
      </trkpt>
      <trkpt lat="43.95794" lon="7.24317">
        <ele>1447.666</ele>
        <time>2009-05-31T08:11:07Z</time>
      </trkpt>
      <trkpt lat="43.95782" lon="7.24312">
        <ele>1445.602</ele>
        <time>2009-05-31T08:11:11Z</time>
      </trkpt>
      <trkpt lat="43.95776" lon="7.24315">
        <ele>1444.887</ele>
        <time>2009-05-31T08:11:13Z</time>
      </trkpt>
      <trkpt lat="43.95769" lon="7.24307">
        <ele>1445.042</ele>
        <time>2009-05-31T08:11:19Z</time>
      </trkpt>
      <trkpt lat="43.95755" lon="7.24302">
        <ele>1444.763</ele>
        <time>2009-05-31T08:11:29Z</time>
      </trkpt>
      <trkpt lat="43.95731" lon="7.243">
        <ele>1438.112</ele>
        <time>2009-05-31T08:11:37Z</time>
      </trkpt>
      <trkpt lat="43.9571" lon="7.24296">
        <ele>1433.667</ele>
        <time>2009-05-31T08:11:44Z</time>
      </trkpt>
      <trkpt lat="43.95698" lon="7.24285">
        <ele>1432.249</ele>
        <time>2009-05-31T08:11:52Z</time>
      </trkpt>
      <trkpt lat="43.95683" lon="7.24274">
        <ele>1428.2</ele>
        <time>2009-05-31T08:12:00Z</time>
      </trkpt>
      <trkpt lat="43.95676" lon="7.2427">
        <ele>1426.099</ele>
        <time>2009-05-31T08:12:04Z</time>
      </trkpt>
      <trkpt lat="43.95664" lon="7.24261">
        <ele>1425.724</ele>
        <time>2009-05-31T08:12:12Z</time>
      </trkpt>
      <trkpt lat="43.95656" lon="7.24253">
        <ele>1425.826</ele>
        <time>2009-05-31T08:12:19Z</time>
      </trkpt>
      <trkpt lat="43.95645" lon="7.24244">
        <ele>1426.242</ele>
        <time>2009-05-31T08:12:27Z</time>
      </trkpt>
      <trkpt lat="43.95643" lon="7.24241">
        <ele>1425.914</ele>
        <time>2009-05-31T08:12:33Z</time>
      </trkpt>
      <trkpt lat="43.95637" lon="7.24235">
        <ele>1430.346</ele>
        <time>2009-05-31T08:13:19Z</time>
      </trkpt>
      <trkpt lat="43.95632" lon="7.24232">
        <ele>1430.929</ele>
        <time>2009-05-31T08:13:24Z</time>
      </trkpt>
      <trkpt lat="43.95617" lon="7.24222">
        <ele>1431.822</ele>
        <time>2009-05-31T08:13:35Z</time>
      </trkpt>
      <trkpt lat="43.95612" lon="7.24219">
        <ele>1433.642</ele>
        <time>2009-05-31T08:13:40Z</time>
      </trkpt>
      <trkpt lat="43.95608" lon="7.24215">
        <ele>1434.324</ele>
        <time>2009-05-31T08:13:44Z</time>
      </trkpt>
      <trkpt lat="43.95607" lon="7.24211">
        <ele>1435.924</ele>
        <time>2009-05-31T08:13:51Z</time>
      </trkpt>
      <trkpt lat="43.95602" lon="7.2421">
        <ele>1435.29</ele>
        <time>2009-05-31T08:14:12Z</time>
      </trkpt>
      <trkpt lat="43.95598" lon="7.24205">
        <ele>1433.508</ele>
        <time>2009-05-31T08:14:22Z</time>
      </trkpt>
      <trkpt lat="43.95589" lon="7.24204">
        <ele>1434.701</ele>
        <time>2009-05-31T08:14:31Z</time>
      </trkpt>
      <trkpt lat="43.95578" lon="7.24199">
        <ele>1434.622</ele>
        <time>2009-05-31T08:14:40Z</time>
      </trkpt>
      <trkpt lat="43.95568" lon="7.24196">
        <ele>1435.586</ele>
        <time>2009-05-31T08:14:48Z</time>
      </trkpt>
      <trkpt lat="43.95559" lon="7.24192">
        <ele>1435.516</ele>
        <time>2009-05-31T08:14:55Z</time>
      </trkpt>
      <trkpt lat="43.95547" lon="7.2419">
        <ele>1436.483</ele>
        <time>2009-05-31T08:15:04Z</time>
      </trkpt>
      <trkpt lat="43.95539" lon="7.24191">
        <ele>1437.663</ele>
        <time>2009-05-31T08:15:12Z</time>
      </trkpt>
      <trkpt lat="43.95534" lon="7.2419">
        <ele>1439.298</ele>
        <time>2009-05-31T08:15:31Z</time>
      </trkpt>
      <trkpt lat="43.95524" lon="7.24182">
        <ele>1441.731</ele>
        <time>2009-05-31T08:15:54Z</time>
      </trkpt>
      <trkpt lat="43.9551" lon="7.24182">
        <ele>1443.542</ele>
        <time>2009-05-31T08:16:07Z</time>
      </trkpt>
      <trkpt lat="43.95509" lon="7.24183">
        <ele>1446.395</ele>
        <time>2009-05-31T08:16:19Z</time>
      </trkpt>
      <trkpt lat="43.95498" lon="7.24182">
        <ele>1449.333</ele>
        <time>2009-05-31T08:16:43Z</time>
      </trkpt>
      <trkpt lat="43.95494" lon="7.24192">
        <ele>1451.326</ele>
        <time>2009-05-31T08:16:59Z</time>
      </trkpt>
      <trkpt lat="43.95478" lon="7.2419">
        <ele>1453.029</ele>
        <time>2009-05-31T08:17:16Z</time>
      </trkpt>
      <trkpt lat="43.95473" lon="7.24194">
        <ele>1455.032</ele>
        <time>2009-05-31T08:17:23Z</time>
      </trkpt>
      <trkpt lat="43.95471" lon="7.24198">
        <ele>1455.786</ele>
        <time>2009-05-31T08:17:32Z</time>
      </trkpt>
      <trkpt lat="43.9547" lon="7.24191">
        <ele>1457.874</ele>
        <time>2009-05-31T08:17:49Z</time>
      </trkpt>
      <trkpt lat="43.95469" lon="7.24188">
        <ele>1458.674</ele>
        <time>2009-05-31T08:18:00Z</time>
      </trkpt>
      <trkpt lat="43.95461" lon="7.24189">
        <ele>1457.578</ele>
        <time>2009-05-31T08:18:17Z</time>
      </trkpt>
      <trkpt lat="43.95456" lon="7.24189">
        <ele>1459.995</ele>
        <time>2009-05-31T08:18:39Z</time>
      </trkpt>
      <trkpt lat="43.9545" lon="7.24197">
        <ele>1459.983</ele>
        <time>2009-05-31T08:18:46Z</time>
      </trkpt>
      <trkpt lat="43.95445" lon="7.24197">
        <ele>1459.83</ele>
        <time>2009-05-31T08:19:07Z</time>
      </trkpt>
      <trkpt lat="43.9544" lon="7.24212">
        <ele>1462.543</ele>
        <time>2009-05-31T08:19:26Z</time>
      </trkpt>
      <trkpt lat="43.95436" lon="7.24215">
        <ele>1463.519</ele>
        <time>2009-05-31T08:19:48Z</time>
      </trkpt>
      <trkpt lat="43.95432" lon="7.24227">
        <ele>1466.211</ele>
        <time>2009-05-31T08:20:10Z</time>
      </trkpt>
      <trkpt lat="43.95428" lon="7.24231">
        <ele>1468.509</ele>
        <time>2009-05-31T08:20:17Z</time>
      </trkpt>
      <trkpt lat="43.95424" lon="7.24241">
        <ele>1473.74</ele>
        <time>2009-05-31T08:21:06Z</time>
      </trkpt>
      <trkpt lat="43.95417" lon="7.24243">
        <ele>1475.597</ele>
        <time>2009-05-31T08:21:20Z</time>
      </trkpt>
      <trkpt lat="43.95414" lon="7.24249">
        <ele>1477.749</ele>
        <time>2009-05-31T08:21:29Z</time>
      </trkpt>
      <trkpt lat="43.95411" lon="7.24251">
        <ele>1479.07</ele>
        <time>2009-05-31T08:21:38Z</time>
      </trkpt>
      <trkpt lat="43.95406" lon="7.24256">
        <ele>1481.543</ele>
        <time>2009-05-31T08:21:51Z</time>
      </trkpt>
      <trkpt lat="43.95404" lon="7.24259">
        <ele>1482.785</ele>
        <time>2009-05-31T08:21:58Z</time>
      </trkpt>
      <trkpt lat="43.95403" lon="7.24261">
        <ele>1484.075</ele>
        <time>2009-05-31T08:22:10Z</time>
      </trkpt>
      <trkpt lat="43.95393" lon="7.24259">
        <ele>1484.087</ele>
        <time>2009-05-31T08:22:16Z</time>
      </trkpt>
      <trkpt lat="43.95374" lon="7.24262">
        <ele>1482.883</ele>
        <time>2009-05-31T08:22:23Z</time>
      </trkpt>
      <trkpt lat="43.95366" lon="7.24261">
        <ele>1482.613</ele>
        <time>2009-05-31T08:22:26Z</time>
      </trkpt>
      <trkpt lat="43.95349" lon="7.24265">
        <ele>1481.066</ele>
        <time>2009-05-31T08:22:30Z</time>
      </trkpt>
      <trkpt lat="43.95338" lon="7.24263">
        <ele>1480.226</ele>
        <time>2009-05-31T08:22:34Z</time>
      </trkpt>
      <trkpt lat="43.95322" lon="7.24263">
        <ele>1481.495</ele>
        <time>2009-05-31T08:23:05Z</time>
      </trkpt>
      <trkpt lat="43.95315" lon="7.24259">
        <ele>1483.118</ele>
        <time>2009-05-31T08:23:15Z</time>
      </trkpt>
      <trkpt lat="43.95306" lon="7.24257">
        <ele>1485.219</ele>
        <time>2009-05-31T08:23:25Z</time>
      </trkpt>
      <trkpt lat="43.95299" lon="7.24266">
        <ele>1486.869</ele>
        <time>2009-05-31T08:23:35Z</time>
      </trkpt>
      <trkpt lat="43.95294" lon="7.24266">
        <ele>1490.459</ele>
        <time>2009-05-31T08:23:47Z</time>
      </trkpt>
      <trkpt lat="43.95285" lon="7.24266">
        <ele>1493.915</ele>
        <time>2009-05-31T08:23:59Z</time>
      </trkpt>
      <trkpt lat="43.9528" lon="7.24262">
        <ele>1493.899</ele>
        <time>2009-05-31T08:24:07Z</time>
      </trkpt>
      <trkpt lat="43.95275" lon="7.24264">
        <ele>1496.211</ele>
        <time>2009-05-31T08:24:19Z</time>
      </trkpt>
      <trkpt lat="43.95272" lon="7.24269">
        <ele>1498.083</ele>
        <time>2009-05-31T08:24:29Z</time>
      </trkpt>
      <trkpt lat="43.95271" lon="7.24276">
        <ele>1498.773</ele>
        <time>2009-05-31T08:24:37Z</time>
      </trkpt>
      <trkpt lat="43.95252" lon="7.24293">
        <ele>1500.259</ele>
        <time>2009-05-31T08:24:43Z</time>
      </trkpt>
      <trkpt lat="43.95245" lon="7.24295">
        <ele>1501.318</ele>
        <time>2009-05-31T08:24:45Z</time>
      </trkpt>
      <trkpt lat="43.95229" lon="7.24297">
        <ele>1502.234</ele>
        <time>2009-05-31T08:24:50Z</time>
      </trkpt>
      <trkpt lat="43.95222" lon="7.243">
        <ele>1503.512</ele>
        <time>2009-05-31T08:24:56Z</time>
      </trkpt>
      <trkpt lat="43.95219" lon="7.243">
        <ele>1503.386</ele>
        <time>2009-05-31T08:25:13Z</time>
      </trkpt>
      <trkpt lat="43.9521" lon="7.24297">
        <ele>1503.482</ele>
        <time>2009-05-31T08:25:45Z</time>
      </trkpt>
      <trkpt lat="43.95199" lon="7.24286">
        <ele>1503.718</ele>
        <time>2009-05-31T08:25:58Z</time>
      </trkpt>
      <trkpt lat="43.95195" lon="7.24288">
        <ele>1503.968</ele>
        <time>2009-05-31T08:26:05Z</time>
      </trkpt>
      <trkpt lat="43.95194" lon="7.24288">
        <ele>1504.228</ele>
        <time>2009-05-31T08:26:18Z</time>
      </trkpt>
      <trkpt lat="43.95192" lon="7.24301">
        <ele>1505.172</ele>
        <time>2009-05-31T08:27:19Z</time>
      </trkpt>
      <trkpt lat="43.95196" lon="7.24306">
        <ele>1507.023</ele>
        <time>2009-05-31T08:27:44Z</time>
      </trkpt>
      <trkpt lat="43.95186" lon="7.24316">
        <ele>1512.724</ele>
        <time>2009-05-31T08:28:18Z</time>
      </trkpt>
      <trkpt lat="43.95177" lon="7.24324">
        <ele>1514.623</ele>
        <time>2009-05-31T08:28:31Z</time>
      </trkpt>
      <trkpt lat="43.95177" lon="7.2433">
        <ele>1514.775</ele>
        <time>2009-05-31T08:28:45Z</time>
      </trkpt>
      <trkpt lat="43.95176" lon="7.24324">
        <ele>1515.519</ele>
        <time>2009-05-31T08:28:58Z</time>
      </trkpt>
      <trkpt lat="43.95171" lon="7.24324">
        <ele>1516.629</ele>
        <time>2009-05-31T08:29:25Z</time>
      </trkpt>
      <trkpt lat="43.95171" lon="7.24325">
        <ele>1516.867</ele>
        <time>2009-05-31T08:29:37Z</time>
      </trkpt>
      <trkpt lat="43.95164" lon="7.24328">
        <ele>1518.11</ele>
        <time>2009-05-31T08:29:55Z</time>
      </trkpt>
      <trkpt lat="43.9516" lon="7.24332">
        <ele>1518.83</ele>
        <time>2009-05-31T08:30:14Z</time>
      </trkpt>
      <trkpt lat="43.9516" lon="7.24335">
        <ele>1519.508</ele>
        <time>2009-05-31T08:30:29Z</time>
      </trkpt>
      <trkpt lat="43.95159" lon="7.24339">
        <ele>1520.097</ele>
        <time>2009-05-31T08:30:45Z</time>
      </trkpt>
      <trkpt lat="43.95154" lon="7.24351">
        <ele>1520.544</ele>
        <time>2009-05-31T08:31:11Z</time>
      </trkpt>
      <trkpt lat="43.95154" lon="7.24358">
        <ele>1521.352</ele>
        <time>2009-05-31T08:31:21Z</time>
      </trkpt>
      <trkpt lat="43.9515" lon="7.24365">
        <ele>1522.469</ele>
        <time>2009-05-31T08:31:32Z</time>
      </trkpt>
      <trkpt lat="43.95148" lon="7.24369">
        <ele>1525.494</ele>
        <time>2009-05-31T08:31:42Z</time>
      </trkpt>
      <trkpt lat="43.9514" lon="7.24368">
        <ele>1528.009</ele>
        <time>2009-05-31T08:31:51Z</time>
      </trkpt>
      <trkpt lat="43.95135" lon="7.24369">
        <ele>1532.766</ele>
        <time>2009-05-31T08:32:02Z</time>
      </trkpt>
      <trkpt lat="43.95129" lon="7.24369">
        <ele>1536.023</ele>
        <time>2009-05-31T08:32:14Z</time>
      </trkpt>
      <trkpt lat="43.9512" lon="7.24364">
        <ele>1538.634</ele>
        <time>2009-05-31T08:32:24Z</time>
      </trkpt>
      <trkpt lat="43.95116" lon="7.24363">
        <ele>1540.325</ele>
        <time>2009-05-31T08:32:35Z</time>
      </trkpt>
      <trkpt lat="43.95108" lon="7.24369">
        <ele>1541.502</ele>
        <time>2009-05-31T08:32:47Z</time>
      </trkpt>
      <trkpt lat="43.95099" lon="7.24371">
        <ele>1542.927</ele>
        <time>2009-05-31T08:32:59Z</time>
      </trkpt>
      <trkpt lat="43.95091" lon="7.2437">
        <ele>1544.914</ele>
        <time>2009-05-31T08:33:11Z</time>
      </trkpt>
      <trkpt lat="43.95082" lon="7.24365">
        <ele>1546.506</ele>
        <time>2009-05-31T08:33:23Z</time>
      </trkpt>
      <trkpt lat="43.95079" lon="7.24355">
        <ele>1546.811</ele>
        <time>2009-05-31T08:33:33Z</time>
      </trkpt>
      <trkpt lat="43.9508" lon="7.24354">
        <ele>1546.771</ele>
        <time>2009-05-31T08:33:48Z</time>
      </trkpt>
      <trkpt lat="43.95078" lon="7.24353">
        <ele>1544.675</ele>
        <time>2009-05-31T08:35:21Z</time>
      </trkpt>
      <trkpt lat="43.95077" lon="7.24334">
        <ele>1546.353</ele>
        <time>2009-05-31T08:35:30Z</time>
      </trkpt>
      <trkpt lat="43.9507" lon="7.24317">
        <ele>1547.578</ele>
        <time>2009-05-31T08:35:42Z</time>
      </trkpt>
      <trkpt lat="43.95049" lon="7.24308">
        <ele>1547.056</ele>
        <time>2009-05-31T08:35:53Z</time>
      </trkpt>
      <trkpt lat="43.95042" lon="7.24318">
        <ele>1542.661</ele>
        <time>2009-05-31T08:36:04Z</time>
      </trkpt>
      <trkpt lat="43.95034" lon="7.24322">
        <ele>1538.715</ele>
        <time>2009-05-31T08:36:16Z</time>
      </trkpt>
      <trkpt lat="43.95032" lon="7.24327">
        <ele>1535.973</ele>
        <time>2009-05-31T08:36:25Z</time>
      </trkpt>
      <trkpt lat="43.95031" lon="7.24326">
        <ele>1536.041</ele>
        <time>2009-05-31T08:36:32Z</time>
      </trkpt>
      <trkpt lat="43.95019" lon="7.24331">
        <ele>1533.714</ele>
        <time>2009-05-31T08:36:38Z</time>
      </trkpt>
      <trkpt lat="43.95013" lon="7.2434">
        <ele>1529.997</ele>
        <time>2009-05-31T08:36:44Z</time>
      </trkpt>
      <trkpt lat="43.95009" lon="7.24343">
        <ele>1528.277</ele>
        <time>2009-05-31T08:36:54Z</time>
      </trkpt>
      <trkpt lat="43.95002" lon="7.24348">
        <ele>1527.238</ele>
        <time>2009-05-31T08:37:03Z</time>
      </trkpt>
      <trkpt lat="43.94995" lon="7.24352">
        <ele>1525.591</ele>
        <time>2009-05-31T08:37:13Z</time>
      </trkpt>
      <trkpt lat="43.94989" lon="7.24356">
        <ele>1523.674</ele>
        <time>2009-05-31T08:37:22Z</time>
      </trkpt>
      <trkpt lat="43.94986" lon="7.24362">
        <ele>1521.747</ele>
        <time>2009-05-31T08:37:30Z</time>
      </trkpt>
      <trkpt lat="43.94977" lon="7.24363">
        <ele>1520.641</ele>
        <time>2009-05-31T08:37:37Z</time>
      </trkpt>
      <trkpt lat="43.94964" lon="7.24354">
        <ele>1520.01</ele>
        <time>2009-05-31T08:37:43Z</time>
      </trkpt>
      <trkpt lat="43.94952" lon="7.24349">
        <ele>1518.561</ele>
        <time>2009-05-31T08:37:49Z</time>
      </trkpt>
      <trkpt lat="43.94944" lon="7.24343">
        <ele>1517.382</ele>
        <time>2009-05-31T08:37:54Z</time>
      </trkpt>
      <trkpt lat="43.94931" lon="7.2435">
        <ele>1516.169</ele>
        <time>2009-05-31T08:38:00Z</time>
      </trkpt>
      <trkpt lat="43.94913" lon="7.24377">
        <ele>1509.803</ele>
        <time>2009-05-31T08:38:08Z</time>
      </trkpt>
      <trkpt lat="43.94899" lon="7.24394">
        <ele>1506.323</ele>
        <time>2009-05-31T08:38:14Z</time>
      </trkpt>
      <trkpt lat="43.94894" lon="7.24399">
        <ele>1504.108</ele>
        <time>2009-05-31T08:38:19Z</time>
      </trkpt>
      <trkpt lat="43.94884" lon="7.24388">
        <ele>1501.358</ele>
        <time>2009-05-31T08:39:23Z</time>
      </trkpt>
      <trkpt lat="43.94883" lon="7.24379">
        <ele>1501.474</ele>
        <time>2009-05-31T08:39:31Z</time>
      </trkpt>
      <trkpt lat="43.94885" lon="7.24372">
        <ele>1500.372</ele>
        <time>2009-05-31T08:39:41Z</time>
      </trkpt>
      <trkpt lat="43.94885" lon="7.2437">
        <ele>1498.033</ele>
        <time>2009-05-31T08:39:46Z</time>
      </trkpt>
      <trkpt lat="43.94891" lon="7.24354">
        <ele>1494.229</ele>
        <time>2009-05-31T08:39:53Z</time>
      </trkpt>
      <trkpt lat="43.94892" lon="7.24353">
        <ele>1492.325</ele>
        <time>2009-05-31T08:39:59Z</time>
      </trkpt>
      <trkpt lat="43.94891" lon="7.24343">
        <ele>1491.28</ele>
        <time>2009-05-31T08:40:09Z</time>
      </trkpt>
      <trkpt lat="43.94888" lon="7.24342">
        <ele>1488.976</ele>
        <time>2009-05-31T08:40:18Z</time>
      </trkpt>
      <trkpt lat="43.94883" lon="7.2435">
        <ele>1486.344</ele>
        <time>2009-05-31T08:40:27Z</time>
      </trkpt>
      <trkpt lat="43.9488" lon="7.24346">
        <ele>1486.594</ele>
        <time>2009-05-31T08:40:37Z</time>
      </trkpt>
      <trkpt lat="43.94882" lon="7.24337">
        <ele>1486.05</ele>
        <time>2009-05-31T08:40:46Z</time>
      </trkpt>
      <trkpt lat="43.94882" lon="7.24334">
        <ele>1483.206</ele>
        <time>2009-05-31T08:40:56Z</time>
      </trkpt>
      <trkpt lat="43.94878" lon="7.24337">
        <ele>1481.007</ele>
        <time>2009-05-31T08:41:01Z</time>
      </trkpt>
      <trkpt lat="43.94875" lon="7.24342">
        <ele>1478.801</ele>
        <time>2009-05-31T08:41:08Z</time>
      </trkpt>
      <trkpt lat="43.94866" lon="7.24352">
        <ele>1475.582</ele>
        <time>2009-05-31T08:41:17Z</time>
      </trkpt>
      <trkpt lat="43.94866" lon="7.24357">
        <ele>1475.474</ele>
        <time>2009-05-31T08:41:19Z</time>
      </trkpt>
      <trkpt lat="43.94861" lon="7.24361">
        <ele>1474.154</ele>
        <time>2009-05-31T08:41:23Z</time>
      </trkpt>
      <trkpt lat="43.94852" lon="7.24369">
        <ele>1472.846</ele>
        <time>2009-05-31T08:41:28Z</time>
      </trkpt>
      <trkpt lat="43.94835" lon="7.24381">
        <ele>1471.249</ele>
        <time>2009-05-31T08:41:36Z</time>
      </trkpt>
      <trkpt lat="43.94825" lon="7.24395">
        <ele>1468.345</ele>
        <time>2009-05-31T08:41:42Z</time>
      </trkpt>
      <trkpt lat="43.94824" lon="7.24397">
        <ele>1467.973</ele>
        <time>2009-05-31T08:41:50Z</time>
      </trkpt>
      <trkpt lat="43.9481" lon="7.2441">
        <ele>1466.343</ele>
        <time>2009-05-31T08:41:56Z</time>
      </trkpt>
      <trkpt lat="43.94799" lon="7.24416">
        <ele>1465.528</ele>
        <time>2009-05-31T08:42:01Z</time>
      </trkpt>
      <trkpt lat="43.94798" lon="7.24416">
        <ele>1465.402</ele>
        <time>2009-05-31T08:42:06Z</time>
      </trkpt>
      <trkpt lat="43.94793" lon="7.24416">
        <ele>1465.206</ele>
        <time>2009-05-31T08:42:20Z</time>
      </trkpt>
      <trkpt lat="43.94787" lon="7.24417">
        <ele>1464.557</ele>
        <time>2009-05-31T08:42:32Z</time>
      </trkpt>
      <trkpt lat="43.94787" lon="7.24415">
        <ele>1464.106</ele>
        <time>2009-05-31T08:42:42Z</time>
      </trkpt>
      <trkpt lat="43.94792" lon="7.24403">
        <ele>1463.286</ele>
        <time>2009-05-31T08:42:53Z</time>
      </trkpt>
      <trkpt lat="43.94792" lon="7.24389">
        <ele>1462.868</ele>
        <time>2009-05-31T08:43:06Z</time>
      </trkpt>
      <trkpt lat="43.94791" lon="7.24389">
        <ele>1461.604</ele>
        <time>2009-05-31T08:43:17Z</time>
      </trkpt>
      <trkpt lat="43.94775" lon="7.24392">
        <ele>1458.423</ele>
        <time>2009-05-31T08:43:23Z</time>
      </trkpt>
      <trkpt lat="43.94774" lon="7.24401">
        <ele>1454.23</ele>
        <time>2009-05-31T08:43:30Z</time>
      </trkpt>
      <trkpt lat="43.94777" lon="7.24397">
        <ele>1452.853</ele>
        <time>2009-05-31T08:43:42Z</time>
      </trkpt>
      <trkpt lat="43.94779" lon="7.24396">
        <ele>1452.555</ele>
        <time>2009-05-31T08:43:43Z</time>
      </trkpt>
      <trkpt lat="43.94783" lon="7.24373">
        <ele>1451.104</ele>
        <time>2009-05-31T08:43:50Z</time>
      </trkpt>
      <trkpt lat="43.94783" lon="7.2437">
        <ele>1450.368</ele>
        <time>2009-05-31T08:43:55Z</time>
      </trkpt>
      <trkpt lat="43.94774" lon="7.24365">
        <ele>1449.335</ele>
        <time>2009-05-31T08:44:12Z</time>
      </trkpt>
      <trkpt lat="43.94768" lon="7.24364">
        <ele>1446.611</ele>
        <time>2009-05-31T08:44:23Z</time>
      </trkpt>
      <trkpt lat="43.94762" lon="7.24367">
        <ele>1443.152</ele>
        <time>2009-05-31T08:44:33Z</time>
      </trkpt>
      <trkpt lat="43.94757" lon="7.24367">
        <ele>1441.155</ele>
        <time>2009-05-31T08:44:46Z</time>
      </trkpt>
      <trkpt lat="43.94756" lon="7.24358">
        <ele>1438.443</ele>
        <time>2009-05-31T08:44:55Z</time>
      </trkpt>
      <trkpt lat="43.94758" lon="7.24352">
        <ele>1435.159</ele>
        <time>2009-05-31T08:45:05Z</time>
      </trkpt>
      <trkpt lat="43.94757" lon="7.2435">
        <ele>1434.019</ele>
        <time>2009-05-31T08:45:15Z</time>
      </trkpt>
      <trkpt lat="43.94749" lon="7.24346">
        <ele>1432.737</ele>
        <time>2009-05-31T08:45:23Z</time>
      </trkpt>
      <trkpt lat="43.94742" lon="7.2435">
        <ele>1428.868</ele>
        <time>2009-05-31T08:45:33Z</time>
      </trkpt>
      <trkpt lat="43.94736" lon="7.24355">
        <ele>1426.009</ele>
        <time>2009-05-31T08:45:41Z</time>
      </trkpt>
      <trkpt lat="43.94734" lon="7.24352">
        <ele>1425.092</ele>
        <time>2009-05-31T08:45:50Z</time>
      </trkpt>
      <trkpt lat="43.9473" lon="7.24346">
        <ele>1422.774</ele>
        <time>2009-05-31T08:46:00Z</time>
      </trkpt>
      <trkpt lat="43.94725" lon="7.24352">
        <ele>1421.418</ele>
        <time>2009-05-31T08:46:09Z</time>
      </trkpt>
      <trkpt lat="43.94722" lon="7.24348">
        <ele>1419.494</ele>
        <time>2009-05-31T08:46:18Z</time>
      </trkpt>
      <trkpt lat="43.94716" lon="7.24349">
        <ele>1416.749</ele>
        <time>2009-05-31T08:46:27Z</time>
      </trkpt>
      <trkpt lat="43.94713" lon="7.24346">
        <ele>1414.373</ele>
        <time>2009-05-31T08:46:35Z</time>
      </trkpt>
      <trkpt lat="43.94708" lon="7.24341">
        <ele>1413.235</ele>
        <time>2009-05-31T08:46:44Z</time>
      </trkpt>
      <trkpt lat="43.94709" lon="7.24334">
        <ele>1412.015</ele>
        <time>2009-05-31T08:46:55Z</time>
      </trkpt>
      <trkpt lat="43.94701" lon="7.24336">
        <ele>1411.075</ele>
        <time>2009-05-31T08:47:02Z</time>
      </trkpt>
      <trkpt lat="43.94698" lon="7.24335">
        <ele>1410.323</ele>
        <time>2009-05-31T08:47:11Z</time>
      </trkpt>
      <trkpt lat="43.94697" lon="7.24335">
        <ele>1409.489</ele>
        <time>2009-05-31T08:47:21Z</time>
      </trkpt>
      <trkpt lat="43.94694" lon="7.24335">
        <ele>1408.056</ele>
        <time>2009-05-31T08:47:30Z</time>
      </trkpt>
      <trkpt lat="43.94697" lon="7.24325">
        <ele>1407.053</ele>
        <time>2009-05-31T08:47:36Z</time>
      </trkpt>
      <trkpt lat="43.94697" lon="7.24322">
        <ele>1406.457</ele>
        <time>2009-05-31T08:47:37Z</time>
      </trkpt>
      <trkpt lat="43.94693" lon="7.24315">
        <ele>1402.982</ele>
        <time>2009-05-31T08:47:41Z</time>
      </trkpt>
      <trkpt lat="43.94688" lon="7.24316">
        <ele>1398.29</ele>
        <time>2009-05-31T08:47:50Z</time>
      </trkpt>
      <trkpt lat="43.94683" lon="7.24316">
        <ele>1397.193</ele>
        <time>2009-05-31T08:47:58Z</time>
      </trkpt>
      <trkpt lat="43.94679" lon="7.24319">
        <ele>1395.448</ele>
        <time>2009-05-31T08:48:05Z</time>
      </trkpt>
      <trkpt lat="43.94677" lon="7.24309">
        <ele>1394.974</ele>
        <time>2009-05-31T08:48:26Z</time>
      </trkpt>
      <trkpt lat="43.94673" lon="7.24301">
        <ele>1394.608</ele>
        <time>2009-05-31T08:48:34Z</time>
      </trkpt>
      <trkpt lat="43.94673" lon="7.24296">
        <ele>1393.998</ele>
        <time>2009-05-31T08:48:44Z</time>
      </trkpt>
      <trkpt lat="43.94672" lon="7.24292">
        <ele>1393.45</ele>
        <time>2009-05-31T08:48:59Z</time>
      </trkpt>
      <trkpt lat="43.94663" lon="7.24286">
        <ele>1391.9</ele>
        <time>2009-05-31T08:49:03Z</time>
      </trkpt>
      <trkpt lat="43.94658" lon="7.24283">
        <ele>1389.423</ele>
        <time>2009-05-31T08:49:06Z</time>
      </trkpt>
      <trkpt lat="43.94643" lon="7.24265">
        <ele>1386.535</ele>
        <time>2009-05-31T08:49:11Z</time>
      </trkpt>
      <trkpt lat="43.94634" lon="7.24248">
        <ele>1384.694</ele>
        <time>2009-05-31T08:49:14Z</time>
      </trkpt>
      <trkpt lat="43.94618" lon="7.24209">
        <ele>1381.795</ele>
        <time>2009-05-31T08:49:22Z</time>
      </trkpt>
      <trkpt lat="43.94605" lon="7.24186">
        <ele>1380.641</ele>
        <time>2009-05-31T08:49:27Z</time>
      </trkpt>
      <trkpt lat="43.94593" lon="7.24161">
        <ele>1379.085</ele>
        <time>2009-05-31T08:49:33Z</time>
      </trkpt>
      <trkpt lat="43.94587" lon="7.24144">
        <ele>1378.04</ele>
        <time>2009-05-31T08:49:36Z</time>
      </trkpt>
      <trkpt lat="43.94577" lon="7.24128">
        <ele>1376.962</ele>
        <time>2009-05-31T08:49:41Z</time>
      </trkpt>
      <trkpt lat="43.94574" lon="7.24119">
        <ele>1376.093</ele>
        <time>2009-05-31T08:49:47Z</time>
      </trkpt>
      <trkpt lat="43.94568" lon="7.24107">
        <ele>1375.532</ele>
        <time>2009-05-31T08:49:55Z</time>
      </trkpt>
      <trkpt lat="43.94569" lon="7.24101">
        <ele>1375.546</ele>
        <time>2009-05-31T08:49:58Z</time>
      </trkpt>
      <trkpt lat="43.94566" lon="7.24087">
        <ele>1375.302</ele>
        <time>2009-05-31T08:50:04Z</time>
      </trkpt>
      <trkpt lat="43.94566" lon="7.24082">
        <ele>1375.289</ele>
        <time>2009-05-31T08:50:06Z</time>
      </trkpt>
      <trkpt lat="43.94567" lon="7.24071">
        <ele>1374.941</ele>
        <time>2009-05-31T08:50:10Z</time>
      </trkpt>
      <trkpt lat="43.94565" lon="7.24063">
        <ele>1374.698</ele>
        <time>2009-05-31T08:50:17Z</time>
      </trkpt>
      <trkpt lat="43.94565" lon="7.24062">
        <ele>1374.68</ele>
        <time>2009-05-31T08:50:18Z</time>
      </trkpt>
      <trkpt lat="43.94562" lon="7.24046">
        <ele>1374.374</ele>
        <time>2009-05-31T08:50:26Z</time>
      </trkpt>
      <trkpt lat="43.9456" lon="7.24033">
        <ele>1374.331</ele>
        <time>2009-05-31T08:50:30Z</time>
      </trkpt>
      <trkpt lat="43.94559" lon="7.24004">
        <ele>1373.649</ele>
        <time>2009-05-31T08:50:36Z</time>
      </trkpt>
      <trkpt lat="43.94555" lon="7.23987">
        <ele>1372.904</ele>
        <time>2009-05-31T08:50:42Z</time>
      </trkpt>
      <trkpt lat="43.94553" lon="7.23974">
        <ele>1371.738</ele>
        <time>2009-05-31T08:50:52Z</time>
      </trkpt>
      <trkpt lat="43.94542" lon="7.23975">
        <ele>1369.555</ele>
        <time>2009-05-31T08:51:00Z</time>
      </trkpt>
      <trkpt lat="43.94538" lon="7.23976">
        <ele>1368.142</ele>
        <time>2009-05-31T08:51:05Z</time>
      </trkpt>
      <trkpt lat="43.94525" lon="7.23983">
        <ele>1363.967</ele>
        <time>2009-05-31T08:51:12Z</time>
      </trkpt>
      <trkpt lat="43.94522" lon="7.23984">
        <ele>1363.711</ele>
        <time>2009-05-31T08:51:13Z</time>
      </trkpt>
      <trkpt lat="43.94506" lon="7.23992">
        <ele>1362.11</ele>
        <time>2009-05-31T08:51:18Z</time>
      </trkpt>
      <trkpt lat="43.94495" lon="7.23999">
        <ele>1361.246</ele>
        <time>2009-05-31T08:51:21Z</time>
      </trkpt>
      <trkpt lat="43.94464" lon="7.24009">
        <ele>1358.797</ele>
        <time>2009-05-31T08:51:27Z</time>
      </trkpt>
      <trkpt lat="43.94445" lon="7.24019">
        <ele>1357.966</ele>
        <time>2009-05-31T08:51:32Z</time>
      </trkpt>
      <trkpt lat="43.94435" lon="7.24016">
        <ele>1357.902</ele>
        <time>2009-05-31T08:51:38Z</time>
      </trkpt>
      <trkpt lat="43.94435" lon="7.24016">
        <ele>1357.775</ele>
        <time>2009-05-31T08:51:49Z</time>
      </trkpt>
      <trkpt lat="43.94422" lon="7.24012">
        <ele>1357.006</ele>
        <time>2009-05-31T08:51:54Z</time>
      </trkpt>
      <trkpt lat="43.94404" lon="7.24015">
        <ele>1356.435</ele>
        <time>2009-05-31T08:52:00Z</time>
      </trkpt>
      <trkpt lat="43.94387" lon="7.24018">
        <ele>1356.253</ele>
        <time>2009-05-31T08:52:04Z</time>
      </trkpt>
      <trkpt lat="43.94351" lon="7.24013">
        <ele>1355.859</ele>
        <time>2009-05-31T08:52:11Z</time>
      </trkpt>
      <trkpt lat="43.94326" lon="7.24013">
        <ele>1355.499</ele>
        <time>2009-05-31T08:52:17Z</time>
      </trkpt>
      <trkpt lat="43.9431" lon="7.24011">
        <ele>1355.864</ele>
        <time>2009-05-31T08:52:22Z</time>
      </trkpt>
      <trkpt lat="43.94304" lon="7.24005">
        <ele>1356</ele>
        <time>2009-05-31T08:52:23Z</time>
      </trkpt>
      <trkpt lat="43.94264" lon="7.23988">
        <ele>1355.592</ele>
        <time>2009-05-31T08:52:29Z</time>
      </trkpt>
      <trkpt lat="43.9426" lon="7.23979">
        <ele>1355.484</ele>
        <time>2009-05-31T08:52:30Z</time>
      </trkpt>
      <trkpt lat="43.9425" lon="7.23956">
        <ele>1355.078</ele>
        <time>2009-05-31T08:52:33Z</time>
      </trkpt>
      <trkpt lat="43.94234" lon="7.23906">
        <ele>1354.437</ele>
        <time>2009-05-31T08:52:38Z</time>
      </trkpt>
      <trkpt lat="43.94235" lon="7.23839">
        <ele>1352.451</ele>
        <time>2009-05-31T08:52:44Z</time>
      </trkpt>
      <trkpt lat="43.94247" lon="7.2378">
        <ele>1349.758</ele>
        <time>2009-05-31T08:52:49Z</time>
      </trkpt>
      <trkpt lat="43.94263" lon="7.2374">
        <ele>1347.284</ele>
        <time>2009-05-31T08:52:53Z</time>
      </trkpt>
      <trkpt lat="43.94268" lon="7.23707">
        <ele>1343.879</ele>
        <time>2009-05-31T08:52:58Z</time>
      </trkpt>
      <trkpt lat="43.94253" lon="7.23717">
        <ele>1341.625</ele>
        <time>2009-05-31T08:53:01Z</time>
      </trkpt>
      <trkpt lat="43.9425" lon="7.23726">
        <ele>1340.804</ele>
        <time>2009-05-31T08:53:02Z</time>
      </trkpt>
      <trkpt lat="43.9424" lon="7.23755">
        <ele>1336.844</ele>
        <time>2009-05-31T08:53:05Z</time>
      </trkpt>
      <trkpt lat="43.94228" lon="7.23778">
        <ele>1333.492</ele>
        <time>2009-05-31T08:53:08Z</time>
      </trkpt>
      <trkpt lat="43.94214" lon="7.23814">
        <ele>1327.081</ele>
        <time>2009-05-31T08:53:12Z</time>
      </trkpt>
      <trkpt lat="43.94198" lon="7.23853">
        <ele>1319.679</ele>
        <time>2009-05-31T08:53:17Z</time>
      </trkpt>
      <trkpt lat="43.94172" lon="7.23857">
        <ele>1315.742</ele>
        <time>2009-05-31T08:53:21Z</time>
      </trkpt>
      <trkpt lat="43.94143" lon="7.23858">
        <ele>1312.182</ele>
        <time>2009-05-31T08:53:25Z</time>
      </trkpt>
      <trkpt lat="43.94104" lon="7.23844">
        <ele>1307.684</ele>
        <time>2009-05-31T08:53:30Z</time>
      </trkpt>
      <trkpt lat="43.9408" lon="7.23838">
        <ele>1302.416</ele>
        <time>2009-05-31T08:53:35Z</time>
      </trkpt>
      <trkpt lat="43.94075" lon="7.23867">
        <ele>1295.833</ele>
        <time>2009-05-31T08:53:39Z</time>
      </trkpt>
      <trkpt lat="43.94074" lon="7.23883">
        <ele>1293.582</ele>
        <time>2009-05-31T08:53:41Z</time>
      </trkpt>
      <trkpt lat="43.94072" lon="7.23899">
        <ele>1292.018</ele>
        <time>2009-05-31T08:53:43Z</time>
      </trkpt>
      <trkpt lat="43.94061" lon="7.23916">
        <ele>1288.157</ele>
        <time>2009-05-31T08:53:47Z</time>
      </trkpt>
      <trkpt lat="43.94038" lon="7.23939">
        <ele>1283.565</ele>
        <time>2009-05-31T08:53:52Z</time>
      </trkpt>
      <trkpt lat="43.94021" lon="7.23947">
        <ele>1279.908</ele>
        <time>2009-05-31T08:53:56Z</time>
      </trkpt>
      <trkpt lat="43.9399" lon="7.23941">
        <ele>1274.891</ele>
        <time>2009-05-31T08:54:01Z</time>
      </trkpt>
      <trkpt lat="43.93961" lon="7.23956">
        <ele>1269.989</ele>
        <time>2009-05-31T08:54:07Z</time>
      </trkpt>
      <trkpt lat="43.93946" lon="7.23962">
        <ele>1268.131</ele>
        <time>2009-05-31T08:54:10Z</time>
      </trkpt>
      <trkpt lat="43.93936" lon="7.23967">
        <ele>1267.491</ele>
        <time>2009-05-31T08:54:12Z</time>
      </trkpt>
      <trkpt lat="43.93918" lon="7.23974">
        <ele>1265.583</ele>
        <time>2009-05-31T08:54:16Z</time>
      </trkpt>
      <trkpt lat="43.93909" lon="7.23981">
        <ele>1264.623</ele>
        <time>2009-05-31T08:54:18Z</time>
      </trkpt>
      <trkpt lat="43.93893" lon="7.23991">
        <ele>1263.593</ele>
        <time>2009-05-31T08:54:22Z</time>
      </trkpt>
      <trkpt lat="43.93876" lon="7.23998">
        <ele>1262.144</ele>
        <time>2009-05-31T08:54:26Z</time>
      </trkpt>
      <trkpt lat="43.93856" lon="7.23986">
        <ele>1260.804</ele>
        <time>2009-05-31T08:54:31Z</time>
      </trkpt>
      <trkpt lat="43.93853" lon="7.23982">
        <ele>1260.492</ele>
        <time>2009-05-31T08:54:32Z</time>
      </trkpt>
      <trkpt lat="43.93834" lon="7.2399">
        <ele>1258.521</ele>
        <time>2009-05-31T08:54:37Z</time>
      </trkpt>
      <trkpt lat="43.93826" lon="7.23988">
        <ele>1257.852</ele>
        <time>2009-05-31T08:54:39Z</time>
      </trkpt>
      <trkpt lat="43.93815" lon="7.23981">
        <ele>1256.892</ele>
        <time>2009-05-31T08:54:42Z</time>
      </trkpt>
      <trkpt lat="43.93798" lon="7.23991">
        <ele>1254.249</ele>
        <time>2009-05-31T08:54:46Z</time>
      </trkpt>
      <trkpt lat="43.93791" lon="7.24023">
        <ele>1250.008</ele>
        <time>2009-05-31T08:54:51Z</time>
      </trkpt>
      <trkpt lat="43.93784" lon="7.24049">
        <ele>1247.162</ele>
        <time>2009-05-31T08:54:55Z</time>
      </trkpt>
      <trkpt lat="43.93785" lon="7.24065">
        <ele>1245.229</ele>
        <time>2009-05-31T08:54:58Z</time>
      </trkpt>
      <trkpt lat="43.93792" lon="7.24075">
        <ele>1244.138</ele>
        <time>2009-05-31T08:55:00Z</time>
      </trkpt>
      <trkpt lat="43.93797" lon="7.24119">
        <ele>1241.251</ele>
        <time>2009-05-31T08:55:06Z</time>
      </trkpt>
      <trkpt lat="43.93796" lon="7.24127">
        <ele>1240.641</ele>
        <time>2009-05-31T08:55:07Z</time>
      </trkpt>
      <trkpt lat="43.93794" lon="7.24158">
        <ele>1237.766</ele>
        <time>2009-05-31T08:55:13Z</time>
      </trkpt>
      <trkpt lat="43.9379" lon="7.24163">
        <ele>1237.186</ele>
        <time>2009-05-31T08:55:14Z</time>
      </trkpt>
      <trkpt lat="43.93779" lon="7.24195">
        <ele>1234.796</ele>
        <time>2009-05-31T08:55:19Z</time>
      </trkpt>
      <trkpt lat="43.93759" lon="7.24228">
        <ele>1232.372</ele>
        <time>2009-05-31T08:55:25Z</time>
      </trkpt>
      <trkpt lat="43.93734" lon="7.24238">
        <ele>1230.161</ele>
        <time>2009-05-31T08:55:30Z</time>
      </trkpt>
      <trkpt lat="43.93711" lon="7.24252">
        <ele>1226.744</ele>
        <time>2009-05-31T08:55:35Z</time>
      </trkpt>
      <trkpt lat="43.93704" lon="7.24274">
        <ele>1224.636</ele>
        <time>2009-05-31T08:55:38Z</time>
      </trkpt>
      <trkpt lat="43.937" lon="7.2428">
        <ele>1224.058</ele>
        <time>2009-05-31T08:55:39Z</time>
      </trkpt>
      <trkpt lat="43.93672" lon="7.24303">
        <ele>1221.472</ele>
        <time>2009-05-31T08:55:45Z</time>
      </trkpt>
      <trkpt lat="43.93665" lon="7.24318">
        <ele>1220.459</ele>
        <time>2009-05-31T08:55:47Z</time>
      </trkpt>
      <trkpt lat="43.93642" lon="7.24333">
        <ele>1218.523</ele>
        <time>2009-05-31T08:55:52Z</time>
      </trkpt>
      <trkpt lat="43.9362" lon="7.24342">
        <ele>1215.8</ele>
        <time>2009-05-31T08:55:58Z</time>
      </trkpt>
      <trkpt lat="43.93617" lon="7.24344">
        <ele>1215.374</ele>
        <time>2009-05-31T08:55:59Z</time>
      </trkpt>
      <trkpt lat="43.93609" lon="7.24345">
        <ele>1214.215</ele>
        <time>2009-05-31T08:56:01Z</time>
      </trkpt>
      <trkpt lat="43.93586" lon="7.24337">
        <ele>1212.405</ele>
        <time>2009-05-31T08:56:06Z</time>
      </trkpt>
      <trkpt lat="43.93576" lon="7.24351">
        <ele>1211.955</ele>
        <time>2009-05-31T08:56:09Z</time>
      </trkpt>
      <trkpt lat="43.9357" lon="7.2436">
        <ele>1211.571</ele>
        <time>2009-05-31T08:56:11Z</time>
      </trkpt>
      <trkpt lat="43.93552" lon="7.24364">
        <ele>1210.497</ele>
        <time>2009-05-31T08:56:16Z</time>
      </trkpt>
      <trkpt lat="43.93518" lon="7.24355">
        <ele>1209.758</ele>
        <time>2009-05-31T08:56:23Z</time>
      </trkpt>
      <trkpt lat="43.93493" lon="7.24345">
        <ele>1209.249</ele>
        <time>2009-05-31T08:56:28Z</time>
      </trkpt>
      <trkpt lat="43.93466" lon="7.24323">
        <ele>1209.203</ele>
        <time>2009-05-31T08:56:34Z</time>
      </trkpt>
      <trkpt lat="43.93443" lon="7.24308">
        <ele>1209.875</ele>
        <time>2009-05-31T08:56:39Z</time>
      </trkpt>
      <trkpt lat="43.9342" lon="7.24314">
        <ele>1210.874</ele>
        <time>2009-05-31T08:56:44Z</time>
      </trkpt>
      <trkpt lat="43.93384" lon="7.24341">
        <ele>1210.381</ele>
        <time>2009-05-31T08:56:52Z</time>
      </trkpt>
      <trkpt lat="43.93373" lon="7.24348">
        <ele>1210.253</ele>
        <time>2009-05-31T08:56:54Z</time>
      </trkpt>
      <trkpt lat="43.93353" lon="7.24369">
        <ele>1208.317</ele>
        <time>2009-05-31T08:57:01Z</time>
      </trkpt>
      <trkpt lat="43.93335" lon="7.24368">
        <ele>1207.572</ele>
        <time>2009-05-31T08:57:07Z</time>
      </trkpt>
      <trkpt lat="43.93328" lon="7.24366">
        <ele>1207.597</ele>
        <time>2009-05-31T08:57:10Z</time>
      </trkpt>
      <trkpt lat="43.93313" lon="7.24387">
        <ele>1206.216</ele>
        <time>2009-05-31T08:57:16Z</time>
      </trkpt>
      <trkpt lat="43.93293" lon="7.24395">
        <ele>1204.773</ele>
        <time>2009-05-31T08:57:22Z</time>
      </trkpt>
      <trkpt lat="43.93273" lon="7.24407">
        <ele>1202.655</ele>
        <time>2009-05-31T08:57:28Z</time>
      </trkpt>
      <trkpt lat="43.9327" lon="7.24411">
        <ele>1202.393</ele>
        <time>2009-05-31T08:57:29Z</time>
      </trkpt>
      <trkpt lat="43.93252" lon="7.24429">
        <ele>1199.972</ele>
        <time>2009-05-31T08:57:35Z</time>
      </trkpt>
      <trkpt lat="43.93238" lon="7.24444">
        <ele>1196.613</ele>
        <time>2009-05-31T08:57:40Z</time>
      </trkpt>
      <trkpt lat="43.9323" lon="7.24461">
        <ele>1192.449</ele>
        <time>2009-05-31T08:57:46Z</time>
      </trkpt>
      <trkpt lat="43.93228" lon="7.24475">
        <ele>1190.976</ele>
        <time>2009-05-31T08:57:48Z</time>
      </trkpt>
      <trkpt lat="43.93222" lon="7.24496">
        <ele>1189.036</ele>
        <time>2009-05-31T08:57:51Z</time>
      </trkpt>
      <trkpt lat="43.93213" lon="7.2452">
        <ele>1185.741</ele>
        <time>2009-05-31T08:57:56Z</time>
      </trkpt>
      <trkpt lat="43.93211" lon="7.24523">
        <ele>1184.833</ele>
        <time>2009-05-31T08:57:57Z</time>
      </trkpt>
      <trkpt lat="43.93202" lon="7.24541">
        <ele>1181.264</ele>
        <time>2009-05-31T08:58:01Z</time>
      </trkpt>
      <trkpt lat="43.9319" lon="7.24548">
        <ele>1177.72</ele>
        <time>2009-05-31T08:58:05Z</time>
      </trkpt>
      <trkpt lat="43.9318" lon="7.24547">
        <ele>1174.632</ele>
        <time>2009-05-31T08:58:27Z</time>
      </trkpt>
      <trkpt lat="43.9316" lon="7.24547">
        <ele>1167.029</ele>
        <time>2009-05-31T08:58:33Z</time>
      </trkpt>
      <trkpt lat="43.93144" lon="7.24542">
        <ele>1162.563</ele>
        <time>2009-05-31T08:58:38Z</time>
      </trkpt>
      <trkpt lat="43.93137" lon="7.24538">
        <ele>1160.725</ele>
        <time>2009-05-31T08:58:43Z</time>
      </trkpt>
      <trkpt lat="43.93134" lon="7.24536">
        <ele>1158.646</ele>
        <time>2009-05-31T08:58:55Z</time>
      </trkpt>
      <trkpt lat="43.93128" lon="7.24534">
        <ele>1156.822</ele>
        <time>2009-05-31T08:59:04Z</time>
      </trkpt>
      <trkpt lat="43.93122" lon="7.24528">
        <ele>1155.441</ele>
        <time>2009-05-31T08:59:12Z</time>
      </trkpt>
      <trkpt lat="43.93117" lon="7.24526">
        <ele>1155.131</ele>
        <time>2009-05-31T08:59:14Z</time>
      </trkpt>
      <trkpt lat="43.93103" lon="7.24535">
        <ele>1154.337</ele>
        <time>2009-05-31T08:59:19Z</time>
      </trkpt>
      <trkpt lat="43.9308" lon="7.24537">
        <ele>1153.963</ele>
        <time>2009-05-31T08:59:23Z</time>
      </trkpt>
      <trkpt lat="43.93066" lon="7.24534">
        <ele>1151.215</ele>
        <time>2009-05-31T08:59:28Z</time>
      </trkpt>
      <trkpt lat="43.9306" lon="7.24526">
        <ele>1149.83</ele>
        <time>2009-05-31T08:59:33Z</time>
      </trkpt>
      <trkpt lat="43.93055" lon="7.24514">
        <ele>1147.483</ele>
        <time>2009-05-31T08:59:36Z</time>
      </trkpt>
      <trkpt lat="43.93045" lon="7.24505">
        <ele>1145.733</ele>
        <time>2009-05-31T08:59:39Z</time>
      </trkpt>
      <trkpt lat="43.93025" lon="7.24498">
        <ele>1141.426</ele>
        <time>2009-05-31T08:59:45Z</time>
      </trkpt>
      <trkpt lat="43.93013" lon="7.24515">
        <ele>1138.418</ele>
        <time>2009-05-31T08:59:50Z</time>
      </trkpt>
      <trkpt lat="43.93002" lon="7.2452">
        <ele>1136.337</ele>
        <time>2009-05-31T08:59:54Z</time>
      </trkpt>
      <trkpt lat="43.92992" lon="7.24521">
        <ele>1135.283</ele>
        <time>2009-05-31T09:00:00Z</time>
      </trkpt>
      <trkpt lat="43.92984" lon="7.2452">
        <ele>1134.148</ele>
        <time>2009-05-31T09:00:25Z</time>
      </trkpt>
      <trkpt lat="43.92964" lon="7.24511">
        <ele>1131.708</ele>
        <time>2009-05-31T09:00:32Z</time>
      </trkpt>
      <trkpt lat="43.92947" lon="7.245">
        <ele>1128.202</ele>
        <time>2009-05-31T09:00:37Z</time>
      </trkpt>
      <trkpt lat="43.92944" lon="7.24498">
        <ele>1127.144</ele>
        <time>2009-05-31T09:00:38Z</time>
      </trkpt>
      <trkpt lat="43.92929" lon="7.24502">
        <ele>1122.926</ele>
        <time>2009-05-31T09:00:43Z</time>
      </trkpt>
      <trkpt lat="43.92925" lon="7.24508">
        <ele>1123.514</ele>
        <time>2009-05-31T09:00:45Z</time>
      </trkpt>
      <trkpt lat="43.92911" lon="7.24507">
        <ele>1120.741</ele>
        <time>2009-05-31T09:00:50Z</time>
      </trkpt>
      <trkpt lat="43.92893" lon="7.24505">
        <ele>1118.027</ele>
        <time>2009-05-31T09:00:57Z</time>
      </trkpt>
      <trkpt lat="43.92884" lon="7.24523">
        <ele>1116.083</ele>
        <time>2009-05-31T09:01:02Z</time>
      </trkpt>
      <trkpt lat="43.92864" lon="7.24526">
        <ele>1111.289</ele>
        <time>2009-05-31T09:01:09Z</time>
      </trkpt>
      <trkpt lat="43.92851" lon="7.2454">
        <ele>1109.423</ele>
        <time>2009-05-31T09:01:14Z</time>
      </trkpt>
      <trkpt lat="43.92842" lon="7.24535">
        <ele>1105.816</ele>
        <time>2009-05-31T09:01:19Z</time>
      </trkpt>
      <trkpt lat="43.92832" lon="7.24516">
        <ele>1102.748</ele>
        <time>2009-05-31T09:01:26Z</time>
      </trkpt>
      <trkpt lat="43.92828" lon="7.24518">
        <ele>1102.07</ele>
        <time>2009-05-31T09:01:27Z</time>
      </trkpt>
      <trkpt lat="43.92819" lon="7.24521">
        <ele>1101.42</ele>
        <time>2009-05-31T09:01:29Z</time>
      </trkpt>
      <trkpt lat="43.92792" lon="7.2453">
        <ele>1098.897</ele>
        <time>2009-05-31T09:01:35Z</time>
      </trkpt>
      <trkpt lat="43.92773" lon="7.24534">
        <ele>1096.035</ele>
        <time>2009-05-31T09:01:41Z</time>
      </trkpt>
      <trkpt lat="43.92756" lon="7.24538">
        <ele>1093.102</ele>
        <time>2009-05-31T09:01:48Z</time>
      </trkpt>
      <trkpt lat="43.92756" lon="7.24539">
        <ele>1092.733</ele>
        <time>2009-05-31T09:01:49Z</time>
      </trkpt>
      <trkpt lat="43.92755" lon="7.24543">
        <ele>1090.026</ele>
        <time>2009-05-31T09:01:56Z</time>
      </trkpt>
      <trkpt lat="43.92754" lon="7.24543">
        <ele>1088.628</ele>
        <time>2009-05-31T09:02:05Z</time>
      </trkpt>
      <trkpt lat="43.9275" lon="7.2453">
        <ele>1087.146</ele>
        <time>2009-05-31T09:02:10Z</time>
      </trkpt>
      <trkpt lat="43.92737" lon="7.24501">
        <ele>1083.523</ele>
        <time>2009-05-31T09:02:17Z</time>
      </trkpt>
      <trkpt lat="43.92728" lon="7.24481">
        <ele>1083.996</ele>
        <time>2009-05-31T09:02:23Z</time>
      </trkpt>
      <trkpt lat="43.92727" lon="7.24476">
        <ele>1084.399</ele>
        <time>2009-05-31T09:02:28Z</time>
      </trkpt>
      <trkpt lat="43.92726" lon="7.24469">
        <ele>1084.145</ele>
        <time>2009-05-31T09:02:36Z</time>
      </trkpt>
      <trkpt lat="43.92725" lon="7.24463">
        <ele>1083.831</ele>
        <time>2009-05-31T09:02:41Z</time>
      </trkpt>
      <trkpt lat="43.92717" lon="7.24462">
        <ele>1084.318</ele>
        <time>2009-05-31T09:02:50Z</time>
      </trkpt>
      <trkpt lat="43.927" lon="7.24459">
        <ele>1085.545</ele>
        <time>2009-05-31T09:03:03Z</time>
      </trkpt>
      <trkpt lat="43.92692" lon="7.24457">
        <ele>1084.316</ele>
        <time>2009-05-31T09:03:13Z</time>
      </trkpt>
      <trkpt lat="43.92687" lon="7.24453">
        <ele>1084.523</ele>
        <time>2009-05-31T09:03:22Z</time>
      </trkpt>
      <trkpt lat="43.92681" lon="7.24451">
        <ele>1085.342</ele>
        <time>2009-05-31T09:03:28Z</time>
      </trkpt>
      <trkpt lat="43.92667" lon="7.24442">
        <ele>1087.46</ele>
        <time>2009-05-31T09:03:35Z</time>
      </trkpt>
      <trkpt lat="43.92646" lon="7.24451">
        <ele>1085.216</ele>
        <time>2009-05-31T09:03:40Z</time>
      </trkpt>
      <trkpt lat="43.92635" lon="7.24455">
        <ele>1085.187</ele>
        <time>2009-05-31T09:03:42Z</time>
      </trkpt>
      <trkpt lat="43.92616" lon="7.24458">
        <ele>1084.457</ele>
        <time>2009-05-31T09:03:47Z</time>
      </trkpt>
      <trkpt lat="43.92605" lon="7.24465">
        <ele>1081.487</ele>
        <time>2009-05-31T09:03:53Z</time>
      </trkpt>
      <trkpt lat="43.92594" lon="7.24448">
        <ele>1077.548</ele>
        <time>2009-05-31T09:03:59Z</time>
      </trkpt>
      <trkpt lat="43.92589" lon="7.24436">
        <ele>1074.866</ele>
        <time>2009-05-31T09:04:03Z</time>
      </trkpt>
      <trkpt lat="43.92581" lon="7.24414">
        <ele>1069.967</ele>
        <time>2009-05-31T09:04:10Z</time>
      </trkpt>
      <trkpt lat="43.92575" lon="7.24402">
        <ele>1066.884</ele>
        <time>2009-05-31T09:04:14Z</time>
      </trkpt>
      <trkpt lat="43.92566" lon="7.24406">
        <ele>1064.409</ele>
        <time>2009-05-31T09:04:18Z</time>
      </trkpt>
      <trkpt lat="43.92539" lon="7.24414">
        <ele>1057.483</ele>
        <time>2009-05-31T09:04:25Z</time>
      </trkpt>
      <trkpt lat="43.92532" lon="7.24416">
        <ele>1053.854</ele>
        <time>2009-05-31T09:04:30Z</time>
      </trkpt>
      <trkpt lat="43.92532" lon="7.24416">
        <ele>1052.978</ele>
        <time>2009-05-31T09:04:50Z</time>
      </trkpt>
      <trkpt lat="43.92538" lon="7.24421">
        <ele>1052.217</ele>
        <time>2009-05-31T09:04:54Z</time>
      </trkpt>
      <trkpt lat="43.92544" lon="7.2443">
        <ele>1050.857</ele>
        <time>2009-05-31T09:05:01Z</time>
      </trkpt>
      <trkpt lat="43.92545" lon="7.24437">
        <ele>1051.531</ele>
        <time>2009-05-31T09:05:12Z</time>
      </trkpt>
      <trkpt lat="43.92536" lon="7.24443">
        <ele>1052.006</ele>
        <time>2009-05-31T09:05:29Z</time>
      </trkpt>
      <trkpt lat="43.9253" lon="7.24449">
        <ele>1051.978</ele>
        <time>2009-05-31T09:05:37Z</time>
      </trkpt>
      <trkpt lat="43.92511" lon="7.24458">
        <ele>1051.767</ele>
        <time>2009-05-31T09:05:42Z</time>
      </trkpt>
      <trkpt lat="43.92505" lon="7.24466">
        <ele>1051.895</ele>
        <time>2009-05-31T09:05:45Z</time>
      </trkpt>
      <trkpt lat="43.92499" lon="7.24471">
        <ele>1051.891</ele>
        <time>2009-05-31T09:05:47Z</time>
      </trkpt>
      <trkpt lat="43.9248" lon="7.24487">
        <ele>1048.437</ele>
        <time>2009-05-31T09:05:53Z</time>
      </trkpt>
      <trkpt lat="43.92473" lon="7.24511">
        <ele>1041.856</ele>
        <time>2009-05-31T09:07:07Z</time>
      </trkpt>
      <trkpt lat="43.92456" lon="7.24518">
        <ele>1041.032</ele>
        <time>2009-05-31T09:07:21Z</time>
      </trkpt>
      <trkpt lat="43.92453" lon="7.24527">
        <ele>1040.433</ele>
        <time>2009-05-31T09:07:33Z</time>
      </trkpt>
      <trkpt lat="43.92447" lon="7.24536">
        <ele>1038.5</ele>
        <time>2009-05-31T09:07:44Z</time>
      </trkpt>
      <trkpt lat="43.92453" lon="7.24538">
        <ele>1037.313</ele>
        <time>2009-05-31T09:07:49Z</time>
      </trkpt>
      <trkpt lat="43.92455" lon="7.24541">
        <ele>1035.711</ele>
        <time>2009-05-31T09:08:00Z</time>
      </trkpt>
      <trkpt lat="43.92446" lon="7.24545">
        <ele>1030.345</ele>
        <time>2009-05-31T09:08:16Z</time>
      </trkpt>
      <trkpt lat="43.92445" lon="7.24549">
        <ele>1025.183</ele>
        <time>2009-05-31T09:08:28Z</time>
      </trkpt>
      <trkpt lat="43.92442" lon="7.2456">
        <ele>1018.813</ele>
        <time>2009-05-31T09:08:39Z</time>
      </trkpt>
      <trkpt lat="43.92437" lon="7.24562">
        <ele>1009.052</ele>
        <time>2009-05-31T09:08:49Z</time>
      </trkpt>
      <trkpt lat="43.92438" lon="7.24563">
        <ele>1005.753</ele>
        <time>2009-05-31T09:08:59Z</time>
      </trkpt>
      <trkpt lat="43.92432" lon="7.2457">
        <ele>1002.942</ele>
        <time>2009-05-31T09:09:02Z</time>
      </trkpt>
      <trkpt lat="43.92413" lon="7.24582">
        <ele>998.071</ele>
        <time>2009-05-31T09:09:07Z</time>
      </trkpt>
      <trkpt lat="43.92411" lon="7.2458">
        <ele>996.712</ele>
        <time>2009-05-31T09:09:08Z</time>
      </trkpt>
      <trkpt lat="43.92396" lon="7.24567">
        <ele>991.75</ele>
        <time>2009-05-31T09:09:16Z</time>
      </trkpt>
      <trkpt lat="43.92389" lon="7.24566">
        <ele>989.203</ele>
        <time>2009-05-31T09:09:20Z</time>
      </trkpt>
      <trkpt lat="43.9238" lon="7.24565">
        <ele>986.911</ele>
        <time>2009-05-31T09:09:25Z</time>
      </trkpt>
      <trkpt lat="43.92374" lon="7.24561">
        <ele>987.834</ele>
        <time>2009-05-31T09:09:29Z</time>
      </trkpt>
      <trkpt lat="43.92367" lon="7.24541">
        <ele>986.108</ele>
        <time>2009-05-31T09:09:36Z</time>
      </trkpt>
      <trkpt lat="43.92357" lon="7.24526">
        <ele>981.711</ele>
        <time>2009-05-31T09:09:42Z</time>
      </trkpt>
      <trkpt lat="43.92316" lon="7.24455">
        <ele>979.226</ele>
        <time>2009-05-31T09:12:27Z</time>
      </trkpt>
      <trkpt lat="43.92313" lon="7.24431">
        <ele>979.132</ele>
        <time>2009-05-31T09:12:39Z</time>
      </trkpt>
      <trkpt lat="43.92309" lon="7.24419">
        <ele>978.216</ele>
        <time>2009-05-31T09:12:47Z</time>
      </trkpt>
      <trkpt lat="43.92305" lon="7.24415">
        <ele>976.37</ele>
        <time>2009-05-31T09:12:58Z</time>
      </trkpt>
      <trkpt lat="43.92301" lon="7.2441">
        <ele>975.42</ele>
        <time>2009-05-31T09:13:09Z</time>
      </trkpt>
      <trkpt lat="43.923" lon="7.2441">
        <ele>974.569</ele>
        <time>2009-05-31T09:13:18Z</time>
      </trkpt>
      <trkpt lat="43.92294" lon="7.2441">
        <ele>974.381</ele>
        <time>2009-05-31T09:13:28Z</time>
      </trkpt>
      <trkpt lat="43.92285" lon="7.24415">
        <ele>973.825</ele>
        <time>2009-05-31T09:13:40Z</time>
      </trkpt>
      <trkpt lat="43.92281" lon="7.24413">
        <ele>973.436</ele>
        <time>2009-05-31T09:13:48Z</time>
      </trkpt>
      <trkpt lat="43.92268" lon="7.24407">
        <ele>973.249</ele>
        <time>2009-05-31T09:13:53Z</time>
      </trkpt>
      <trkpt lat="43.92266" lon="7.24405">
        <ele>973.174</ele>
        <time>2009-05-31T09:13:57Z</time>
      </trkpt>
      <trkpt lat="43.92267" lon="7.24407">
        <ele>972.921</ele>
        <time>2009-05-31T09:14:02Z</time>
      </trkpt>
      <trkpt lat="43.92261" lon="7.24407">
        <ele>972.681</ele>
        <time>2009-05-31T09:14:06Z</time>
      </trkpt>
      <trkpt lat="43.92246" lon="7.24403">
        <ele>972.387</ele>
        <time>2009-05-31T09:14:12Z</time>
      </trkpt>
      <trkpt lat="43.92239" lon="7.24388">
        <ele>972.128</ele>
        <time>2009-05-31T09:14:17Z</time>
      </trkpt>
      <trkpt lat="43.92227" lon="7.24391">
        <ele>969.782</ele>
        <time>2009-05-31T09:14:22Z</time>
      </trkpt>
      <trkpt lat="43.92215" lon="7.24399">
        <ele>963.976</ele>
        <time>2009-05-31T09:14:27Z</time>
      </trkpt>
      <trkpt lat="43.92213" lon="7.24396">
        <ele>962.756</ele>
        <time>2009-05-31T09:14:28Z</time>
      </trkpt>
      <trkpt lat="43.92201" lon="7.2437">
        <ele>953.178</ele>
        <time>2009-05-31T09:14:35Z</time>
      </trkpt>
      <trkpt lat="43.922" lon="7.24369">
        <ele>951.433</ele>
        <time>2009-05-31T09:14:36Z</time>
      </trkpt>
      <trkpt lat="43.92198" lon="7.24361">
        <ele>944.593</ele>
        <time>2009-05-31T09:14:42Z</time>
      </trkpt>
      <trkpt lat="43.92195" lon="7.24353">
        <ele>939.15</ele>
        <time>2009-05-31T09:14:51Z</time>
      </trkpt>
      <trkpt lat="43.92187" lon="7.24345">
        <ele>933.114</ele>
        <time>2009-05-31T09:15:04Z</time>
      </trkpt>
      <trkpt lat="43.92176" lon="7.24344">
        <ele>928.484</ele>
        <time>2009-05-31T09:15:16Z</time>
      </trkpt>
      <trkpt lat="43.92169" lon="7.2434">
        <ele>923.934</ele>
        <time>2009-05-31T09:15:27Z</time>
      </trkpt>
      <trkpt lat="43.92168" lon="7.24344">
        <ele>923.065</ele>
        <time>2009-05-31T09:15:33Z</time>
      </trkpt>
      <trkpt lat="43.92153" lon="7.24359">
        <ele>922.152</ele>
        <time>2009-05-31T09:15:40Z</time>
      </trkpt>
      <trkpt lat="43.92143" lon="7.24376">
        <ele>919.737</ele>
        <time>2009-05-31T09:15:46Z</time>
      </trkpt>
      <trkpt lat="43.92124" lon="7.24387">
        <ele>912.667</ele>
        <time>2009-05-31T09:15:52Z</time>
      </trkpt>
      <trkpt lat="43.92109" lon="7.24382">
        <ele>906.615</ele>
        <time>2009-05-31T09:15:57Z</time>
      </trkpt>
      <trkpt lat="43.92104" lon="7.2439">
        <ele>901.696</ele>
        <time>2009-05-31T09:16:03Z</time>
      </trkpt>
      <trkpt lat="43.92102" lon="7.24391">
        <ele>900.11</ele>
        <time>2009-05-31T09:16:13Z</time>
      </trkpt>
      <trkpt lat="43.92095" lon="7.24392">
        <ele>898.975</ele>
        <time>2009-05-31T09:16:18Z</time>
      </trkpt>
      <trkpt lat="43.92095" lon="7.24387">
        <ele>898.03</ele>
        <time>2009-05-31T09:16:31Z</time>
      </trkpt>
      <trkpt lat="43.92089" lon="7.24389">
        <ele>896.267</ele>
        <time>2009-05-31T09:16:53Z</time>
      </trkpt>
      <trkpt lat="43.92077" lon="7.24381">
        <ele>895.374</ele>
        <time>2009-05-31T09:17:06Z</time>
      </trkpt>
      <trkpt lat="43.92072" lon="7.24384">
        <ele>894.443</ele>
        <time>2009-05-31T09:17:16Z</time>
      </trkpt>
      <trkpt lat="43.92063" lon="7.24376">
        <ele>893.235</ele>
        <time>2009-05-31T09:17:26Z</time>
      </trkpt>
      <trkpt lat="43.92063" lon="7.24374">
        <ele>893.12</ele>
        <time>2009-05-31T09:17:27Z</time>
      </trkpt>
      <trkpt lat="43.92052" lon="7.24369">
        <ele>891.673</ele>
        <time>2009-05-31T09:17:38Z</time>
      </trkpt>
      <trkpt lat="43.92054" lon="7.24367">
        <ele>890.404</ele>
        <time>2009-05-31T09:17:48Z</time>
      </trkpt>
      <trkpt lat="43.92051" lon="7.2436">
        <ele>878.42</ele>
        <time>2009-05-31T09:25:32Z</time>
      </trkpt>
      <trkpt lat="43.92053" lon="7.24354">
        <ele>870.643</ele>
        <time>2009-05-31T09:26:29Z</time>
      </trkpt>
      <trkpt lat="43.92053" lon="7.24352">
        <ele>870.474</ele>
        <time>2009-05-31T09:26:32Z</time>
      </trkpt>
      <trkpt lat="43.92052" lon="7.24339">
        <ele>868.457</ele>
        <time>2009-05-31T09:26:38Z</time>
      </trkpt>
      <trkpt lat="43.92049" lon="7.24323">
        <ele>865.863</ele>
        <time>2009-05-31T09:26:47Z</time>
      </trkpt>
      <trkpt lat="43.92047" lon="7.24317">
        <ele>864.954</ele>
        <time>2009-05-31T09:26:51Z</time>
      </trkpt>
      <trkpt lat="43.92041" lon="7.24309">
        <ele>864.417</ele>
        <time>2009-05-31T09:26:59Z</time>
      </trkpt>
      <trkpt lat="43.9204" lon="7.24307">
        <ele>865.801</ele>
        <time>2009-05-31T09:27:08Z</time>
      </trkpt>
      <trkpt lat="43.92034" lon="7.24297">
        <ele>866.915</ele>
        <time>2009-05-31T09:27:18Z</time>
      </trkpt>
      <trkpt lat="43.92031" lon="7.24286">
        <ele>867.915</ele>
        <time>2009-05-31T09:27:28Z</time>
      </trkpt>
      <trkpt lat="43.92025" lon="7.24279">
        <ele>870.561</ele>
        <time>2009-05-31T09:27:37Z</time>
      </trkpt>
      <trkpt lat="43.92019" lon="7.24275">
        <ele>872.52</ele>
        <time>2009-05-31T09:27:45Z</time>
      </trkpt>
      <trkpt lat="43.9201" lon="7.24273">
        <ele>874.931</ele>
        <time>2009-05-31T09:27:53Z</time>
      </trkpt>
      <trkpt lat="43.92009" lon="7.24273">
        <ele>875.279</ele>
        <time>2009-05-31T09:27:54Z</time>
      </trkpt>
      <trkpt lat="43.92004" lon="7.24271">
        <ele>877.059</ele>
        <time>2009-05-31T09:28:03Z</time>
      </trkpt>
      <trkpt lat="43.91997" lon="7.24266">
        <ele>877.994</ele>
        <time>2009-05-31T09:28:13Z</time>
      </trkpt>
      <trkpt lat="43.91992" lon="7.2426">
        <ele>878.96</ele>
        <time>2009-05-31T09:28:21Z</time>
      </trkpt>
      <trkpt lat="43.91988" lon="7.24253">
        <ele>879.296</ele>
        <time>2009-05-31T09:28:28Z</time>
      </trkpt>
      <trkpt lat="43.91982" lon="7.24247">
        <ele>879.217</ele>
        <time>2009-05-31T09:28:37Z</time>
      </trkpt>
      <trkpt lat="43.91976" lon="7.2424">
        <ele>881.12</ele>
        <time>2009-05-31T09:28:47Z</time>
      </trkpt>
      <trkpt lat="43.91973" lon="7.24233">
        <ele>880.789</ele>
        <time>2009-05-31T09:28:54Z</time>
      </trkpt>
      <trkpt lat="43.91969" lon="7.24227">
        <ele>882.137</ele>
        <time>2009-05-31T09:29:02Z</time>
      </trkpt>
      <trkpt lat="43.91972" lon="7.24225">
        <ele>882.243</ele>
        <time>2009-05-31T09:29:16Z</time>
      </trkpt>
      <trkpt lat="43.9198" lon="7.24228">
        <ele>882.796</ele>
        <time>2009-05-31T09:29:28Z</time>
      </trkpt>
      <trkpt lat="43.91988" lon="7.24236">
        <ele>883.489</ele>
        <time>2009-05-31T09:29:37Z</time>
      </trkpt>
      <trkpt lat="43.91989" lon="7.24236">
        <ele>883.431</ele>
        <time>2009-05-31T09:29:38Z</time>
      </trkpt>
      <trkpt lat="43.91995" lon="7.24238">
        <ele>886.051</ele>
        <time>2009-05-31T09:29:47Z</time>
      </trkpt>
      <trkpt lat="43.91996" lon="7.24237">
        <ele>885.541</ele>
        <time>2009-05-31T09:29:49Z</time>
      </trkpt>
      <trkpt lat="43.92003" lon="7.2423">
        <ele>887.074</ele>
        <time>2009-05-31T09:29:57Z</time>
      </trkpt>
      <trkpt lat="43.92004" lon="7.24224">
        <ele>887.619</ele>
        <time>2009-05-31T09:30:02Z</time>
      </trkpt>
      <trkpt lat="43.92006" lon="7.24222">
        <ele>887.554</ele>
        <time>2009-05-31T09:30:11Z</time>
      </trkpt>
      <trkpt lat="43.92012" lon="7.24213">
        <ele>887.616</ele>
        <time>2009-05-31T09:30:22Z</time>
      </trkpt>
      <trkpt lat="43.92013" lon="7.24213">
        <ele>887.483</ele>
        <time>2009-05-31T09:30:28Z</time>
      </trkpt>
      <trkpt lat="43.92028" lon="7.24211">
        <ele>887.498</ele>
        <time>2009-05-31T09:30:36Z</time>
      </trkpt>
      <trkpt lat="43.92042" lon="7.24209">
        <ele>887.44</ele>
        <time>2009-05-31T09:30:43Z</time>
      </trkpt>
      <trkpt lat="43.92058" lon="7.24207">
        <ele>886.802</ele>
        <time>2009-05-31T09:30:51Z</time>
      </trkpt>
      <trkpt lat="43.92067" lon="7.24195">
        <ele>888.614</ele>
        <time>2009-05-31T09:30:58Z</time>
      </trkpt>
      <trkpt lat="43.92071" lon="7.24178">
        <ele>889.431</ele>
        <time>2009-05-31T09:31:04Z</time>
      </trkpt>
      <trkpt lat="43.92074" lon="7.24152">
        <ele>888.162</ele>
        <time>2009-05-31T09:31:11Z</time>
      </trkpt>
      <trkpt lat="43.92074" lon="7.24132">
        <ele>888.906</ele>
        <time>2009-05-31T09:31:19Z</time>
      </trkpt>
      <trkpt lat="43.92077" lon="7.24113">
        <ele>890.555</ele>
        <time>2009-05-31T09:31:27Z</time>
      </trkpt>
      <trkpt lat="43.92085" lon="7.24101">
        <ele>892.092</ele>
        <time>2009-05-31T09:31:33Z</time>
      </trkpt>
      <trkpt lat="43.92101" lon="7.24087">
        <ele>894.321</ele>
        <time>2009-05-31T09:31:43Z</time>
      </trkpt>
      <trkpt lat="43.92115" lon="7.24079">
        <ele>893.631</ele>
        <time>2009-05-31T09:31:50Z</time>
      </trkpt>
      <trkpt lat="43.92124" lon="7.24065">
        <ele>893.483</ele>
        <time>2009-05-31T09:31:56Z</time>
      </trkpt>
      <trkpt lat="43.92131" lon="7.24045">
        <ele>893.055</ele>
        <time>2009-05-31T09:32:04Z</time>
      </trkpt>
      <trkpt lat="43.92137" lon="7.24029">
        <ele>895.09</ele>
        <time>2009-05-31T09:32:11Z</time>
      </trkpt>
      <trkpt lat="43.92138" lon="7.24005">
        <ele>894.133</ele>
        <time>2009-05-31T09:32:18Z</time>
      </trkpt>
      <trkpt lat="43.9214" lon="7.23975">
        <ele>890.535</ele>
        <time>2009-05-31T09:32:23Z</time>
      </trkpt>
      <trkpt lat="43.92141" lon="7.23962">
        <ele>889.717</ele>
        <time>2009-05-31T09:32:25Z</time>
      </trkpt>
      <trkpt lat="43.9214" lon="7.23933">
        <ele>889.005</ele>
        <time>2009-05-31T09:32:31Z</time>
      </trkpt>
      <trkpt lat="43.92136" lon="7.23912">
        <ele>887.771</ele>
        <time>2009-05-31T09:32:38Z</time>
      </trkpt>
      <trkpt lat="43.92131" lon="7.23895">
        <ele>888.73</ele>
        <time>2009-05-31T09:32:45Z</time>
      </trkpt>
      <trkpt lat="43.92121" lon="7.2389">
        <ele>889.18</ele>
        <time>2009-05-31T09:32:52Z</time>
      </trkpt>
      <trkpt lat="43.92107" lon="7.23895">
        <ele>892.455</ele>
        <time>2009-05-31T09:33:01Z</time>
      </trkpt>
      <trkpt lat="43.92096" lon="7.239">
        <ele>895.816</ele>
        <time>2009-05-31T09:33:09Z</time>
      </trkpt>
      <trkpt lat="43.92084" lon="7.23903">
        <ele>897.977</ele>
        <time>2009-05-31T09:33:17Z</time>
      </trkpt>
      <trkpt lat="43.92073" lon="7.23901">
        <ele>900.291</ele>
        <time>2009-05-31T09:33:25Z</time>
      </trkpt>
      <trkpt lat="43.9207" lon="7.23899">
        <ele>901.99</ele>
        <time>2009-05-31T09:33:33Z</time>
      </trkpt>
      <trkpt lat="43.92062" lon="7.23898">
        <ele>904.251</ele>
        <time>2009-05-31T09:33:46Z</time>
      </trkpt>
      <trkpt lat="43.92057" lon="7.2389">
        <ele>904.752</ele>
        <time>2009-05-31T09:33:57Z</time>
      </trkpt>
      <trkpt lat="43.92056" lon="7.23888">
        <ele>905.229</ele>
        <time>2009-05-31T09:33:58Z</time>
      </trkpt>
      <trkpt lat="43.92054" lon="7.23878">
        <ele>904.532</ele>
        <time>2009-05-31T09:34:04Z</time>
      </trkpt>
      <trkpt lat="43.92051" lon="7.23874">
        <ele>903.283</ele>
        <time>2009-05-31T09:34:12Z</time>
      </trkpt>
      <trkpt lat="43.92048" lon="7.23867">
        <ele>903.212</ele>
        <time>2009-05-31T09:34:24Z</time>
      </trkpt>
      <trkpt lat="43.9204" lon="7.23854">
        <ele>904.147</ele>
        <time>2009-05-31T09:34:32Z</time>
      </trkpt>
      <trkpt lat="43.92033" lon="7.23851">
        <ele>905.022</ele>
        <time>2009-05-31T09:34:37Z</time>
      </trkpt>
      <trkpt lat="43.92029" lon="7.23838">
        <ele>907.828</ele>
        <time>2009-05-31T09:34:45Z</time>
      </trkpt>
      <trkpt lat="43.92029" lon="7.23836">
        <ele>909.49</ele>
        <time>2009-05-31T09:34:51Z</time>
      </trkpt>
      <trkpt lat="43.92028" lon="7.23828">
        <ele>910.558</ele>
        <time>2009-05-31T09:35:00Z</time>
      </trkpt>
      <trkpt lat="43.9203" lon="7.23823">
        <ele>909.48</ele>
        <time>2009-05-31T09:35:06Z</time>
      </trkpt>
      <trkpt lat="43.92041" lon="7.23806">
        <ele>908.282</ele>
        <time>2009-05-31T09:35:12Z</time>
      </trkpt>
      <trkpt lat="43.92047" lon="7.23778">
        <ele>907.168</ele>
        <time>2009-05-31T09:35:17Z</time>
      </trkpt>
      <trkpt lat="43.92044" lon="7.23762">
        <ele>906.104</ele>
        <time>2009-05-31T09:35:20Z</time>
      </trkpt>
      <trkpt lat="43.92037" lon="7.23736">
        <ele>907.558</ele>
        <time>2009-05-31T09:35:28Z</time>
      </trkpt>
      <trkpt lat="43.92037" lon="7.23715">
        <ele>907.747</ele>
        <time>2009-05-31T09:35:34Z</time>
      </trkpt>
      <trkpt lat="43.9204" lon="7.23683">
        <ele>908.252</ele>
        <time>2009-05-31T09:35:42Z</time>
      </trkpt>
      <trkpt lat="43.92046" lon="7.23656">
        <ele>909.397</ele>
        <time>2009-05-31T09:35:49Z</time>
      </trkpt>
      <trkpt lat="43.92051" lon="7.23627">
        <ele>910.431</ele>
        <time>2009-05-31T09:35:56Z</time>
      </trkpt>
      <trkpt lat="43.92047" lon="7.23603">
        <ele>912.672</ele>
        <time>2009-05-31T09:36:03Z</time>
      </trkpt>
      <trkpt lat="43.92044" lon="7.23582">
        <ele>914.135</ele>
        <time>2009-05-31T09:36:09Z</time>
      </trkpt>
      <trkpt lat="43.92041" lon="7.23565">
        <ele>915.627</ele>
        <time>2009-05-31T09:36:15Z</time>
      </trkpt>
      <trkpt lat="43.9204" lon="7.23544">
        <ele>915.242</ele>
        <time>2009-05-31T09:36:21Z</time>
      </trkpt>
      <trkpt lat="43.92042" lon="7.23525">
        <ele>914.418</ele>
        <time>2009-05-31T09:36:29Z</time>
      </trkpt>
      <trkpt lat="43.92041" lon="7.23508">
        <ele>914.486</ele>
        <time>2009-05-31T09:36:37Z</time>
      </trkpt>
      <trkpt lat="43.92036" lon="7.23496">
        <ele>915.387</ele>
        <time>2009-05-31T09:36:44Z</time>
      </trkpt>
      <trkpt lat="43.92032" lon="7.23481">
        <ele>916.265</ele>
        <time>2009-05-31T09:36:53Z</time>
      </trkpt>
      <trkpt lat="43.92028" lon="7.23467">
        <ele>918.278</ele>
        <time>2009-05-31T09:37:02Z</time>
      </trkpt>
      <trkpt lat="43.92024" lon="7.23457">
        <ele>920.026</ele>
        <time>2009-05-31T09:37:09Z</time>
      </trkpt>
      <trkpt lat="43.92021" lon="7.23446">
        <ele>921.626</ele>
        <time>2009-05-31T09:37:17Z</time>
      </trkpt>
      <trkpt lat="43.92021" lon="7.23445">
        <ele>921.812</ele>
        <time>2009-05-31T09:37:18Z</time>
      </trkpt>
      <trkpt lat="43.92021" lon="7.23436">
        <ele>922.422</ele>
        <time>2009-05-31T09:37:23Z</time>
      </trkpt>
      <trkpt lat="43.92032" lon="7.23422">
        <ele>923.512</ele>
        <time>2009-05-31T09:37:33Z</time>
      </trkpt>
      <trkpt lat="43.92036" lon="7.23415">
        <ele>924.36</ele>
        <time>2009-05-31T09:37:42Z</time>
      </trkpt>
      <trkpt lat="43.92039" lon="7.23409">
        <ele>924.692</ele>
        <time>2009-05-31T09:37:57Z</time>
      </trkpt>
      <trkpt lat="43.92039" lon="7.23406">
        <ele>924.796</ele>
        <time>2009-05-31T09:38:07Z</time>
      </trkpt>
      <trkpt lat="43.92045" lon="7.23401">
        <ele>925.142</ele>
        <time>2009-05-31T09:38:16Z</time>
      </trkpt>
      <trkpt lat="43.92047" lon="7.23404">
        <ele>925.472</ele>
        <time>2009-05-31T09:38:19Z</time>
      </trkpt>
      <trkpt lat="43.92061" lon="7.23404">
        <ele>926.396</ele>
        <time>2009-05-31T09:38:24Z</time>
      </trkpt>
      <trkpt lat="43.92077" lon="7.23396">
        <ele>926.49</ele>
        <time>2009-05-31T09:38:29Z</time>
      </trkpt>
      <trkpt lat="43.92089" lon="7.23389">
        <ele>927.775</ele>
        <time>2009-05-31T09:38:37Z</time>
      </trkpt>
      <trkpt lat="43.92097" lon="7.23381">
        <ele>929.551</ele>
        <time>2009-05-31T09:38:45Z</time>
      </trkpt>
      <trkpt lat="43.92104" lon="7.23378">
        <ele>931.662</ele>
        <time>2009-05-31T09:38:51Z</time>
      </trkpt>
      <trkpt lat="43.92109" lon="7.23376">
        <ele>933.755</ele>
        <time>2009-05-31T09:38:57Z</time>
      </trkpt>
      <trkpt lat="43.92105" lon="7.23358">
        <ele>931.135</ele>
        <time>2009-05-31T09:39:03Z</time>
      </trkpt>
      <trkpt lat="43.92095" lon="7.23341">
        <ele>930.31</ele>
        <time>2009-05-31T09:39:07Z</time>
      </trkpt>
      <trkpt lat="43.92094" lon="7.23329">
        <ele>929.25</ele>
        <time>2009-05-31T09:39:09Z</time>
      </trkpt>
      <trkpt lat="43.92094" lon="7.23313">
        <ele>928.532</ele>
        <time>2009-05-31T09:39:11Z</time>
      </trkpt>
      <trkpt lat="43.92107" lon="7.23285">
        <ele>927.593</ele>
        <time>2009-05-31T09:39:15Z</time>
      </trkpt>
      <trkpt lat="43.92112" lon="7.23268">
        <ele>925.775</ele>
        <time>2009-05-31T09:39:17Z</time>
      </trkpt>
      <trkpt lat="43.9213" lon="7.23247">
        <ele>926.058</ele>
        <time>2009-05-31T09:39:22Z</time>
      </trkpt>
      <trkpt lat="43.92134" lon="7.23237">
        <ele>926.748</ele>
        <time>2009-05-31T09:39:26Z</time>
      </trkpt>
      <trkpt lat="43.92137" lon="7.23231">
        <ele>926.991</ele>
        <time>2009-05-31T09:39:30Z</time>
      </trkpt>
      <trkpt lat="43.92146" lon="7.23217">
        <ele>929.222</ele>
        <time>2009-05-31T09:39:39Z</time>
      </trkpt>
      <trkpt lat="43.92164" lon="7.23206">
        <ele>927.461</ele>
        <time>2009-05-31T09:39:44Z</time>
      </trkpt>
      <trkpt lat="43.92169" lon="7.23201">
        <ele>926.897</ele>
        <time>2009-05-31T09:39:48Z</time>
      </trkpt>
      <trkpt lat="43.92171" lon="7.23194">
        <ele>928.045</ele>
        <time>2009-05-31T09:39:52Z</time>
      </trkpt>
      <trkpt lat="43.92175" lon="7.23184">
        <ele>929.79</ele>
        <time>2009-05-31T09:39:59Z</time>
      </trkpt>
      <trkpt lat="43.92183" lon="7.23173">
        <ele>931.817</ele>
        <time>2009-05-31T09:40:07Z</time>
      </trkpt>
      <trkpt lat="43.92186" lon="7.23168">
        <ele>933.2</ele>
        <time>2009-05-31T09:40:15Z</time>
      </trkpt>
      <trkpt lat="43.92199" lon="7.2315">
        <ele>934.394</ele>
        <time>2009-05-31T09:40:55Z</time>
      </trkpt>
      <trkpt lat="43.92203" lon="7.23145">
        <ele>934.647</ele>
        <time>2009-05-31T09:41:02Z</time>
      </trkpt>
      <trkpt lat="43.92209" lon="7.2313">
        <ele>934.719</ele>
        <time>2009-05-31T09:41:08Z</time>
      </trkpt>
      <trkpt lat="43.92213" lon="7.2312">
        <ele>934.856</ele>
        <time>2009-05-31T09:41:14Z</time>
      </trkpt>
      <trkpt lat="43.92218" lon="7.2311">
        <ele>935.451</ele>
        <time>2009-05-31T09:41:21Z</time>
      </trkpt>
      <trkpt lat="43.92227" lon="7.23102">
        <ele>938.62</ele>
        <time>2009-05-31T09:41:30Z</time>
      </trkpt>
      <trkpt lat="43.92238" lon="7.23095">
        <ele>940.475</ele>
        <time>2009-05-31T09:41:38Z</time>
      </trkpt>
      <trkpt lat="43.92244" lon="7.23084">
        <ele>942.778</ele>
        <time>2009-05-31T09:41:43Z</time>
      </trkpt>
      <trkpt lat="43.92246" lon="7.23077">
        <ele>945.264</ele>
        <time>2009-05-31T09:41:48Z</time>
      </trkpt>
      <trkpt lat="43.92247" lon="7.23077">
        <ele>945.302</ele>
        <time>2009-05-31T09:42:01Z</time>
      </trkpt>
      <trkpt lat="43.92247" lon="7.23074">
        <ele>945.4</ele>
        <time>2009-05-31T09:42:07Z</time>
      </trkpt>
      <trkpt lat="43.92249" lon="7.23072">
        <ele>946.269</ele>
        <time>2009-05-31T09:42:17Z</time>
      </trkpt>
      <trkpt lat="43.92247" lon="7.23063">
        <ele>946.95</ele>
        <time>2009-05-31T09:42:25Z</time>
      </trkpt>
      <trkpt lat="43.92249" lon="7.23061">
        <ele>947.295</ele>
        <time>2009-05-31T09:42:31Z</time>
      </trkpt>
      <trkpt lat="43.92257" lon="7.23043">
        <ele>946.385</ele>
        <time>2009-05-31T09:42:42Z</time>
      </trkpt>
      <trkpt lat="43.92261" lon="7.2303">
        <ele>948.073</ele>
        <time>2009-05-31T09:42:50Z</time>
      </trkpt>
      <trkpt lat="43.92263" lon="7.23014">
        <ele>948.171</ele>
        <time>2009-05-31T09:42:57Z</time>
      </trkpt>
      <trkpt lat="43.92262" lon="7.23">
        <ele>947.376</ele>
        <time>2009-05-31T09:43:00Z</time>
      </trkpt>
      <trkpt lat="43.92263" lon="7.22987">
        <ele>945.705</ele>
        <time>2009-05-31T09:43:02Z</time>
      </trkpt>
      <trkpt lat="43.92276" lon="7.22956">
        <ele>944.877</ele>
        <time>2009-05-31T09:43:07Z</time>
      </trkpt>
      <trkpt lat="43.92285" lon="7.22945">
        <ele>944.859</ele>
        <time>2009-05-31T09:43:14Z</time>
      </trkpt>
      <trkpt lat="43.92295" lon="7.22937">
        <ele>946.743</ele>
        <time>2009-05-31T09:43:22Z</time>
      </trkpt>
      <trkpt lat="43.92299" lon="7.22934">
        <ele>946.043</ele>
        <time>2009-05-31T09:43:26Z</time>
      </trkpt>
      <trkpt lat="43.92304" lon="7.22921">
        <ele>946.969</ele>
        <time>2009-05-31T09:43:35Z</time>
      </trkpt>
      <trkpt lat="43.92313" lon="7.22875">
        <ele>950.26</ele>
        <time>2009-05-31T09:45:00Z</time>
      </trkpt>
      <trkpt lat="43.92313" lon="7.22876">
        <ele>949.981</ele>
        <time>2009-05-31T09:45:07Z</time>
      </trkpt>
      <trkpt lat="43.92315" lon="7.22873">
        <ele>950.244</ele>
        <time>2009-05-31T09:45:09Z</time>
      </trkpt>
      <trkpt lat="43.92314" lon="7.2286">
        <ele>952.546</ele>
        <time>2009-05-31T09:45:18Z</time>
      </trkpt>
      <trkpt lat="43.92328" lon="7.22855">
        <ele>952.686</ele>
        <time>2009-05-31T09:45:26Z</time>
      </trkpt>
      <trkpt lat="43.92337" lon="7.22846">
        <ele>954.714</ele>
        <time>2009-05-31T09:45:33Z</time>
      </trkpt>
      <trkpt lat="43.92347" lon="7.22843">
        <ele>956.486</ele>
        <time>2009-05-31T09:45:41Z</time>
      </trkpt>
      <trkpt lat="43.92349" lon="7.22842">
        <ele>956.177</ele>
        <time>2009-05-31T09:45:42Z</time>
      </trkpt>
      <trkpt lat="43.92357" lon="7.22845">
        <ele>954.69</ele>
        <time>2009-05-31T09:45:49Z</time>
      </trkpt>
      <trkpt lat="43.92369" lon="7.22844">
        <ele>954.81</ele>
        <time>2009-05-31T09:45:55Z</time>
      </trkpt>
      <trkpt lat="43.92385" lon="7.22839">
        <ele>957.096</ele>
        <time>2009-05-31T09:46:02Z</time>
      </trkpt>
      <trkpt lat="43.92399" lon="7.22836">
        <ele>958.736</ele>
        <time>2009-05-31T09:46:10Z</time>
      </trkpt>
      <trkpt lat="43.92407" lon="7.22848">
        <ele>958.379</ele>
        <time>2009-05-31T09:46:17Z</time>
      </trkpt>
      <trkpt lat="43.92409" lon="7.22855">
        <ele>958.673</ele>
        <time>2009-05-31T09:46:21Z</time>
      </trkpt>
      <trkpt lat="43.92436" lon="7.22858">
        <ele>958.677</ele>
        <time>2009-05-31T09:46:28Z</time>
      </trkpt>
      <trkpt lat="43.92441" lon="7.22859">
        <ele>959.579</ele>
        <time>2009-05-31T09:46:29Z</time>
      </trkpt>
      <trkpt lat="43.92459" lon="7.22854">
        <ele>960.966</ele>
        <time>2009-05-31T09:46:38Z</time>
      </trkpt>
      <trkpt lat="43.92471" lon="7.22847">
        <ele>963.816</ele>
        <time>2009-05-31T09:46:45Z</time>
      </trkpt>
      <trkpt lat="43.92484" lon="7.22831">
        <ele>962.271</ele>
        <time>2009-05-31T09:46:53Z</time>
      </trkpt>
      <trkpt lat="43.92496" lon="7.2282">
        <ele>961.401</ele>
        <time>2009-05-31T09:46:59Z</time>
      </trkpt>
      <trkpt lat="43.92507" lon="7.22811">
        <ele>960.876</ele>
        <time>2009-05-31T09:47:05Z</time>
      </trkpt>
      <trkpt lat="43.92519" lon="7.22805">
        <ele>959.646</ele>
        <time>2009-05-31T09:47:12Z</time>
      </trkpt>
      <trkpt lat="43.92535" lon="7.22796">
        <ele>960.828</ele>
        <time>2009-05-31T09:47:20Z</time>
      </trkpt>
      <trkpt lat="43.92541" lon="7.22784">
        <ele>961.556</ele>
        <time>2009-05-31T09:47:27Z</time>
      </trkpt>
      <trkpt lat="43.92545" lon="7.22765">
        <ele>963.46</ele>
        <time>2009-05-31T09:47:35Z</time>
      </trkpt>
      <trkpt lat="43.92548" lon="7.22754">
        <ele>963.393</ele>
        <time>2009-05-31T09:47:41Z</time>
      </trkpt>
      <trkpt lat="43.92545" lon="7.22739">
        <ele>965.898</ele>
        <time>2009-05-31T09:47:48Z</time>
      </trkpt>
      <trkpt lat="43.92538" lon="7.22719">
        <ele>967.499</ele>
        <time>2009-05-31T09:47:55Z</time>
      </trkpt>
      <trkpt lat="43.92529" lon="7.227">
        <ele>968.432</ele>
        <time>2009-05-31T09:48:00Z</time>
      </trkpt>
      <trkpt lat="43.9252" lon="7.22656">
        <ele>971.171</ele>
        <time>2009-05-31T09:48:06Z</time>
      </trkpt>
      <trkpt lat="43.92514" lon="7.22639">
        <ele>973.392</ele>
        <time>2009-05-31T09:48:10Z</time>
      </trkpt>
      <trkpt lat="43.9251" lon="7.22629">
        <ele>974.092</ele>
        <time>2009-05-31T09:48:12Z</time>
      </trkpt>
      <trkpt lat="43.92503" lon="7.22613">
        <ele>974.526</ele>
        <time>2009-05-31T09:48:15Z</time>
      </trkpt>
      <trkpt lat="43.92491" lon="7.22581">
        <ele>976.311</ele>
        <time>2009-05-31T09:48:21Z</time>
      </trkpt>
      <trkpt lat="43.92478" lon="7.22568">
        <ele>977.53</ele>
        <time>2009-05-31T09:48:25Z</time>
      </trkpt>
      <trkpt lat="43.92454" lon="7.22558">
        <ele>978.069</ele>
        <time>2009-05-31T09:48:31Z</time>
      </trkpt>
      <trkpt lat="43.92444" lon="7.22567">
        <ele>978.348</ele>
        <time>2009-05-31T09:48:33Z</time>
      </trkpt>
      <trkpt lat="43.92432" lon="7.22581">
        <ele>980.625</ele>
        <time>2009-05-31T09:48:38Z</time>
      </trkpt>
      <trkpt lat="43.92421" lon="7.2258">
        <ele>982.304</ele>
        <time>2009-05-31T09:48:44Z</time>
      </trkpt>
      <trkpt lat="43.92402" lon="7.22571">
        <ele>983.921</ele>
        <time>2009-05-31T09:48:50Z</time>
      </trkpt>
      <trkpt lat="43.9239" lon="7.22573">
        <ele>985.399</ele>
        <time>2009-05-31T09:48:57Z</time>
      </trkpt>
      <trkpt lat="43.92372" lon="7.22571">
        <ele>985.773</ele>
        <time>2009-05-31T09:49:05Z</time>
      </trkpt>
      <trkpt lat="43.9236" lon="7.22571">
        <ele>984.768</ele>
        <time>2009-05-31T09:49:11Z</time>
      </trkpt>
      <trkpt lat="43.92351" lon="7.2256">
        <ele>984.246</ele>
        <time>2009-05-31T09:49:17Z</time>
      </trkpt>
      <trkpt lat="43.92346" lon="7.22546">
        <ele>983.273</ele>
        <time>2009-05-31T09:49:22Z</time>
      </trkpt>
      <trkpt lat="43.92341" lon="7.22524">
        <ele>982.527</ele>
        <time>2009-05-31T09:49:27Z</time>
      </trkpt>
      <trkpt lat="43.92334" lon="7.22518">
        <ele>981.441</ele>
        <time>2009-05-31T09:49:32Z</time>
      </trkpt>
      <trkpt lat="43.92343" lon="7.225">
        <ele>979.143</ele>
        <time>2009-05-31T09:49:39Z</time>
      </trkpt>
      <trkpt lat="43.92344" lon="7.22495">
        <ele>978.804</ele>
        <time>2009-05-31T09:49:40Z</time>
      </trkpt>
      <trkpt lat="43.92344" lon="7.2248">
        <ele>976.746</ele>
        <time>2009-05-31T09:49:44Z</time>
      </trkpt>
      <trkpt lat="43.92341" lon="7.22475">
        <ele>977.267</ele>
        <time>2009-05-31T09:49:50Z</time>
      </trkpt>
      <trkpt lat="43.92341" lon="7.22469">
        <ele>977.758</ele>
        <time>2009-05-31T09:49:54Z</time>
      </trkpt>
      <trkpt lat="43.92339" lon="7.22458">
        <ele>977.902</ele>
        <time>2009-05-31T09:49:59Z</time>
      </trkpt>
      <trkpt lat="43.9233" lon="7.2244">
        <ele>975.281</ele>
        <time>2009-05-31T09:50:09Z</time>
      </trkpt>
      <trkpt lat="43.92315" lon="7.22437">
        <ele>975.631</ele>
        <time>2009-05-31T09:50:15Z</time>
      </trkpt>
      <trkpt lat="43.92308" lon="7.22435">
        <ele>975.936</ele>
        <time>2009-05-31T09:50:17Z</time>
      </trkpt>
      <trkpt lat="43.92302" lon="7.22425">
        <ele>974.229</ele>
        <time>2009-05-31T09:50:23Z</time>
      </trkpt>
      <trkpt lat="43.92291" lon="7.22409">
        <ele>974.295</ele>
        <time>2009-05-31T09:51:08Z</time>
      </trkpt>
      <trkpt lat="43.92291" lon="7.22401">
        <ele>974.459</ele>
        <time>2009-05-31T09:51:15Z</time>
      </trkpt>
      <trkpt lat="43.92289" lon="7.22394">
        <ele>974.261</ele>
        <time>2009-05-31T09:51:27Z</time>
      </trkpt>
      <trkpt lat="43.92287" lon="7.2239">
        <ele>974.219</ele>
        <time>2009-05-31T09:51:41Z</time>
      </trkpt>
      <trkpt lat="43.92287" lon="7.22388">
        <ele>974.952</ele>
        <time>2009-05-31T09:54:17Z</time>
      </trkpt>
    </trkseg>
  </trk>
</gpx>